[[{"header":{"parameterUnit":"m.s-1","parameterCategory":1,"la1":31.0,"la2":29.5877,"lo1":-88.7671,"lo2":-86.6584,"dy":0.0162,"dx":0.0185,"nx":115,"ny":88,"refTime":"2026-05-20T12:00:00:Z","depth":0,"parameterNumber":2,"parameterNumberName":"U-component_of_WINDS"},"data":[0.0,0.0,0.0,0.0,0.0,0.0,0.0,0.0,0.0,0.0,0.0,0.0,0.0,0.0,0.0,0.0,0.0,0.0,0.0,0.0,0.0,0.0,0.0,0.0,0.0,0.0,0.0,0.0,0.0,0.0,0.0,0.0,0.0,0.0,0.0,0.0,0.0,0.0,0.0,0.0,0.0,0.0,0.0,0.0,0.0,0.0,0.0,0.0,0.0,0.0,0.0,0.0,0.0,0.0,0.0,0.0,0.0,0.0,0.0,0.0,0.0,0.0,0.0,0.0,0.0,0.0,0.0,0.0,0.0,0.0,0.0,0.0,0.0,0.0,0.0,0.0,0.0,0.0,0.0,0.0,0.0,0.0,0.0,0.0,0.0,0.0,0.0,0.0,0.0,0.0,0.0,0.0,0.0,0.0,0.0,0.0,0.0,0.0,0.0,0.0,0.0,0.0,0.0,0.0,0.0,0.0,0.0,0.0,0.0,0.0,0.0,0.0,0.0,0.0,0.0,0.0,0.0,0.0,0.0,0.0,0.0,0.0,0.0,0.0,0.0,0.0,0.0,0.0,0.0,0.0,0.0,0.0,0.0,0.0,0.0,0.0,0.0,0.0,0.0,0.0,0.0,0.0,0.0,0.0,0.0,0.0,0.0,0.0,0.0,0.0,0.0,0.0,0.0,0.0,0.0,0.0,0.0,0.0,0.0,0.0,0.0,0.0,0.0,0.0,0.0,0.0,0.0,0.0,0.0,0.0,0.0,0.0,0.0,0.0,0.0,0.0,0.0,0.0,0.0,0.0,0.0,0.0,0.0,0.0,0.0,0.0,0.0,0.0,0.0,0.0,0.0,0.0,0.0,0.0,0.0,0.0,0.0,0.0,0.0,0.0,0.0,0.0,0.0,0.0,0.0,0.0,0.0,0.0,0.0,0.0,0.0,0.0,0.0,0.0,0.0,0.0,0.0,0.0,0.0,0.0,0.0,0.0,0.0,0.0,0.0,0.0,0.0,0.0,0.0,0.0,0.0,0.0,0.0,0.0,0.0,0.0,0.0,0.0,0.0,0.0,0.0,0.0,0.0,0.0,0.0,0.0,0.0,0.0,0.0,0.0,0.0,0.0,0.0,0.0,0.0,0.0,0.0,0.0,0.0,0.0,0.0,0.0,0.0,0.0,0.0,0.0,0.0,0.0,0.0,0.0,0.0,0.0,0.0,0.0,0.0,0.0,0.0,0.0,0.0,0.0,0.0,0.0,0.0,0.0,0.0,0.0,0.0,0.0,0.0,0.0,0.0,0.0,0.0,0.0,0.0,0.0,0.0,0.0,0.0,0.0,0.0,0.0,0.0,0.0,0.0,0.0,0.0,0.0,0.0,0.0,0.0,0.0,0.0,0.0,0.0,0.0,0.0,0.0,0.0,0.0,0.0,0.0,0.0,0.0,0.0,0.0,0.0,0.0,0.0,0.0,0.0,0.0,0.0,0.0,0.0,0.0,0.0,0.0,0.0,0.0,0.0,0.0,0.0,0.0,0.0,0.0,0.0,0.0,0.0,0.0,0.0,0.0,0.0,0.0,0.0,0.0,0.0,0.0,0.0,0.0,0.0,0.0,0.0,0.0,0.0,0.0,0.0,0.0,0.0,0.0,0.0,0.0,0.0,0.0,0.0,0.0,0.0,0.0,0.0,0.0,0.0,0.0,0.0,0.0,0.0,0.0,0.0,0.0,0.0,0.0,0.0,0.0,0.0,0.0,0.0,0.0,0.0,0.0,0.0,0.0,0.0,0.0,0.0,0.0,0.0,0.0,0.0,0.0,0.0,0.0,0.0,0.0,0.0,0.0,0.0,0.0,0.0,0.0,0.0,0.0,0.0,0.0,0.0,0.0,0.0,0.0,0.0,0.0,0.0,0.0,0.0,0.0,0.0,0.0,0.0,0.0,0.0,0.0,0.0,0.0,0.0,0.0,0.0,0.0,0.0,0.0,0.0,0.0,0.0,0.0,0.0,0.0,0.0,0.0,0.0,0.0,0.0,0.0,0.0,0.0,0.0,0.0,0.0,0.0,0.0,0.0,0.0,0.0,0.0,0.0,0.0,0.0,0.0,0.0,0.0,0.0,0.0,0.0,0.0,0.0,0.0,0.0,0.0,0.0,0.0,0.0,0.0,0.0,0.0,0.0,0.0,0.0,0.0,0.0,0.0,0.0,0.0,0.0,0.0,0.0,0.0,0.0,0.0,0.0,0.0,0.0,0.0,0.0,0.0,0.0,0.0,0.0,0.0,0.0,0.0,0.0,0.0,0.0,0.0,0.0,0.0,0.0,0.0,0.0,0.0,0.0,0.0,0.0,0.0,0.0,0.0,0.0,0.0,0.0,0.0,0.0,0.0,0.0,0.0,0.0,0.0,0.0,0.0,0.0,0.0,0.0,0.0,0.0,0.0,0.0,0.0,0.0,0.0,0.0,0.0,0.0,0.0,0.0,0.0,0.0,0.0,0.0,0.0,0.0,0.0,0.0,0.0,0.0,0.0,0.0,0.0,0.0,0.0,0.0,0.0,0.0,0.0,0.0,0.0,0.0,0.0,0.0,0.0,0.0,0.0,0.0,0.0,0.0,0.0,0.0,0.0,0.0,0.0,0.0,0.0,0.0,0.0,0.0,0.0,0.0,0.0,0.0,0.0,0.0,0.0,0.0,0.0,0.0,0.0,0.0,0.0,0.0,0.0,0.0,0.0,0.0,0.0,0.0,0.0,0.0,0.0,0.0,0.0,0.0,0.0,0.0,0.0,0.0,0.0,0.0,0.0,0.0,0.0,0.0,0.0,0.0,0.0,0.0,0.0,0.0,0.0,0.0,0.0,0.0,0.0,0.0,0.0,0.0,0.0,0.0,0.0,0.0,0.0,0.0,0.0,0.0,0.0,0.0,0.0,0.0,0.0,0.0,0.0,0.0,0.0,0.0,0.0,0.0,0.0,0.0,0.0,0.0,0.0,0.0,0.0,0.0,0.0,0.0,0.0,0.0,0.0,0.0,0.0,0.0,0.0,0.0,0.0,0.0,0.0,0.0,0.0,0.0,0.0,0.0,0.0,0.0,0.0,0.0,0.0,0.0,0.0,0.0,0.0,0.0,0.0,0.0,0.0,0.0,0.0,0.0,0.0,0.0,0.0,0.0,0.0,0.0,0.0,0.0,0.0,0.0,0.0,0.0,0.0,0.0,0.0,0.0,0.0,0.0,0.0,0.0,0.0,0.0,0.0,0.0,0.0,0.0,0.0,0.0,0.0,0.0,0.0,0.0,0.0,0.0,0.0,0.0,0.0,0.0,0.0,0.0,0.0,0.0,0.0,0.0,0.0,0.0,0.0,0.0,0.0,0.0,0.0,0.0,0.0,0.0,0.0,0.0,0.0,0.0,0.0,0.0,0.0,0.0,0.0,0.0,0.0,0.0,0.0,0.0,0.0,0.0,0.0,0.0,0.0,0.0,0.0,0.0,0.0,0.0,0.0,0.0,0.0,0.0,0.0,0.0,0.0,0.0,0.0,0.0,0.0,0.0,0.0,0.0,0.0,0.0,0.0,0.0,0.0,0.0,0.0,0.0,0.0,0.0,0.0,0.0,0.0,0.0,0.0,0.0,0.0,0.0,0.0,0.0,0.0,0.0,0.0,0.0,0.0,0.0,0.0,0.0,0.0,0.0,0.0,0.0,0.0,0.0,0.0,0.0,0.0,0.0,0.0,0.0,0.0,0.0,0.0,0.0,0.0,0.0,0.0,0.0,0.0,0.0,0.0,0.0,0.0,0.0,0.0,0.0,0.0,0.0,0.0,0.0,0.0,0.0,0.0,0.0,0.0,0.0,0.0,0.0,0.0,0.0,0.0,0.0,0.0,0.0,0.0,0.0,0.0,0.0,0.0,0.0,0.0,0.0,0.0,0.0,0.0,0.0,0.0,0.0,0.0,0.0,0.0,0.0,0.0,0.0,0.0,0.0,0.0,0.0,0.0,0.0,0.0,0.0,0.0,0.0,0.0,0.0,0.0,0.0,0.0,0.0,0.0,0.0,0.0,0.0,0.0,0.0,0.0,0.0,0.0,0.0,0.0,0.0,0.0,0.0,0.0,0.0,0.0,0.0,0.0,0.0,0.0,0.0,0.0,0.0,0.0,0.0,0.0,0.0,0.0,0.0,0.0,0.0,0.0,0.0,0.0,0.0,0.0,0.0,0.0,0.0,0.0,0.0,0.0,0.0,0.0,0.0,0.0,0.0,0.0,0.0,0.0,0.0,0.0,0.0,-3.2016,0.0,0.0,0.0,0.0,0.0,0.0,0.0,0.0,0.0,0.0,0.0,0.0,0.0,0.0,0.0,0.0,0.0,0.0,0.0,0.0,0.0,0.0,0.0,0.0,0.0,0.0,0.0,0.0,0.0,0.0,0.0,0.0,0.0,0.0,0.0,0.0,0.0,0.0,0.0,0.0,0.0,0.0,0.0,0.0,0.0,0.0,0.0,0.0,0.0,0.0,0.0,0.0,0.0,0.0,0.0,0.0,0.0,0.0,0.0,0.0,0.0,0.0,0.0,0.0,0.0,0.0,0.0,0.0,0.0,0.0,0.0,0.0,0.0,0.0,0.0,0.0,0.0,0.0,0.0,0.0,0.0,0.0,0.0,0.0,0.0,0.0,0.0,0.0,0.0,0.0,0.0,0.0,0.0,0.0,0.0,0.0,0.0,0.0,0.0,0.0,0.0,0.0,0.0,0.0,0.0,0.0,0.0,0.0,0.0,0.0,-3.8346,-3.8003,-3.7474,-3.6186,-3.4034,0.0,0.0,0.0,0.0,0.0,0.0,0.0,0.0,0.0,0.0,0.0,0.0,0.0,0.0,0.0,0.0,0.0,0.0,0.0,0.0,0.0,0.0,0.0,0.0,0.0,0.0,0.0,0.0,0.0,0.0,0.0,0.0,0.0,0.0,0.0,0.0,0.0,0.0,0.0,0.0,0.0,0.0,0.0,0.0,0.0,0.0,0.0,0.0,0.0,0.0,0.0,0.0,0.0,0.0,0.0,0.0,0.0,0.0,0.0,0.0,0.0,0.0,0.0,0.0,0.0,0.0,0.0,0.0,0.0,0.0,0.0,0.0,0.0,0.0,0.0,0.0,0.0,0.0,0.0,0.0,0.0,0.0,0.0,0.0,0.0,0.0,0.0,0.0,0.0,0.0,0.0,0.0,0.0,0.0,0.0,0.0,0.0,0.0,0.0,0.0,0.0,0.0,0.0,0.0,0.0,0.0,0.0,0.0,0.0,0.0,0.0,0.0,-3.8712,-3.7403,-3.4846,0.0,0.0,0.0,0.0,0.0,0.0,0.0,0.0,0.0,0.0,0.0,0.0,0.0,0.0,0.0,0.0,0.0,0.0,0.0,0.0,0.0,0.0,0.0,0.0,0.0,0.0,0.0,0.0,0.0,0.0,0.0,0.0,0.0,0.0,0.0,0.0,0.0,0.0,0.0,0.0,0.0,0.0,0.0,0.0,0.0,0.0,0.0,0.0,0.0,0.0,0.0,0.0,0.0,0.0,0.0,0.0,0.0,0.0,0.0,0.0,0.0,0.0,0.0,0.0,0.0,0.0,0.0,0.0,0.0,0.0,0.0,0.0,0.0,0.0,0.0,0.0,0.0,0.0,0.0,0.0,0.0,0.0,0.0,0.0,0.0,0.0,0.0,0.0,0.0,0.0,0.0,0.0,0.0,0.0,0.0,0.0,0.0,0.0,0.0,0.0,0.0,0.0,0.0,0.0,0.0,0.0,0.0,0.0,0.0,0.0,-3.9731,-3.978,-3.9632,0.0,-3.2386,0.0,0.0,0.0,0.0,0.0,0.0,0.0,0.0,0.0,0.0,0.0,0.0,0.0,0.0,0.0,0.0,0.0,0.0,0.0,0.0,0.0,0.0,0.0,0.0,0.0,0.0,0.0,0.0,0.0,0.0,0.0,0.0,0.0,0.0,0.0,0.0,0.0,0.0,0.0,0.0,0.0,0.0,0.0,0.0,0.0,0.0,0.0,0.0,0.0,0.0,0.0,0.0,0.0,0.0,0.0,0.0,0.0,0.0,0.0,0.0,0.0,0.0,0.0,0.0,0.0,0.0,0.0,0.0,0.0,0.0,0.0,0.0,0.0,0.0,0.0,0.0,0.0,0.0,0.0,0.0,0.0,0.0,0.0,0.0,0.0,0.0,0.0,0.0,0.0,0.0,0.0,0.0,0.0,0.0,0.0,0.0,0.0,0.0,0.0,0.0,0.0,0.0,0.0,0.0,0.0,0.0,0.0,0.0,0.0,0.0,-4.0512,-4.062,-3.9487,-3.6763,0.0,0.0,0.0,0.0,0.0,0.0,0.0,0.0,0.0,0.0,0.0,0.0,0.0,0.0,0.0,0.0,0.0,0.0,0.0,0.0,0.0,0.0,0.0,0.0,0.0,0.0,0.0,0.0,0.0,0.0,0.0,0.0,0.0,0.0,0.0,0.0,0.0,0.0,0.0,0.0,0.0,0.0,0.0,0.0,0.0,0.0,0.0,0.0,0.0,0.0,0.0,0.0,0.0,0.0,0.0,0.0,0.0,0.0,0.0,0.0,0.0,0.0,0.0,0.0,0.0,0.0,0.0,0.0,0.0,0.0,0.0,0.0,0.0,0.0,0.0,0.0,0.0,0.0,0.0,0.0,0.0,0.0,0.0,0.0,0.0,0.0,0.0,0.0,0.0,0.0,0.0,0.0,0.0,0.0,0.0,0.0,0.0,0.0,0.0,0.0,0.0,0.0,0.0,0.0,0.0,0.0,0.0,0.0,0.0,0.0,-4.1107,-4.089,-4.0642,-3.9337,-3.6679,-3.2645,0.0,0.0,0.0,0.0,0.0,0.0,0.0,0.0,0.0,0.0,0.0,0.0,0.0,0.0,0.0,0.0,0.0,0.0,0.0,0.0,0.0,0.0,0.0,0.0,0.0,0.0,0.0,0.0,0.0,0.0,0.0,0.0,0.0,0.0,0.0,0.0,0.0,0.0,0.0,0.0,0.0,0.0,0.0,0.0,0.0,0.0,0.0,0.0,0.0,0.0,0.0,0.0,0.0,0.0,0.0,0.0,0.0,0.0,0.0,0.0,0.0,0.0,0.0,0.0,0.0,0.0,0.0,0.0,0.0,0.0,0.0,0.0,0.0,0.0,0.0,0.0,0.0,0.0,0.0,0.0,0.0,0.0,0.0,0.0,0.0,0.0,0.0,0.0,0.0,0.0,0.0,0.0,0.0,0.0,0.0,0.0,0.0,0.0,0.0,0.0,0.0,0.0,0.0,0.0,0.0,0.0,0.0,0.0,-4.2057,-4.14,-4.0557,-3.974,-3.9451,-3.7212,0.0,0.0,0.0,0.0,0.0,0.0,0.0,0.0,0.0,0.0,0.0,0.0,0.0,0.0,0.0,0.0,0.0,0.0,0.0,0.0,0.0,0.0,0.0,0.0,0.0,0.0,0.0,0.0,0.0,0.0,0.0,0.0,0.0,0.0,0.0,0.0,0.0,0.0,0.0,0.0,0.0,0.0,0.0,0.0,0.0,0.0,0.0,0.0,0.0,0.0,0.0,0.0,0.0,0.0,0.0,0.0,0.0,0.0,0.0,0.0,0.0,0.0,0.0,0.0,0.0,0.0,0.0,0.0,0.0,0.0,0.0,0.0,0.0,0.0,0.0,0.0,0.0,0.0,0.0,0.0,0.0,0.0,0.0,0.0,0.0,0.0,0.0,0.0,0.0,0.0,0.0,0.0,0.0,0.0,0.0,0.0,0.0,0.0,0.0,0.0,0.0,0.0,0.0,0.0,0.0,0.0,0.0,0.0,0.0,-4.137,-4.1124,-4.0818,-4.0338,-3.9048,-3.6945,0.0,0.0,0.0,0.0,0.0,0.0,0.0,0.0,0.0,0.0,0.0,0.0,0.0,0.0,0.0,0.0,0.0,0.0,0.0,0.0,0.0,0.0,0.0,0.0,0.0,0.0,0.0,0.0,0.0,0.0,0.0,0.0,0.0,0.0,0.0,0.0,0.0,0.0,0.0,0.0,0.0,0.0,0.0,0.0,0.0,0.0,0.0,0.0,0.0,0.0,0.0,0.0,0.0,0.0,0.0,0.0,0.0,0.0,0.0,0.0,0.0,0.0,0.0,0.0,0.0,0.0,0.0,0.0,0.0,0.0,0.0,0.0,0.0,0.0,0.0,0.0,0.0,0.0,0.0,0.0,0.0,0.0,0.0,0.0,0.0,0.0,0.0,0.0,0.0,0.0,0.0,0.0,0.0,0.0,0.0,0.0,0.0,0.0,0.0,0.0,0.0,0.0,0.0,0.0,0.0,0.0,0.0,0.0,0.0,-4.1361,0.0,-4.1484,-4.0805,-3.9065,-3.6954,0.0,0.0,0.0,0.0,0.0,0.0,0.0,0.0,0.0,0.0,0.0,0.0,0.0,0.0,0.0,0.0,0.0,0.0,0.0,0.0,0.0,0.0,0.0,0.0,0.0,0.0,0.0,0.0,0.0,0.0,0.0,0.0,0.0,0.0,0.0,0.0,0.0,0.0,0.0,0.0,0.0,0.0,0.0,0.0,0.0,0.0,0.0,0.0,0.0,0.0,0.0,0.0,0.0,0.0,0.0,0.0,0.0,0.0,0.0,0.0,0.0,0.0,0.0,0.0,0.0,0.0,0.0,0.0,0.0,0.0,0.0,0.0,0.0,0.0,0.0,0.0,0.0,0.0,0.0,0.0,0.0,0.0,0.0,0.0,0.0,0.0,0.0,0.0,0.0,0.0,0.0,0.0,0.0,0.0,0.0,0.0,0.0,0.0,0.0,0.0,0.0,0.0,0.0,0.0,0.0,0.0,0.0,0.0,-4.0964,-4.2146,-4.291,-4.2513,-4.0976,-3.9653,-3.7269,0.0,0.0,0.0,0.0,0.0,0.0,0.0,0.0,0.0,0.0,0.0,0.0,0.0,0.0,0.0,0.0,0.0,0.0,0.0,0.0,0.0,0.0,0.0,0.0,0.0,0.0,0.0,0.0,0.0,0.0,0.0,0.0,0.0,0.0,0.0,0.0,0.0,0.0,0.0,0.0,0.0,0.0,0.0,0.0,0.0,0.0,0.0,0.0,0.0,0.0,0.0,0.0,0.0,0.0,0.0,0.0,0.0,0.0,0.0,0.0,0.0,0.0,0.0,0.0,0.0,0.0,0.0,0.0,0.0,0.0,0.0,0.0,0.0,0.0,0.0,0.0,0.0,0.0,0.0,0.0,0.0,0.0,0.0,0.0,0.0,0.0,0.0,0.0,0.0,0.0,0.0,0.0,0.0,0.0,0.0,0.0,0.0,0.0,0.0,0.0,0.0,0.0,0.0,0.0,0.0,0.0,0.0,0.0,0.0,-4.2208,-4.2398,-4.2556,-4.2529,-4.0049,-3.7847,0.0,0.0,0.0,0.0,0.0,0.0,0.0,0.0,0.0,0.0,0.0,0.0,0.0,0.0,0.0,0.0,0.0,0.0,0.0,0.0,0.0,0.0,0.0,0.0,0.0,0.0,0.0,0.0,0.0,0.0,0.0,0.0,0.0,0.0,0.0,0.0,0.0,0.0,0.0,0.0,0.0,0.0,0.0,0.0,0.0,0.0,0.0,0.0,0.0,0.0,0.0,0.0,0.0,0.0,0.0,0.0,0.0,0.0,0.0,0.0,0.0,0.0,0.0,0.0,0.0,0.0,0.0,0.0,0.0,0.0,0.0,0.0,0.0,0.0,0.0,0.0,0.0,0.0,0.0,0.0,0.0,0.0,0.0,0.0,0.0,0.0,0.0,0.0,0.0,0.0,0.0,0.0,0.0,0.0,0.0,0.0,0.0,0.0,0.0,0.0,0.0,0.0,0.0,0.0,0.0,0.0,0.0,0.0,0.0,-4.4543,-4.4674,-4.4757,-4.4793,-4.1839,-3.9158,-3.6816,0.0,0.0,0.0,0.0,0.0,0.0,0.0,0.0,0.0,0.0,0.0,0.0,0.0,0.0,0.0,0.0,0.0,0.0,0.0,0.0,0.0,0.0,0.0,0.0,0.0,0.0,0.0,0.0,0.0,0.0,0.0,0.0,0.0,0.0,0.0,0.0,0.0,0.0,0.0,0.0,0.0,0.0,0.0,0.0,0.0,0.0,0.0,0.0,0.0,0.0,0.0,0.0,0.0,0.0,0.0,0.0,0.0,0.0,0.0,0.0,0.0,0.0,0.0,0.0,0.0,0.0,0.0,0.0,0.0,0.0,0.0,0.0,0.0,0.0,0.0,0.0,0.0,0.0,0.0,0.0,0.0,0.0,0.0,0.0,0.0,0.0,0.0,0.0,0.0,0.0,0.0,0.0,0.0,0.0,0.0,0.0,0.0,0.0,0.0,0.0,0.0,0.0,0.0,0.0,0.0,0.0,0.0,0.0,-4.8666,-4.9328,-4.8941,-4.7424,-4.4763,-4.1149,0.0,0.0,0.0,0.0,0.0,0.0,0.0,0.0,0.0,0.0,0.0,0.0,0.0,0.0,0.0,0.0,0.0,0.0,0.0,0.0,0.0,0.0,0.0,0.0,0.0,0.0,0.0,0.0,0.0,0.0,0.0,0.0,0.0,0.0,0.0,0.0,0.0,0.0,0.0,0.0,0.0,0.0,0.0,0.0,0.0,0.0,0.0,0.0,0.0,0.0,0.0,0.0,0.0,0.0,0.0,0.0,0.0,0.0,0.0,0.0,0.0,0.0,0.0,0.0,0.0,0.0,0.0,0.0,0.0,0.0,0.0,0.0,0.0,0.0,0.0,0.0,0.0,0.0,0.0,0.0,0.0,0.0,0.0,0.0,0.0,0.0,0.0,0.0,0.0,0.0,0.0,0.0,0.0,0.0,0.0,0.0,0.0,0.0,0.0,0.0,0.0,0.0,0.0,0.0,0.0,0.0,0.0,0.0,0.0,-5.1254,-5.3929,-5.3962,-5.1047,-4.7043,-4.3596,0.0,0.0,0.0,0.0,0.0,0.0,0.0,0.0,0.0,0.0,0.0,0.0,0.0,0.0,0.0,0.0,0.0,0.0,0.0,0.0,0.0,0.0,0.0,0.0,0.0,0.0,0.0,0.0,0.0,0.0,0.0,0.0,0.0,0.0,0.0,0.0,0.0,0.0,0.0,0.0,0.0,0.0,0.0,0.0,0.0,0.0,0.0,0.0,0.0,0.0,0.0,0.0,0.0,0.0,0.0,0.0,0.0,0.0,0.0,0.0,0.0,0.0,0.0,0.0,0.0,0.0,0.0,0.0,0.0,0.0,0.0,0.0,0.0,0.0,0.0,0.0,0.0,0.0,0.0,0.0,0.0,0.0,0.0,0.0,0.0,0.0,0.0,0.0,0.0,0.0,0.0,0.0,0.0,0.0,0.0,0.0,0.0,0.0,0.0,0.0,0.0,0.0,0.0,0.0,0.0,0.0,0.0,0.0,-4.9573,-5.2225,-5.6117,-5.6977,-5.4515,-5.025,-4.622,0.0,0.0,0.0,0.0,0.0,0.0,0.0,0.0,0.0,0.0,0.0,0.0,0.0,0.0,0.0,0.0,0.0,0.0,0.0,0.0,0.0,0.0,0.0,0.0,0.0,0.0,0.0,0.0,0.0,0.0,0.0,0.0,0.0,0.0,0.0,0.0,0.0,0.0,0.0,0.0,0.0,0.0,0.0,0.0,0.0,0.0,0.0,0.0,0.0,0.0,0.0,0.0,0.0,0.0,0.0,0.0,0.0,0.0,0.0,0.0,0.0,0.0,0.0,0.0,0.0,0.0,0.0,0.0,0.0,0.0,0.0,0.0,0.0,0.0,0.0,0.0,0.0,0.0,0.0,0.0,0.0,0.0,0.0,0.0,0.0,0.0,0.0,0.0,0.0,0.0,0.0,0.0,0.0,0.0,0.0,0.0,0.0,0.0,0.0,0.0,0.0,0.0,0.0,0.0,0.0,0.0,0.0,0.0,-5.0688,-5.2507,-5.6659,-5.8396,-5.7267,-5.3404,-4.8619,0.0,0.0,0.0,0.0,0.0,0.0,0.0,0.0,0.0,0.0,0.0,0.0,0.0,0.0,0.0,0.0,0.0,0.0,0.0,0.0,0.0,0.0,0.0,0.0,0.0,0.0,0.0,0.0,0.0,0.0,0.0,0.0,0.0,0.0,0.0,0.0,0.0,0.0,0.0,0.0,0.0,0.0,0.0,0.0,0.0,0.0,0.0,0.0,0.0,0.0,0.0,0.0,0.0,0.0,0.0,0.0,0.0,0.0,0.0,0.0,0.0,0.0,0.0,0.0,0.0,0.0,0.0,0.0,0.0,0.0,0.0,0.0,0.0,0.0,0.0,0.0,0.0,0.0,0.0,0.0,0.0,0.0,0.0,0.0,0.0,0.0,0.0,0.0,0.0,0.0,0.0,0.0,0.0,0.0,0.0,0.0,0.0,0.0,0.0,0.0,0.0,0.0,0.0,0.0,0.0,0.0,0.0,0.0,-5.13,-5.4351,-5.685,-5.7926,-5.7452,-5.2935,-4.8901,0.0,0.0,0.0,0.0,0.0,0.0,0.0,0.0,0.0,0.0,0.0,0.0,0.0,0.0,0.0,0.0,0.0,0.0,0.0,0.0,0.0,0.0,0.0,0.0,0.0,0.0,0.0,0.0,0.0,0.0,0.0,0.0,0.0,0.0,0.0,0.0,0.0,0.0,0.0,0.0,0.0,0.0,0.0,0.0,0.0,0.0,0.0,0.0,-4.2589,0.0,0.0,0.0,0.0,0.0,0.0,0.0,0.0,0.0,0.0,0.0,0.0,0.0,0.0,0.0,0.0,0.0,0.0,0.0,0.0,0.0,0.0,0.0,0.0,0.0,0.0,0.0,0.0,0.0,0.0,0.0,0.0,0.0,0.0,0.0,0.0,0.0,0.0,0.0,0.0,0.0,0.0,0.0,0.0,0.0,0.0,0.0,0.0,0.0,0.0,0.0,0.0,0.0,0.0,0.0,0.0,0.0,0.0,0.0,-5.1686,-5.4324,-5.6405,-5.7357,-5.7035,-5.3766,-5.0176,0.0,0.0,0.0,0.0,0.0,0.0,0.0,0.0,0.0,0.0,0.0,0.0,0.0,0.0,0.0,0.0,0.0,0.0,0.0,0.0,0.0,0.0,0.0,0.0,0.0,0.0,0.0,0.0,0.0,0.0,0.0,0.0,0.0,0.0,0.0,0.0,0.0,0.0,0.0,0.0,0.0,0.0,0.0,0.0,0.0,0.0,0.0,0.0,0.0,0.0,0.0,0.0,0.0,0.0,0.0,0.0,0.0,0.0,0.0,0.0,0.0,0.0,0.0,0.0,0.0,0.0,0.0,0.0,0.0,0.0,0.0,0.0,0.0,0.0,0.0,0.0,0.0,0.0,0.0,0.0,0.0,0.0,0.0,0.0,0.0,0.0,0.0,0.0,0.0,0.0,0.0,0.0,0.0,0.0,0.0,0.0,0.0,0.0,0.0,0.0,0.0,0.0,0.0,0.0,0.0,0.0,0.0,-4.8854,-5.1668,-5.3864,-5.5853,-5.6776,-5.6592,-5.4668,-5.1434,-4.693,0.0,0.0,0.0,0.0,0.0,0.0,0.0,0.0,0.0,0.0,0.0,0.0,0.0,0.0,0.0,0.0,0.0,0.0,0.0,0.0,0.0,0.0,0.0,0.0,0.0,0.0,0.0,0.0,0.0,0.0,0.0,0.0,0.0,0.0,0.0,0.0,0.0,0.0,-3.8063,-4.0697,0.0,0.0,0.0,0.0,0.0,0.0,0.0,0.0,-4.3039,0.0,0.0,0.0,0.0,0.0,0.0,0.0,0.0,0.0,0.0,0.0,0.0,0.0,0.0,0.0,0.0,0.0,0.0,0.0,0.0,0.0,0.0,0.0,0.0,0.0,0.0,0.0,0.0,0.0,0.0,0.0,0.0,0.0,0.0,0.0,0.0,0.0,0.0,0.0,0.0,0.0,0.0,0.0,0.0,0.0,0.0,0.0,0.0,0.0,0.0,0.0,0.0,0.0,0.0,0.0,0.0,-4.7278,-4.8218,-5.0683,-5.4759,-5.5763,-5.6265,-5.6225,-5.3959,-5.0908,-4.7116,0.0,0.0,0.0,0.0,0.0,0.0,0.0,0.0,0.0,0.0,0.0,0.0,0.0,0.0,0.0,0.0,0.0,0.0,0.0,0.0,0.0,0.0,0.0,0.0,0.0,0.0,0.0,0.0,0.0,0.0,0.0,0.0,0.0,0.0,0.0,0.0,0.0,0.0,0.0,-4.3028,-4.3918,0.0,0.0,0.0,0.0,0.0,0.0,0.0,0.0,-4.3749,0.0,0.0,0.0,0.0,0.0,0.0,0.0,0.0,0.0,0.0,0.0,0.0,0.0,0.0,0.0,0.0,0.0,0.0,0.0,0.0,0.0,0.0,0.0,0.0,0.0,0.0,0.0,0.0,0.0,0.0,0.0,0.0,0.0,0.0,0.0,0.0,0.0,0.0,0.0,0.0,0.0,0.0,0.0,0.0,0.0,0.0,0.0,0.0,0.0,0.0,0.0,0.0,0.0,0.0,0.0,-4.6989,-4.8813,-5.1252,-5.4355,-5.4762,-5.5255,-5.5913,-5.3613,-5.0791,0.0,0.0,0.0,0.0,0.0,0.0,0.0,0.0,0.0,0.0,0.0,0.0,0.0,0.0,0.0,0.0,0.0,0.0,0.0,0.0,0.0,0.0,0.0,0.0,0.0,0.0,0.0,0.0,0.0,0.0,0.0,0.0,0.0,0.0,0.0,0.0,0.0,0.0,0.0,0.0,-4.36,-4.4372,-4.6464,0.0,0.0,0.0,0.0,0.0,0.0,-4.3816,-4.3728,0.0,0.0,0.0,0.0,0.0,0.0,0.0,0.0,0.0,0.0,0.0,0.0,0.0,0.0,0.0,0.0,0.0,0.0,0.0,0.0,0.0,0.0,0.0,0.0,0.0,0.0,0.0,0.0,0.0,0.0,0.0,0.0,0.0,0.0,0.0,0.0,0.0,0.0,0.0,0.0,0.0,0.0,0.0,0.0,0.0,0.0,0.0,0.0,0.0,0.0,0.0,0.0,0.0,0.0,0.0,-4.6018,-4.8968,-5.153,-5.3514,-5.357,-5.4222,-5.5536,-5.2779,-5.0096,0.0,0.0,0.0,0.0,0.0,0.0,0.0,0.0,0.0,0.0,0.0,0.0,0.0,0.0,0.0,0.0,0.0,0.0,0.0,0.0,0.0,0.0,0.0,0.0,0.0,0.0,0.0,0.0,0.0,0.0,0.0,0.0,0.0,0.0,0.0,0.0,0.0,0.0,0.0,0.0,0.0,-4.4927,-4.7184,-4.5608,0.0,0.0,0.0,0.0,-4.3585,-4.3782,0.0,0.0,0.0,0.0,0.0,0.0,0.0,0.0,0.0,0.0,0.0,0.0,0.0,0.0,0.0,0.0,0.0,0.0,0.0,0.0,0.0,0.0,0.0,0.0,0.0,0.0,0.0,0.0,0.0,0.0,0.0,0.0,0.0,0.0,0.0,0.0,0.0,0.0,0.0,0.0,0.0,0.0,0.0,0.0,0.0,0.0,0.0,0.0,0.0,0.0,0.0,0.0,0.0,0.0,0.0,0.0,-4.4281,-4.7028,-4.984,-5.2569,-5.2739,-5.3496,-5.4976,-5.0399,-4.7687,0.0,0.0,0.0,0.0,0.0,0.0,0.0,0.0,0.0,0.0,0.0,0.0,0.0,0.0,0.0,0.0,0.0,0.0,0.0,0.0,0.0,0.0,0.0,0.0,0.0,0.0,0.0,0.0,0.0,0.0,0.0,0.0,0.0,0.0,0.0,0.0,0.0,0.0,0.0,0.0,0.0,-4.574,-4.6536,-4.5199,-4.4138,0.0,0.0,-4.4033,-4.4256,-4.4873,0.0,0.0,0.0,0.0,0.0,0.0,0.0,0.0,0.0,0.0,0.0,0.0,0.0,0.0,0.0,0.0,0.0,0.0,0.0,0.0,0.0,0.0,0.0,0.0,0.0,0.0,0.0,0.0,0.0,0.0,0.0,0.0,0.0,0.0,0.0,0.0,0.0,0.0,0.0,0.0,0.0,0.0,0.0,0.0,0.0,0.0,0.0,0.0,0.0,0.0,0.0,0.0,0.0,0.0,0.0,-4.254,-4.406,-4.7271,-4.965,-5.105,-5.1127,-5.1666,-5.2803,-4.8728,-4.65,0.0,0.0,0.0,0.0,0.0,0.0,0.0,0.0,0.0,0.0,0.0,0.0,0.0,0.0,0.0,0.0,0.0,0.0,0.0,0.0,0.0,0.0,0.0,0.0,0.0,0.0,0.0,0.0,0.0,0.0,0.0,0.0,0.0,0.0,0.0,0.0,0.0,0.0,0.0,0.0,0.0,0.0,-4.6245,-4.5337,0.0,0.0,0.0,-4.3451,-4.2746,0.0,0.0,0.0,0.0,0.0,0.0,0.0,0.0,0.0,0.0,0.0,0.0,0.0,0.0,0.0,0.0,0.0,0.0,0.0,0.0,0.0,0.0,0.0,0.0,0.0,0.0,0.0,0.0,0.0,0.0,0.0,0.0,0.0,0.0,0.0,0.0,0.0,0.0,0.0,0.0,0.0,0.0,0.0,0.0,0.0,0.0,0.0,0.0,0.0,0.0,0.0,0.0,0.0,0.0,0.0,0.0,0.0,-4.3738,-4.736,-4.9478,-4.9964,-4.9718,-5.0069,-5.102,-4.8094,0.0,0.0,0.0,0.0,0.0,0.0,0.0,0.0,0.0,0.0,0.0,0.0,0.0,0.0,0.0,0.0,0.0,0.0,0.0,0.0,0.0,0.0,0.0,0.0,0.0,0.0,0.0,-3.4011,0.0,0.0,0.0,0.0,0.0,0.0,0.0,0.0,0.0,0.0,0.0,0.0,0.0,0.0,-4.4864,-4.5693,-4.5162,-4.5235,0.0,0.0,-4.2749,-4.2284,-4.3039,-4.2912,0.0,0.0,0.0,0.0,0.0,0.0,0.0,0.0,0.0,0.0,0.0,0.0,0.0,0.0,0.0,0.0,0.0,0.0,0.0,0.0,0.0,0.0,0.0,0.0,0.0,0.0,0.0,0.0,0.0,0.0,0.0,0.0,0.0,0.0,0.0,0.0,0.0,0.0,0.0,0.0,0.0,0.0,0.0,0.0,0.0,0.0,0.0,0.0,0.0,0.0,0.0,0.0,0.0,0.0,-4.2051,-4.2883,-4.6429,-4.8845,-4.9828,-4.8982,-4.9271,-5.0804,-4.9064,-4.6945,0.0,0.0,0.0,0.0,0.0,0.0,0.0,0.0,0.0,0.0,0.0,0.0,0.0,0.0,0.0,0.0,0.0,0.0,0.0,0.0,0.0,0.0,0.0,0.0,0.0,0.0,0.0,0.0,0.0,0.0,0.0,0.0,0.0,0.0,0.0,0.0,0.0,0.0,0.0,0.0,0.0,-4.4681,-4.4472,-4.4224,-4.519,0.0,-4.4685,-4.2309,-4.4329,-4.3794,-4.2473,-4.0424,0.0,0.0,0.0,0.0,0.0,0.0,0.0,0.0,0.0,0.0,0.0,0.0,0.0,0.0,0.0,0.0,0.0,0.0,0.0,0.0,0.0,0.0,0.0,0.0,0.0,0.0,0.0,0.0,0.0,0.0,0.0,0.0,0.0,0.0,0.0,0.0,0.0,0.0,0.0,0.0,0.0,0.0,0.0,0.0,0.0,0.0,0.0,0.0,0.0,0.0,0.0,0.0,0.0,-4.1908,-4.2679,-4.6791,-4.8972,-4.9032,-4.9084,-4.9161,-4.9172,-4.825,-4.6451,0.0,0.0,0.0,0.0,0.0,0.0,0.0,0.0,0.0,0.0,0.0,0.0,0.0,0.0,0.0,0.0,0.0,0.0,0.0,0.0,0.0,0.0,0.0,0.0,0.0,0.0,0.0,0.0,-3.8353,-3.8123,-3.7226,0.0,0.0,0.0,0.0,0.0,0.0,0.0,0.0,0.0,0.0,-4.3667,-4.4578,-4.5048,0.0,0.0,-4.5541,-4.35,-4.3587,-4.2626,-4.1118,-3.8915,-3.8015,0.0,0.0,0.0,0.0,0.0,0.0,0.0,0.0,0.0,0.0,0.0,0.0,0.0,0.0,0.0,0.0,0.0,0.0,0.0,0.0,0.0,0.0,0.0,0.0,0.0,0.0,0.0,0.0,0.0,0.0,0.0,0.0,0.0,0.0,0.0,0.0,0.0,0.0,0.0,0.0,0.0,0.0,0.0,0.0,0.0,0.0,0.0,0.0,0.0,0.0,0.0,0.0,-4.18,-4.2496,-4.6993,-4.9134,-4.8829,-4.9246,-4.9092,-4.8308,-4.7942,-4.6519,0.0,0.0,0.0,0.0,0.0,0.0,0.0,0.0,0.0,0.0,0.0,0.0,0.0,0.0,0.0,0.0,0.0,0.0,0.0,0.0,0.0,0.0,0.0,0.0,0.0,0.0,0.0,0.0,-3.8847,-3.8094,-3.6339,0.0,0.0,0.0,0.0,0.0,0.0,0.0,0.0,0.0,0.0,-4.3059,-4.3882,-4.4562,-4.5293,-4.6122,-4.4315,-4.2571,-4.1849,-4.1011,-3.9847,-3.8094,0.0,0.0,0.0,0.0,0.0,0.0,0.0,0.0,0.0,0.0,0.0,0.0,0.0,0.0,0.0,0.0,0.0,0.0,0.0,0.0,0.0,0.0,0.0,0.0,0.0,0.0,0.0,-3.7179,0.0,0.0,-3.5607,0.0,0.0,0.0,0.0,0.0,0.0,0.0,0.0,0.0,0.0,0.0,0.0,0.0,0.0,0.0,0.0,0.0,0.0,0.0,0.0,0.0,0.0,-4.1664,-4.2234,-4.6768,-4.925,-4.9446,-4.9298,-4.905,-4.8677,-4.8483,-4.7462,-4.5543,0.0,0.0,0.0,0.0,0.0,0.0,0.0,0.0,0.0,0.0,0.0,0.0,0.0,0.0,0.0,0.0,0.0,0.0,0.0,0.0,0.0,0.0,0.0,0.0,0.0,0.0,-3.5546,-3.5469,-3.5462,0.0,0.0,0.0,0.0,0.0,0.0,0.0,0.0,0.0,-3.6858,-4.0694,-4.307,-4.1847,-4.2127,-4.2554,-4.2783,-4.0471,-3.885,-3.9344,-3.9117,-3.878,0.0,0.0,0.0,0.0,0.0,0.0,0.0,0.0,0.0,0.0,0.0,0.0,0.0,0.0,0.0,0.0,0.0,0.0,0.0,0.0,0.0,0.0,0.0,0.0,0.0,0.0,0.0,-3.8063,-3.6523,0.0,0.0,0.0,0.0,0.0,0.0,0.0,0.0,0.0,0.0,0.0,-3.8286,-3.8874,0.0,0.0,0.0,0.0,0.0,0.0,0.0,0.0,0.0,0.0,0.0,0.0,-4.1221,-4.1393,-4.6842,-4.9578,-4.921,-4.9676,-4.9492,-4.8612,-4.9145,-4.8267,-4.5739,0.0,0.0,0.0,0.0,0.0,0.0,0.0,0.0,0.0,0.0,0.0,0.0,0.0,0.0,0.0,0.0,0.0,0.0,0.0,0.0,0.0,0.0,0.0,0.0,0.0,-3.7243,0.0,0.0,0.0,0.0,0.0,0.0,0.0,0.0,0.0,0.0,-3.6021,-3.7049,-3.8059,-3.8708,-3.9251,-3.9738,-4.0029,-4.0859,0.0,0.0,0.0,0.0,0.0,0.0,0.0,0.0,0.0,0.0,0.0,0.0,0.0,0.0,-3.7294,-3.5972,-3.6719,-3.7377,-3.6773,0.0,0.0,0.0,0.0,0.0,0.0,0.0,0.0,0.0,0.0,0.0,0.0,0.0,0.0,-3.8133,-3.6345,-3.6965,0.0,0.0,0.0,0.0,0.0,0.0,0.0,0.0,-3.9162,-3.9899,-4.014,-4.067,-4.0538,-3.9819,-3.9172,-3.7706,0.0,0.0,0.0,0.0,0.0,0.0,0.0,0.0,-4.0812,-4.0634,-4.6596,-4.9645,-4.9303,-4.9892,-4.9746,-4.8824,-4.9018,-4.838,-4.675,-4.3795,-4.1194,0.0,0.0,0.0,0.0,0.0,0.0,0.0,0.0,0.0,0.0,0.0,0.0,0.0,0.0,0.0,0.0,0.0,0.0,0.0,0.0,0.0,0.0,0.0,-3.6991,0.0,0.0,0.0,0.0,0.0,0.0,0.0,0.0,0.0,-3.5006,-3.6427,-3.7587,-3.8356,-3.8418,-3.8173,-3.7646,0.0,0.0,0.0,0.0,0.0,0.0,0.0,-3.5366,-3.519,-3.4575,-3.4363,-3.5029,-3.6308,-3.7209,-3.7079,0.0,0.0,-3.6713,-3.7452,-3.8192,-3.7668,-3.7326,-3.688,-3.6165,-3.6039,-3.5879,0.0,0.0,0.0,0.0,-3.8498,0.0,0.0,0.0,-3.923,-3.8404,0.0,-3.7699,0.0,0.0,0.0,0.0,-3.5961,-3.7794,0.0,0.0,-4.3757,-4.4688,-4.2518,-4.2494,-4.2347,-4.183,-3.9701,-3.8716,-3.8859,-3.9775,0.0,0.0,0.0,0.0,0.0,0.0,-4.0416,-4.0259,-4.6178,-4.9457,-4.9768,-4.9976,-4.9839,-4.9387,-4.8233,-4.7955,-4.856,-4.6654,-4.537,-4.5008,-3.9304,0.0,0.0,0.0,0.0,0.0,0.0,0.0,0.0,0.0,0.0,0.0,0.0,0.0,0.0,0.0,0.0,0.0,0.0,0.0,0.0,-3.5398,0.0,0.0,0.0,0.0,0.0,0.0,0.0,0.0,0.0,-3.3143,-3.4484,-3.6565,-3.7938,-3.7593,0.0,0.0,0.0,0.0,-3.7387,-3.3685,-3.3264,-3.3246,-3.2681,-3.416,-3.5753,-3.6796,0.0,0.0,-3.6568,-3.6313,-3.6104,-3.5366,-3.7183,-3.8689,-3.8303,-3.8396,-3.8424,-3.7831,-3.7659,-3.7598,-3.7169,-3.6786,-3.6823,-4.0061,0.0,0.0,0.0,0.0,-3.8563,-3.8766,-3.9235,-3.9865,-3.9477,-3.8362,-3.8972,0.0,0.0,0.0,0.0,0.0,0.0,-3.8544,-4.0831,-4.1924,-4.2871,-4.3771,-4.3659,-4.3513,-4.3216,-4.2468,-4.2007,-4.1805,-4.2318,-4.0087,-3.5292,0.0,0.0,0.0,0.0,-4.0029,-4.2455,-4.6929,-4.9435,-4.9736,-5.0753,-5.1149,-5.0873,-4.8756,-4.8582,-5.0656,-4.9316,-4.8095,-4.7068,-4.3903,0.0,0.0,0.0,0.0,0.0,0.0,0.0,0.0,0.0,0.0,0.0,0.0,0.0,0.0,0.0,0.0,0.0,0.0,0.0,-3.4105,-3.5331,-3.5183,0.0,0.0,0.0,0.0,0.0,0.0,0.0,0.0,0.0,-3.2891,-3.4108,-3.4996,0.0,0.0,-3.2942,-3.1776,-3.2776,-3.3843,-3.433,-3.3998,0.0,-3.6273,-3.5147,-3.4343,-3.5195,-3.6216,-3.6685,-3.589,-3.681,-3.7427,-3.6829,-3.7428,-3.7854,-3.7324,-3.8247,-3.8647,-3.7777,-3.6706,-3.606,-3.611,-3.5748,-3.5566,-3.9864,-3.903,-3.8279,-3.8302,-3.8833,-3.8801,-3.9212,-3.9984,-4.0712,-4.0441,-3.9517,-4.0059,-3.9282,-3.7496,-3.6652,0.0,0.0,0.0,-3.9531,-4.2399,-4.2099,-4.2707,-4.3956,-4.3802,-4.3625,-4.3535,-4.3519,-4.3346,-4.3016,-4.2028,-3.9971,-3.6851,0.0,-3.4358,-3.5532,-3.8293,-4.0748,-4.297,-4.6715,-4.9,-4.9693,-5.0435,-5.086,-5.0812,-4.8341,-4.7916,-4.9969,-4.9488,-4.8951,-4.836,-4.5839,-4.2559,0.0,0.0,0.0,0.0,0.0,0.0,0.0,0.0,0.0,0.0,0.0,-3.0624,-2.9959,0.0,0.0,0.0,-3.3621,-3.3503,-3.3549,-3.3918,0.0,0.0,0.0,0.0,0.0,0.0,0.0,-2.9233,-3.1017,-3.2154,-3.1766,-3.2255,-3.3156,-3.4455,-3.3471,-3.2243,-3.1133,0.0,-3.3112,-3.3719,-3.3256,-3.3509,-3.5286,-3.4319,-3.363,-3.46,-3.5254,-3.5535,-3.5291,-3.6072,-3.6592,-3.6354,-3.6333,-3.6187,-3.5496,-3.6334,-3.702,-3.6612,-3.5901,-3.5388,-3.5396,-3.5049,-3.4918,-3.961,-3.9526,-3.8419,-3.8312,-3.8946,-3.9143,-3.972,-4.0621,-4.1561,-4.1298,-4.029,-4.091,-3.9842,-3.7428,-3.6326,0.0,-3.9755,-3.983,-4.1241,-4.3731,-4.3555,-4.3489,-4.3472,-4.3157,-4.3005,-4.3021,-4.3141,-4.3108,-4.2776,-4.0189,-3.8922,-3.9149,-4.0121,-3.9009,-3.6331,-3.9673,-4.1778,-4.231,-4.5599,-4.8122,-4.9793,-4.9536,-4.956,-4.9892,-4.7417,-4.6567,-4.7648,-4.8037,-4.8489,-4.8926,-4.5989,-4.3938,-4.3072,0.0,0.0,0.0,0.0,0.0,0.0,0.0,0.0,0.0,0.0,0.0,0.0,0.0,0.0,-3.3209,-3.408,0.0,-3.3132,-3.2121,0.0,0.0,0.0,-2.9531,-3.0483,-3.0289,-3.0265,-3.0734,0.0,0.0,-3.1011,-3.104,-3.2132,-3.5048,-3.5631,-3.4881,-3.2361,-3.3482,-3.4106,-3.2287,-3.1894,-3.1821,-3.2465,-3.2865,-3.3659,-3.4749,-3.48,-3.4699,-3.4668,-3.4563,-3.446,-3.4506,-3.44,-3.4215,-3.3541,-3.3666,-3.3802,-3.459,-3.4994,-3.5127,-3.4748,-3.4719,-3.4712,-3.9002,-3.8979,-3.854,-3.8648,-3.915,-3.9494,-3.9847,-4.0228,-4.1246,-4.1518,-4.1246,-4.1252,-4.0495,-3.91,-3.8838,-3.8875,-3.9235,-4.0071,-4.0886,-4.165,-4.2313,-4.2648,-4.2649,-4.2301,-4.211,-4.2126,-4.2206,-4.1949,-4.1356,-4.0884,-3.9389,-3.7107,-3.7563,-3.7429,-3.6638,-3.7111,-3.8983,-4.2193,-4.3415,-4.6302,-5.0795,-4.9846,-4.9494,-5.0097,-4.7748,-4.6818,-4.7602,-4.7518,-4.7865,-4.8694,-4.7191,-4.4984,-4.204,-3.6423,0.0,0.0,0.0,0.0,0.0,0.0,0.0,0.0,0.0,-2.815,-2.673,0.0,-2.8461,0.0,-3.3361,-3.5691,-3.6009,-3.4914,0.0,0.0,-3.0734,-3.0032,-2.9841,-3.0811,-3.0833,-2.9057,-3.061,-3.1341,-3.0033,-3.0422,-3.133,-3.2756,-3.2209,-3.1344,-3.0582,-3.1978,-3.2912,-3.2267,-3.3066,-3.4077,-3.3883,-3.4274,-3.4412,-3.4844,-3.4565,-3.4328,-3.4328,-3.3999,-3.3728,-3.3713,-3.3516,-3.317,-3.2676,-3.2408,-3.2184,-3.2112,-3.2827,-3.3624,-3.3697,-3.3758,-3.4016,-3.8774,-3.8911,-3.8812,-3.9083,-3.9606,-3.9611,-3.9803,-4.014,-4.0699,-4.1122,-4.1325,-4.0753,-4.0057,-3.9324,-3.894,-3.8969,-3.9331,-3.9914,-4.0485,-4.1097,-4.1453,-4.1671,-4.1687,-4.1276,-4.116,-4.1358,-4.1472,-4.1332,-4.0986,-4.1166,-4.0292,-3.8446,-3.9037,-3.8492,-3.6818,-3.5607,-3.648,-3.9428,-4.1764,-4.535,-5.012,-4.9345,-4.8048,-4.6484,-4.4949,-4.3238,-4.1475,-4.1782,-4.2297,-4.2897,-4.2216,-4.1053,-3.935,-3.435,-3.0537,0.0,0.0,0.0,0.0,0.0,0.0,0.0,0.0,0.0,0.0,0.0,-2.9038,-2.9578,-3.3096,-3.4951,-3.4036,-3.3401,-3.2724,-3.182,-3.1251,-3.0947,-3.1094,-3.1591,-3.15,-3.0378,-3.1311,-3.169,-3.0841,-3.1003,-3.1195,-3.1152,-3.075,-3.0559,-3.0801,-3.1713,-3.2171,-3.1716,-3.242,-3.2943,-3.2569,-3.2486,-3.2486,-3.2503,-3.2353,-3.2261,-3.2247,-3.2125,-3.1984,-3.1953,-3.1769,-3.1544,-3.1346,-3.1106,-3.0809,-3.0789,-3.1174,-3.1888,-3.2567,-3.2671,-3.285,-3.8652,-3.8991,-3.9039,-3.9415,-3.9927,-3.9505,-3.9628,-4.0197,-4.0176,-4.0382,-4.0691,-3.9768,-3.9091,-3.8557,-3.7787,-3.8139,-3.9311,-3.9251,-3.9832,-4.0925,-4.0681,-4.0585,-4.0612,-4.0285,-4.0266,-4.0578,-4.0833,-4.0904,-4.0826,-4.0979,-4.0747,-4.0211,-4.0997,-3.9573,-3.6055,-3.4347,-3.4323,-3.5893,-4.0286,-4.4306,-4.7851,-4.7026,-4.4714,-4.1087,-4.0383,-3.8095,-3.3924,-3.4619,-3.5219,-3.5364,-3.5109,-3.5457,-3.6495,-3.1572,-2.8942,0.0,-2.5702,0.0,0.0,0.0,0.0,0.0,0.0,0.0,0.0,-3.1206,-3.0948,-3.0998,-3.3063,-3.3382,-3.1006,-3.0945,-3.1371,-3.2186,-3.1825,-3.1843,-3.257,-3.2064,-3.1809,-3.2324,-3.2076,-3.1873,-3.1601,-3.1654,-3.1137,-2.9994,-2.9955,-3.0242,-3.0903,-3.1422,-3.159,-3.098,-3.0723,-3.0565,-2.9877,-2.9526,-2.9488,-2.9432,-2.9543,-2.9496,-2.9583,-2.9669,-2.972,-2.972,-2.9598,-2.9537,-2.9734,-2.9641,-2.9588,-2.9744,-2.9954,-3.0524,-3.1404,-3.157,-3.1325,-3.8139,-3.8385,-3.8708,-3.9031,-3.929,-3.9005,-3.9337,-4.0017,-3.9985,-3.9585,-3.8992,-3.8779,-3.804,-3.6956,-3.677,-3.6909,-3.7281,-3.7527,-3.8191,-3.9175,-3.9127,-3.9364,-3.9799,-3.9651,-3.9523,-3.9466,-3.9788,-3.9762,-3.9402,-3.9542,-3.8,-3.5024,-3.569,-3.4516,-3.1615,0.0,0.0,0.0,-3.8512,-4.0792,-4.1802,-3.8758,-3.6752,-3.5976,-3.5612,0.0,-3.3616,-3.3393,-3.3286,-3.3201,-3.3038,0.0,0.0,0.0,0.0,0.0,0.0,0.0,0.0,0.0,0.0,0.0,-2.8958,-2.8882,-3.1174,-3.1067,-3.1473,-3.3022,-3.312,-3.3645,-3.4993,-3.3991,-3.3013,-3.2463,-3.2098,-3.163,-3.0752,-3.0714,-3.0648,-3.0099,-3.0518,-3.0502,-2.964,-2.9821,-2.9674,-2.863,-2.812,-2.7734,-2.7525,-2.944,-3.0592,-3.0276,-2.9644,-2.9374,-2.9007,-2.8581,-2.8282,-2.8427,-2.8148,-2.7939,-2.796,-2.7806,-2.7728,-2.7831,-2.7714,-2.7737,-2.805,-2.8177,-2.8333,-2.8339,-2.9052,-2.9929,-3.0585,-3.0511,-3.0402,-3.8178,-3.8642,-3.8866,-3.9257,0.0,-3.9195,-3.9272,-3.9736,-3.9469,-3.9073,-3.8568,-3.7997,-3.7373,-3.6731,-3.6523,-3.6738,-3.7218,-3.7494,-3.8092,-3.8884,-3.8686,-3.8763,-3.9038,-3.8782,-3.8708,-3.8811,-3.9031,-3.905,-3.8936,-3.8962,-3.8011,-3.6122,-3.66,-3.6025,-3.4503,-3.4898,-3.5436,-3.5968,-3.7713,-3.9632,-4.1549,-4.0008,-3.8069,-3.6054,-3.6113,0.0,0.0,0.0,0.0,0.0,0.0,0.0,0.0,0.0,0.0,-3.2117,-3.0127,-2.9552,-3.1073,-3.0837,-3.1269,-3.2789,-3.2124,-3.1768,-3.2099,-3.2748,-3.3644,-3.4743,-3.3634,-3.3277,-3.4395,-3.3329,-3.2213,-3.1462,-3.1213,-3.0647,-2.9775,-2.963,-2.9468,-2.8879,-2.8918,-2.8739,-2.7926,-2.8051,-2.7842,-2.7019,-2.6927,-2.6645,-2.6207,-2.7262,-2.8101,-2.7481,-2.6909,-2.6553,-2.6475,-2.6319,-2.6265,-2.6324,-2.6354,-2.6362,-2.6443,-2.6498,-2.6539,-2.66,-2.6768,-2.6996,-2.7161,-2.7517,-2.7857,-2.7902,-2.8438,-2.9071,-2.9473,-2.9371,-2.9301,-3.8449,-3.9098,-3.9193,-3.9611,-4.0215,-3.9493,-3.9256,-3.9347,-3.8896,0.0,0.0,-3.7373,-3.6834,-3.6663,-3.6334,-3.6567,-3.7188,-3.7535,-3.7997,-3.8531,-3.8281,-3.8213,-3.8277,-3.7938,-3.7901,-3.8165,-3.8179,-3.8219,-3.8237,-3.8222,-3.8215,-3.8201,-3.8414,-3.8532,-3.8478,-3.871,-3.8223,-3.7049,-3.6918,-3.8372,-4.1373,-4.1227,-3.9409,-3.5952,-3.6431,-3.496,-3.132,-3.1473,-3.1123,-2.9934,-2.9806,-2.9716,-2.9457,-2.9071,-2.9375,-3.0469,-3.0132,-3.0737,-3.2718,-3.2895,-3.3557,-3.5048,-3.4726,-3.4118,-3.3142,-3.452,-3.5355,-3.5407,-3.3752,-3.2622,-3.252,-3.1426,-3.0507,-3.0115,-2.9585,-2.908,-2.8603,-2.8261,-2.7822,-2.7477,-2.7134,-2.6777,-2.6273,-2.6151,-2.5887,-2.522,-2.5374,-2.5595,-2.4904,-2.5341,-2.5789,-2.4956,-2.439,-2.3727,-2.3679,-2.3689,-2.3729,-2.402,-2.4341,-2.4627,-2.4874,-2.5246,-2.5543,-2.5646,-2.6041,-2.634,-2.6536,-2.694,-2.7426,-2.7407,-2.7728,-2.8034,-2.813,-2.8035,-2.804,-3.8776,-3.9139,-3.9475,-3.9719,-3.9777,-3.9491,-3.9208,-3.8884,-3.8385,-3.7866,-3.7283,-3.6929,-3.6282,-3.5446,-3.5395,-3.5274,-3.5173,-3.5688,-3.6143,-3.6433,-3.6747,-3.7068,-3.7443,-3.7211,-3.7056,-3.6964,-3.6925,-3.6645,-3.6115,-3.6073,-3.5958,-3.5889,-3.6212,-3.6726,-3.7208,-3.7296,-3.7193,-3.6964,-3.5068,-3.4317,-3.4809,-3.2051,-3.0552,-3.0443,-3.0498,-3.0308,-3.0113,-2.9402,-2.8765,-2.8514,-2.8099,-2.8889,-3.1048,-3.056,-3.1455,-3.4116,-3.3921,-3.3707,-3.3851,-3.4027,-3.3885,-3.331,-3.2581,-3.276,-3.4212,-3.4427,-3.4093,-3.3181,-3.229,-3.1662,-3.1108,-2.9842,-2.9005,-2.8992,-2.7557,-2.6502,-2.6582,-2.5927,-2.5307,-2.4893,-2.4845,-2.4708,-2.4202,-2.3919,-2.3706,-2.3275,-2.3132,-2.2345,-2.2048,-2.3547,-2.4721,-2.403,-2.3177,-2.2569,-2.2155,-2.1876,-2.1865,-2.1831,-2.2312,-2.2761,-2.2929,-2.3686,-2.4267,-2.4558,-2.481,-2.5185,-2.5654,-2.595,-2.6056,-2.5999,-2.6459,-2.686,-2.668,-2.6415,-2.6552,-3.9033,-3.9218,-3.9271,-3.9452,-3.9662,-3.9015,-3.8444,-3.7915,-3.7045,-3.6842,-3.703,-3.6514,-3.5874,-3.524,-3.5284,-3.5244,-3.5117,-3.574,-3.6077,-3.6231,-3.6528,-3.6683,-3.6741,-3.6533,-3.635,-3.6151,-3.6151,-3.5974,-3.566,-3.5646,-3.5613,-3.5535,-3.585,-3.6191,-3.6584,-3.6375,-3.627,-3.6282,-3.5924,-3.5671,-3.5543,-3.4228,-3.3569,-3.3554,-3.3403,-3.3322,-3.3465,-3.2644,-3.1993,-3.1526,-3.1118,-3.1242,-3.1958,-3.173,-3.228,-3.3814,-3.3744,-3.3397,-3.3036,-3.2617,-3.2148,-3.1679,-3.0927,-3.0817,-3.1592,-3.1884,-3.1814,-3.1247,-3.056,-2.9959,-2.9629,-2.8029,-2.6982,-2.7105,-2.5628,-2.4719,-2.4727,-2.4324,-2.3764,-2.3293,-2.3243,-2.299,-2.2217,-2.2073,-2.196,-2.1663,-2.1315,-2.0878,-2.0263,-2.1134,-2.193,-2.1534,-2.103,-2.0711,-2.0591,-2.0347,-2.027,-2.0484,-2.1008,-2.1388,-2.1651,-2.2402,-2.2885,-2.3183,-2.3511,-2.3848,-2.4274,-2.4773,-2.4988,-2.5129,-2.5575,-2.5926,-2.5847,-2.5663,-2.59,-3.9177,-3.9349,-3.91,-3.9121,-3.9254,-3.8445,-3.7769,-3.7105,-3.6024,-3.5963,-3.6553,-3.5923,-3.5388,-3.499,-3.5107,-3.5157,-3.5222,-3.5807,-3.609,-3.6121,-3.6348,-3.6375,-3.6163,-3.5911,-3.5602,-3.5319,-3.5224,-3.5144,-3.5022,-3.5008,-3.5102,-3.5237,-3.5507,-3.5723,-3.587,-3.5575,-3.5386,-3.5413,-3.632,-3.6811,-3.6729,-3.6988,-3.698,-3.6762,-3.6388,-3.6184,-3.6,-3.5259,-3.4552,-3.3821,-3.3404,-3.2795,-3.2072,-3.2005,-3.203,-3.2208,-3.2229,-3.1977,-3.1424,-3.0474,-2.9935,-2.9924,-2.9285,-2.8695,-2.8428,-2.8715,-2.913,-2.9374,-2.858,-2.7958,-2.7719,-2.6269,-2.5088,-2.5015,-2.4012,-2.3297,-2.3156,-2.2884,-2.2462,-2.1848,-2.1645,-2.13,-2.0623,-2.0384,-2.0232,-1.9915,-1.9868,-1.9723,-1.9304,-1.8959,-1.8912,-1.8995,-1.8957,-1.9043,-1.9228,-1.9127,-1.9194,-1.9533,-2.0063,-2.0554,-2.0967,-2.1484,-2.191,-2.2194,-2.2532,-2.2959,-2.3111,-2.366,-2.4159,-2.4256,-2.4665,-2.5069,-2.5037,-2.5065,-2.5244,-3.9206,-3.9598,-3.9305,-3.8847,-3.8246,-3.7942,-3.7441,-3.6851,-3.6075,-3.5681,-3.5495,-3.5038,-3.4602,-3.4264,-3.4399,-3.4436,-3.4411,-3.4927,-3.5245,-3.5286,-3.5598,-3.579,-3.5683,-3.5345,-3.4779,-3.4138,-3.3924,-3.361,-3.3101,-3.3021,-3.328,-3.3872,-3.4343,-3.4592,-3.4592,-3.4564,-3.4439,-3.4243,-3.4366,-3.4601,-3.492,-3.482,-3.4971,-3.5483,-3.4757,-3.4392,-3.4479,-3.3514,-3.2748,-3.225,-3.1781,-3.1291,-3.0806,-3.0512,-3.0364,-3.0242,-3.0192,-2.9932,-2.94,-2.847,-2.7982,-2.792,-2.7315,-2.653,-2.5818,-2.5541,-2.6116,-2.7171,-2.6573,-2.5898,-2.5717,-2.453,-2.3727,-2.3623,-2.2779,-2.2196,-2.1789,-2.1213,-2.0596,-1.9918,-1.9773,-1.9421,-1.9053,-1.8748,-1.838,-1.7942,-1.7877,-1.7721,-1.7352,-1.7278,-1.7302,-1.7439,-1.7787,-1.8082,-1.8075,-1.8206,-1.8481,-1.8874,-1.9404,-1.9842,-2.0371,-2.106,-2.1778,-2.1432,-2.1862,-2.2267,-2.2808,-2.3266,-2.3119,-2.3215,-2.3464,-2.3723,-2.3815,-2.3946,-2.4271,-3.898,-3.902,-3.8756,-3.8198,-3.7467,-3.6925,-3.637,-3.5777,-3.5365,-3.4837,-3.4187,-3.4064,-3.3973,-3.3813,-3.4015,-3.4072,-3.4078,-3.4637,-3.4856,-3.479,-3.5171,-3.4967,-3.4269,-3.4215,-3.3839,-3.3181,-3.3057,-3.2947,-3.2878,-3.2832,-3.3073,-3.3501,-3.3738,-3.3852,-3.3966,-3.3979,-3.3894,-3.3696,-3.3569,-3.3484,-3.336,-3.3488,-3.3632,-3.3665,-3.3199,-3.2872,-3.2841,-3.1966,-3.1282,-3.0925,-3.034,-2.9909,-2.9715,-2.9359,-2.9198,-2.9365,-2.8679,-2.8185,-2.799,-2.7008,-2.6408,-2.6408,-2.5654,-2.4844,-2.4176,-2.3821,-2.3877,-2.4147,-2.4315,-2.4218,-2.3737,-2.2723,-2.1993,-2.1755,-2.084,-2.0177,-2.0259,-1.9809,-1.9231,-1.8576,-1.8416,-1.8215,-1.7813,-1.7408,-1.7041,-1.664,-1.6435,-1.6173,-1.5966,-1.6008,-1.6098,-1.6232,-1.6645,-1.7111,-1.741,-1.746,-1.7714,-1.8078,-1.8449,-1.8859,-1.9263,-1.9751,-2.0223,-2.0412,-2.061,-2.0972,-2.1499,-2.1867,-2.1925,-2.2111,-2.223,-2.2328,-2.2151,-2.2302,-2.259,-3.8362,-3.7993,-3.7453,-3.67,-3.5948,-3.5537,-3.4961,-3.4337,-3.4312,-3.3808,-3.3067,-3.3209,-3.3243,-3.33,-3.3668,-3.3956,-3.426,-3.459,-3.4685,-3.4674,-3.4804,-3.4299,-3.3413,-3.3442,-3.3158,-3.2491,-3.2394,-3.2516,-3.2717,-3.2928,-3.3084,-3.3352,-3.3508,-3.3563,-3.3541,-3.3571,-3.3409,-3.3124,-3.2853,-3.2494,-3.2164,-3.2183,-3.2271,-3.2264,-3.1989,-3.1681,-3.1392,-3.0722,-3.0204,-2.9795,-2.9244,-2.8866,-2.8514,-2.8308,-2.8205,-2.8195,-2.7329,-2.6694,-2.6478,-2.5543,-2.4957,-2.4748,-2.4108,-2.3384,-2.2755,-2.2428,-2.1899,-2.1196,-2.179,-2.2075,-2.205,-2.1001,-2.0273,-1.9947,-1.9079,-1.8705,-1.8876,-1.8563,-1.82,-1.7723,-1.7497,-1.7172,-1.6763,-1.6435,-1.6147,-1.5782,-1.545,-1.5151,-1.5068,-1.511,-1.5186,-1.5318,-1.5567,-1.6042,-1.6784,-1.6822,-1.6891,-1.7234,-1.7596,-1.7823,-1.8097,-1.8469,-1.8483,-1.8687,-1.8975,-1.9399,-1.9966,-2.0309,-2.0946,-2.1171,-2.121,-2.1067,-2.1046,-2.0982,-2.1013,-3.7432,-3.6558,-3.5236,-3.4382,-3.3498,-3.3705,-3.3285,-3.2721,-3.2988,-3.2788,-3.2376,-3.2463,-3.2473,-3.2611,-3.3291,-3.4114,-3.4858,-3.4657,-3.4674,-3.487,-3.4384,-3.3966,-3.37,-3.3475,-3.2857,-3.1958,-3.1891,-3.1988,-3.2106,-3.2548,-3.2968,-3.3208,-3.3643,-3.3675,-3.3244,-3.3202,-3.2948,-3.2542,-3.2081,-3.1661,-3.1294,-3.0701,-3.0701,-3.1205,-3.1306,-3.0836,-3.0091,-2.9852,-2.9486,-2.876,-2.8645,-2.8182,-2.7274,-2.7405,-2.7163,-2.6332,-2.5955,-2.5401,-2.4701,-2.4041,-2.3561,-2.3066,-2.2634,-2.2013,-2.1118,-2.0974,-2.0359,-1.9012,-1.9101,-1.9553,-2.0275,-1.9448,-1.8602,-1.8369,-1.8267,-1.8094,-1.7895,-1.7731,-1.7553,-1.7284,-1.6837,-1.6345,-1.5899,-1.5733,-1.5443,-1.5026,-1.4776,-1.4657,-1.437,-1.4405,-1.4524,-1.4566,-1.4754,-1.5043,-1.5702,-1.5871,-1.6147,-1.6476,-1.669,-1.6911,-1.7183,-1.7361,-1.7095,-1.7161,-1.7852,-1.8334,-1.8577,-1.9158,-2.0006,-2.0239,-1.9996,-1.9878,-1.9918,-2.0138,-2.0139,-3.6496,-3.5851,-3.4943,-3.4345,-3.3888,-3.3267,-3.2723,-3.2393,-3.2748,-3.2628,-3.2226,-3.2684,-3.2974,-3.312,-3.3278,-3.378,-3.4485,-3.4445,-3.4462,-3.4397,-3.3725,-3.3013,-3.2317,-3.2091,-3.1736,-3.1266,-3.1199,-3.153,-3.2064,-3.2444,-3.2662,-3.2734,-3.3062,-3.3082,-3.2935,-3.2953,-3.2775,-3.239,-3.1752,-3.1261,-3.0802,-3.0125,-2.9749,-2.9715,-2.9852,-2.9715,-2.9336,-2.9071,-2.8454,-2.7391,-2.7252,-2.6682,-2.5773,-2.5613,-2.5248,-2.4458,-2.4127,-2.3737,-2.329,-2.2409,-2.1833,-2.1593,-2.0743,-2.007,-1.9488,-1.926,-1.8795,-1.7939,-1.7496,-1.7602,-1.7644,-1.7678,-1.7606,-1.7378,-1.7204,-1.7179,-1.7199,-1.711,-1.6896,-1.6485,-1.6042,-1.5684,-1.5477,-1.5235,-1.4985,-1.4741,-1.4489,-1.4292,-1.4166,-1.4166,-1.4201,-1.4243,-1.4286,-1.442,-1.4608,-1.4869,-1.5111,-1.5459,-1.5691,-1.5764,-1.5926,-1.5973,-1.5815,-1.6224,-1.6878,-1.7499,-1.7787,-1.8249,-1.9034,-1.8843,-1.859,-1.8527,-1.8818,-1.8792,-1.8828,-3.5067,-3.4285,-3.3517,-3.3026,-3.2647,-3.1845,-3.1537,-3.1671,-3.2206,-3.2217,-3.2079,-3.2731,-3.3152,-3.3275,-3.3152,-3.3392,-3.393,-3.4103,-3.4063,-3.3823,-3.3215,-3.2413,-3.1644,-3.1411,-3.1226,-3.1057,-3.1157,-3.1589,-3.2299,-3.2547,-3.2567,-3.2574,-3.2803,-3.2864,-3.2818,-3.2815,-3.2621,-3.216,-3.1541,-3.0945,-3.0386,-2.9669,-2.9128,-2.885,-2.8664,-2.8484,-2.8215,-2.7878,-2.718,-2.6079,-2.5787,-2.5388,-2.4647,-2.4094,-2.3632,-2.3186,-2.2989,-2.2593,-2.2028,-2.1242,-2.0653,-2.0292,-1.934,-1.8507,-1.8202,-1.7922,-1.7343,-1.6705,-1.6352,-1.6045,-1.5736,-1.6076,-1.6364,-1.6247,-1.6076,-1.61,-1.6392,-1.6319,-1.5991,-1.5583,-1.53,-1.5081,-1.4852,-1.4566,-1.4356,-1.4279,-1.4075,-1.4004,-1.3955,-1.3955,-1.3997,-1.3955,-1.3828,-1.3756,-1.3758,-1.3795,-1.4137,-1.4448,-1.4728,-1.4735,-1.4639,-1.4653,-1.4817,-1.5307,-1.59,-1.6545,-1.7062,-1.7497,-1.7489,-1.7281,-1.7028,-1.6879,-1.7097,-1.7262,-1.7404,-3.3177,-3.2045,-3.0785,-3.0465,-3.0149,-2.9803,-2.9742,-3.0624,-3.1242,-3.1631,-3.1817,-3.2561,-3.2979,-3.2928,-3.2992,-3.3113,-3.3399,-3.3573,-3.3556,-3.3343,-3.2884,-3.2307,-3.1721,-3.1565,-3.1448,-3.1297,-3.1853,-3.2335,-3.2798,-3.2781,-3.2779,-3.2821,-3.291,-3.2868,-3.2744,-3.2679,-3.2392,-3.1716,-3.1148,-3.056,-2.9908,-2.9174,-2.8757,-2.8606,-2.7977,-2.7181,-2.6357,-2.6357,-2.5847,-2.4733,-2.4526,-2.4249,-2.3642,-2.2898,-2.2409,-2.2431,-2.2492,-2.1886,-2.0872,-2.0476,-1.9845,-1.9138,-1.8386,-1.7741,-1.7358,-1.6904,-1.6211,-1.5489,-1.5235,-1.501,-1.4525,-1.4501,-1.4753,-1.4883,-1.4904,-1.5021,-1.5291,-1.5255,-1.495,-1.4681,-1.4599,-1.4378,-1.3942,-1.3815,-1.373,-1.3646,-1.3652,-1.3743,-1.3695,-1.3695,-1.3688,-1.3603,-1.347,-1.3286,-1.3007,-1.2796,-1.3147,-1.3487,-1.3741,-1.3829,-1.3643,-1.3595,-1.3689,-1.41,-1.4787,-1.5452,-1.5605,-1.5937,-1.588,-1.5678,-1.5427,-1.5384,-1.5669,-1.594,-1.6105,-3.2788,-3.2259,-3.1926,-3.1749,-3.1614,-3.0912,-3.0803,-3.1168,-3.1484,-3.1583,-3.1809,-3.2621,-3.303,-3.303,-3.303,-3.2991,-3.2927,-3.297,-3.297,-3.284,-3.2276,-3.1925,-3.1661,-3.1172,-3.1092,-3.1412,-3.2018,-3.242,-3.2572,-3.262,-3.2509,-3.2308,-3.2331,-3.2202,-3.2012,-3.1694,-3.1349,-3.1077,-3.0372,-2.9723,-2.9324,-2.8606,-2.8092,-2.7694,-2.6904,-2.5906,-2.4901,-2.5558,-2.5116,-2.345,-2.332,-2.2905,-2.1998,-2.1481,-2.1072,-2.0755,-2.0634,-2.0264,-1.9512,-1.9066,-1.8715,-1.8063,-1.7387,-1.6795,-1.6433,-1.5876,-1.5246,-1.4604,-1.4253,-1.3848,-1.3594,-1.3185,-1.347,-1.4374,-1.4453,-1.4341,-1.4379,-1.4253,-1.4253,-1.4306,-1.4124,-1.3889,-1.372,-1.3603,-1.344,-1.3392,-1.344,-1.3483,-1.3483,-1.3434,-1.3434,-1.3264,-1.3069,-1.2753,-1.2377,-1.2051,-1.2095,-1.2363,-1.2576,-1.2861,-1.2692,-1.2655,-1.2738,-1.3089,-1.3774,-1.4121,-1.4258,-1.4329,-1.4307,-1.4195,-1.4031,-1.4179,-1.4483,-1.4746,-1.4948,-3.2422,-3.1857,-3.204,-3.1998,-3.1849,-3.1108,-3.1244,-3.1793,-3.1582,-3.1743,-3.234,-3.2877,-3.3124,-3.3081,-3.2982,-3.281,-3.2593,-3.2419,-3.232,-3.232,-3.2025,-3.1761,-3.1576,-3.1194,-3.1228,-3.1689,-3.2213,-3.2419,-3.2327,-3.2516,-3.2328,-3.1815,-3.1885,-3.1771,-3.1432,-3.1103,-3.0863,-3.0585,-2.9897,-2.9274,-2.8653,-2.7929,-2.7369,-2.7025,-2.6093,-2.5089,-2.4231,-2.4551,-2.3992,-2.2527,-2.2035,-2.1481,-2.0798,-2.0382,-1.9965,-1.9691,-1.9425,-1.9104,-1.8589,-1.8249,-1.78,-1.7362,-1.6552,-1.5938,-1.5636,-1.4979,-1.4207,-1.3812,-1.3397,-1.2965,-1.2742,-1.2526,-1.2703,-1.3317,-1.3615,-1.3731,-1.3674,-1.3695,-1.3703,-1.3787,-1.3608,-1.3454,-1.3307,-1.3226,-1.313,-1.3143,-1.3137,-1.3137,-1.3137,-1.3052,-1.296,-1.279,-1.2493,-1.2129,-1.1664,-1.1364,-1.1072,-1.1218,-1.1389,-1.1638,-1.1735,-1.1853,-1.1943,-1.2434,-1.3065,-1.2971,-1.3084,-1.3011,-1.2974,-1.2781,-1.2659,-1.2852,-1.3157,-1.3656,-1.3998,-3.195,-3.0956,-3.1404,-3.1228,-3.0651,-3.0393,-3.1125,-3.216,-3.1676,-3.2153,-3.3132,-3.3183,-3.3131,-3.3007,-3.281,-3.2593,-3.23,-3.1981,-3.1809,-3.1846,-3.1825,-3.1749,-3.144,-3.163,-3.1866,-3.2028,-3.2339,-3.235,-3.2223,-3.2402,-3.2225,-3.1484,-3.1533,-3.1535,-3.1073,-3.0864,-3.0421,-2.9981,-2.9556,-2.8874,-2.7906,-2.7119,-2.6604,-2.6609,-2.5416,-2.4487,-2.3883,-2.3183,-2.2362,-2.141,-2.0806,-2.0471,-2.0155,-1.9608,-1.9188,-1.9096,-1.8866,-1.8411,-1.8032,-1.7652,-1.7296,-1.6804,-1.5955,-1.5229,-1.5042,-1.4124,-1.3299,-1.2975,-1.2615,-1.2314,-1.2136,-1.2083,-1.2187,-1.2114,-1.2592,-1.2966,-1.3331,-1.3413,-1.3265,-1.3052,-1.3074,-1.3076,-1.2649,-1.2662,-1.2681,-1.2668,-1.2662,-1.2668,-1.2625,-1.2577,-1.2479,-1.2263,-1.1966,-1.1481,-1.1022,-1.0736,-1.045,-1.0204,-1.0335,-1.052,-1.0763,-1.0898,-1.0961,-1.1495,-1.198,-1.1898,-1.1772,-1.1691,-1.1575,-1.143,-1.1415,-1.1549,-1.1946,-1.2533,-1.319,-3.1365,-3.1196,-3.1527,-3.1442,-3.12,-3.1222,-3.1712,-3.2404,-3.2277,-3.2524,-3.317,-3.335,-3.3158,-3.2822,-3.2723,-3.2419,-3.1937,-3.1773,-3.1723,-3.1693,-3.1741,-3.1741,-3.177,-3.2265,-3.237,-3.2192,-3.2289,-3.2521,-3.2524,-3.1913,-3.1592,-3.1715,-3.0862,-3.0475,-3.0255,-2.9572,-2.9163,-2.901,-2.8631,-2.7923,-2.71,-2.6733,-2.6069,-2.5099,-2.4326,-2.353,-2.2833,-2.1835,-2.1184,-2.0897,-2.0337,-2.0011,-1.9882,-1.9134,-1.8535,-1.8311,-1.7807,-1.7246,-1.6857,-1.6662,-1.6336,-1.5882,-1.5359,-1.4819,-1.4208,-1.3496,-1.2825,-1.2436,-1.1979,-1.1727,-1.1719,-1.1669,-1.1669,-1.1781,-1.1922,-1.2114,-1.2355,-1.2297,-1.2229,-1.2312,-1.2285,-1.2187,-1.2227,-1.2147,-1.2182,-1.2196,-1.2194,-1.2151,-1.2099,-1.2026,-1.1926,-1.1738,-1.1424,-1.0893,-1.0445,-1.0142,-0.9769,-0.9377,-0.9346,-0.946,-0.9678,-0.9866,-0.982,-0.9954,-1.0555,-1.0692,-1.0442,-1.0263,-1.0167,-1.0278,-1.0451,-1.0724,-1.1073,-1.1592,-1.2317,-3.1123,-3.1154,-3.147,-3.1495,-3.14,-3.1483,-3.1844,-3.2301,-3.245,-3.268,-3.2999,-3.3142,-3.298,-3.2587,-3.2245,-3.1925,-3.1552,-3.1397,-3.1488,-3.1748,-3.195,-3.2054,-3.2169,-3.257,-3.2517,-3.2094,-3.1934,-3.181,-3.1691,-3.1098,-3.0799,-3.0448,-3.0046,-2.956,-2.9024,-2.844,-2.8041,-2.7908,-2.7603,-2.7024,-2.647,-2.59,-2.544,-2.4438,-2.357,-2.2541,-2.168,-2.0813,-2.0428,-2.0382,-2.0065,-1.9617,-1.9234,-1.8535,-1.7932,-1.7527,-1.6918,-1.6487,-1.6109,-1.5906,-1.5685,-1.5272,-1.489,-1.4289,-1.3691,-1.2972,-1.232,-1.2071,-1.1566,-1.139,-1.1372,-1.1186,-1.1131,-1.123,-1.123,-1.1403,-1.1818,-1.1818,-1.1783,-1.1822,-1.1737,-1.1612,-1.1767,-1.1671,-1.164,-1.1661,-1.163,-1.1594,-1.1558,-1.1425,-1.1282,-1.1067,-1.0674,-1.0084,-0.9557,-0.9228,-0.878,-0.8412,-0.8303,-0.8416,-0.8774,-0.8975,-0.9148,-0.9192,-0.9394,-0.9492,-0.9394,-0.937,-0.9522,-0.9686,-0.9778,-1.0053,-1.048,-1.0905,-1.1592,-3.1107,-3.0985,-3.1229,-3.1307,-3.1272,-3.1278,-3.1601,-3.2052,-3.2195,-3.2474,-3.2726,-3.2741,-3.2524,-3.2269,-3.1717,-3.1297,-3.1258,-3.1066,-3.1275,-3.1656,-3.1993,-3.2218,-3.2131,-3.2298,-3.2194,-3.18,-3.1234,-3.0917,-3.0676,-3.0277,-2.969,-2.9305,-2.9238,-2.8717,-2.8066,-2.7402,-2.7151,-2.6972,-2.655,-2.6067,-2.5578,-2.4838,-2.4287,-2.388,-2.2732,-2.1679,-2.0879,-2.0246,-1.9982,-2.011,-1.9754,-1.9234,-1.8527,-1.7986,-1.734,-1.6723,-1.6339,-1.6008,-1.5622,-1.5298,-1.5061,-1.4732,-1.4132,-1.3658,-1.3175,-1.2425,-1.188,-1.176,-1.1354,-1.1098,-1.0934,-1.0697,-1.0553,-1.0608,-1.0487,-1.0795,-1.1298,-1.1558,-1.1595,-1.1564,-1.1252,-1.1174,-1.1187,-1.1123,-1.0945,-1.0969,-1.0923,-1.0805,-1.0723,-1.0568,-1.0423,-1.0303,-0.9792,-0.9167,-0.8726,-0.8301,-0.7764,-0.7334,-0.7291,-0.7419,-0.7977,-0.8284,-0.8625,-0.8792,-0.8587,-0.8625,-0.8742,-0.8834,-0.8956,-0.9157,-0.9279,-0.9674,-1.01,-1.0545,-1.1115,-3.0982,-3.1287,-3.1147,-3.1077,-3.1085,-3.1238,-3.1492,-3.1779,-3.1826,-3.2136,-3.2404,-3.2349,-3.1974,-3.1572,-3.1354,-3.1205,-3.1043,-3.0973,-3.1128,-3.1359,-3.1623,-3.1658,-3.1629,-3.1871,-3.1767,-3.126,-3.0784,-3.0446,-3.017,-2.9511,-2.9239,-2.9124,-2.8228,-2.7844,-2.7209,-2.6713,-2.6427,-2.6151,-2.5489,-2.4898,-2.4368,-2.3769,-2.3123,-2.2496,-2.1518,-2.0987,-2.0654,-2.0036,-1.9533,-1.9242,-1.9126,-1.8864,-1.8288,-1.7699,-1.7005,-1.6346,-1.5825,-1.535,-1.474,-1.4395,-1.4021,-1.3588,-1.3252,-1.2821,-1.2359,-1.194,-1.1548,-1.1352,-1.1053,-1.0791,-1.045,-1.0479,-1.0225,-1.0008,-0.9961,-1.0094,-1.0293,-1.0594,-1.0775,-1.0718,-1.0457,-1.0215,-1.0317,-1.0277,-1.0224,-1.0256,-1.0171,-1.0009,-0.9867,-0.9716,-0.9557,-0.9409,-0.8871,-0.8247,-0.7751,-0.7343,-0.6921,-0.651,-0.6414,-0.6343,-0.6927,-0.7256,-0.7475,-0.7564,-0.7503,-0.7695,-0.8126,-0.8207,-0.8338,-0.8577,-0.8883,-0.9345,-0.9799,-1.02,-1.0717,-3.1112,-3.1031,-3.0996,-3.1052,-3.1151,-3.1247,-3.1445,-3.1741,-3.1995,-3.2086,-3.2031,-3.1865,-3.1533,-3.1118,-3.1015,-3.0894,-3.0878,-3.1002,-3.1089,-3.1186,-3.1481,-3.149,-3.1188,-3.1218,-3.1075,-3.0522,-2.9664,-2.9373,-2.9153,-2.8361,-2.7669,-2.7885,-2.7102,-2.6436,-2.6045,-2.5777,-2.5402,-2.5142,-2.4758,-2.4173,-2.3501,-2.3056,-2.2336,-2.1311,-2.06,-2.0192,-2.011,-1.9442,-1.8886,-1.8545,-1.8345,-1.8095,-1.7623,-1.7178,-1.6527,-1.5629,-1.5302,-1.4729,-1.4094,-1.3673,-1.3333,-1.2649,-1.2327,-1.1958,-1.1597,-1.1273,-1.1083,-1.0943,-1.0824,-1.0609,-1.0092,-0.9792,-0.961,-0.9533,-0.9463,-0.9601,-0.9852,-1.0105,-1.0218,-1.0148,-0.9889,-0.9796,-0.9722,-0.9625,-0.9519,-0.9546,-0.9424,-0.9267,-0.9091,-0.891,-0.8631,-0.8377,-0.7896,-0.7363,-0.6842,-0.6416,-0.6143,-0.5835,-0.5645,-0.5555,-0.5726,-0.5963,-0.6176,-0.6492,-0.6923,-0.7274,-0.7655,-0.7711,-0.7884,-0.8228,-0.86,-0.9067,-0.9584,-1.0099,-1.0614,-3.1391,-3.0899,-3.0972,-3.1199,-3.1428,-3.1389,-3.1496,-3.183,-3.2197,-3.2009,-3.1658,-3.1437,-3.1217,-3.0823,-3.0754,-3.0631,-3.0718,-3.0844,-3.0932,-3.0856,-3.1284,-3.1159,-3.0821,-3.0558,-3.0255,-2.9789,-2.8871,-2.8516,-2.8265,-2.718,-2.6874,-2.6505,-2.5904,-2.5614,-2.512,-2.4716,-2.4587,-2.4299,-2.3967,-2.3588,-2.2976,-2.2526,-2.1746,-2.093,-2.0102,-1.9683,-1.9484,-1.8886,-1.8263,-1.79,-1.7439,-1.6923,-1.6543,-1.6402,-1.5933,-1.4728,-1.4684,-1.4187,-1.3466,-1.3081,-1.2664,-1.1898,-1.1402,-1.1163,-1.0921,-1.0653,-1.0498,-1.05,-1.0433,-1.0208,-0.9667,-0.942,-0.9135,-0.9,-0.8944,-0.921,-0.9557,-0.9733,-0.9695,-0.9771,-0.9468,-0.9309,-0.9194,-0.91,-0.8951,-0.8856,-0.8703,-0.8508,-0.836,-0.8097,-0.7829,-0.7421,-0.6959,-0.658,-0.6073,-0.5903,-0.5564,-0.5377,-0.512,-0.5033,-0.4928,-0.5082,-0.5515,-0.6142,-0.6595,-0.6881,-0.7158,-0.7339,-0.7588,-0.7889,-0.8428,-0.9017,-0.9534,-1.0009,-1.0528,-3.1961,-3.2119,-3.1305,-3.1477,-3.2137,-3.1826,-3.1765,-3.1973,-3.1916,-3.1585,-3.1233,-3.1224,-3.0918,-3.0584,-3.0735,-3.0834,-3.0855,-3.078,-3.0586,-3.0527,-3.081,-3.0649,-3.0187,-3.0009,-2.9565,-2.892,-2.838,-2.8431,-2.836,-2.7742,-2.6702,-2.6695,-2.6092,-2.5558,-2.502,-2.4666,-2.4143,-2.3741,-2.325,-2.2702,-2.2101,-2.1573,-2.1188,-2.0508,-1.9828,-1.9463,-1.9115,-1.852,-1.7833,-1.7349,-1.6818,-1.6231,-1.5746,-1.5677,-1.5246,-1.4578,-1.4264,-1.3829,-1.2864,-1.2444,-1.1928,-1.1227,-1.0619,-1.0379,-1.0273,-1.0085,-0.9889,-0.9839,-0.9762,-0.9506,-0.8745,-0.8905,-0.8856,-0.8628,-0.8597,-0.8817,-0.8908,-0.9008,-0.9127,-0.9322,-0.9051,-0.8861,-0.8856,-0.878,-0.867,-0.8518,-0.8327,-0.7983,-0.7638,-0.7361,-0.6984,-0.6567,-0.6067,-0.5711,-0.5318,-0.5326,-0.5182,-0.5068,-0.4901,-0.4804,-0.4688,-0.4591,-0.4907,-0.5548,-0.6027,-0.6281,-0.6576,-0.6899,-0.7274,-0.7587,-0.8265,-0.8991,-0.9428,-0.9891,-1.0428,-3.2983,-3.2687,-3.2464,-3.2425,-3.2431,-3.2244,-3.2146,-3.2228,-3.1876,-3.158,-3.1383,-3.1195,-3.0911,-3.0767,-3.12,-3.1366,-3.1103,-3.0639,-3.036,-3.0297,-3.0482,-3.0471,-2.9964,-2.9799,-2.9779,-2.9289,-2.8618,-2.7883,-2.7779,-2.6602,-2.621,-2.5857,-2.5316,-2.478,-2.4503,-2.4068,-2.3655,-2.3174,-2.2755,-2.2109,-2.1239,-2.061,-2.0096,-1.9804,-1.9379,-1.8974,-1.8726,-1.804,-1.7326,-1.6766,-1.6169,-1.5494,-1.5028,-1.4623,-1.4379,-1.4059,-1.3986,-1.3495,-1.241,-1.1963,-1.1444,-1.0441,-0.989,-0.9582,-0.9469,-0.9284,-0.9242,-0.9246,-0.9067,-0.8848,-0.8479,-0.8611,-0.8462,-0.8271,-0.8374,-0.8585,-0.867,-0.8699,-0.8822,-0.9018,-0.8899,-0.8784,-0.8703,-0.8589,-0.8403,-0.8178,-0.7991,-0.7569,-0.7142,-0.6826,-0.6591,-0.6054,-0.5667,-0.5378,-0.5115,-0.5084,-0.5064,-0.4895,-0.4772,-0.4677,-0.4628,-0.4588,-0.4634,-0.4957,-0.5304,-0.5791,-0.6177,-0.658,-0.6941,-0.7391,-0.8163,-0.8871,-0.9297,-0.9784,-1.0358,-3.3956,-3.3208,-3.3506,-3.3275,-3.2785,-3.2699,-3.2681,-3.2571,-3.2101,-3.1815,-3.167,-3.1337,-3.1127,-3.1207,-3.1565,-3.178,-3.1391,-3.0715,-3.0308,-3.0276,-3.0648,-3.0663,-3.0116,-3.0083,-2.9799,-2.9046,-2.8082,-2.7234,-2.7263,-2.6107,-2.5359,-2.5237,-2.4464,-2.3939,-2.4,-2.3649,-2.3039,-2.2732,-2.2434,-2.1828,-2.0686,-1.9686,-1.9096,-1.905,-1.8651,-1.8357,-1.8026,-1.744,-1.6743,-1.6147,-1.5453,-1.4793,-1.4284,-1.373,-1.3478,-1.3533,-1.353,-1.2856,-1.2103,-1.1433,-1.076,-0.9808,-0.9277,-0.8946,-0.8733,-0.8672,-0.8602,-0.8703,-0.8546,-0.8283,-0.8162,-0.8152,-0.8115,-0.8157,-0.8291,-0.8487,-0.8647,-0.8746,-0.8746,-0.8784,-0.8746,-0.8708,-0.8703,-0.8551,-0.8365,-0.8178,-0.7953,-0.7526,-0.7099,-0.6788,-0.6437,-0.5825,-0.5389,-0.5123,-0.5007,-0.5026,-0.5035,-0.4992,-0.4859,-0.4725,-0.4725,-0.4709,-0.4749,-0.4789,-0.5136,-0.5604,-0.5926,-0.635,-0.685,-0.7429,-0.8184,-0.8783,-0.9238,-0.9871,-1.052,-3.4378,-3.4158,-3.3622,-3.3426,-3.3491,-3.3266,-3.3162,-3.3097,-3.2566,-3.2157,-3.1804,-3.1845,-3.1777,-3.1688,-3.178,-3.167,-3.1216,-3.0662,-3.0287,-3.0308,-3.0752,-3.0437,-2.9628,-3.0138,-2.9257,-2.8457,-2.7274,-2.736,-2.7249,-2.6139,-2.5535,-2.5311,-2.4654,-2.4348,-2.3866,-2.3177,-2.279,-2.2568,-2.2052,-2.127,-2.0305,-1.9357,-1.8829,-1.8589,-1.8226,-1.7849,-1.7272,-1.6728,-1.6111,-1.5388,-1.4808,-1.4291,-1.3822,-1.3561,-1.31,-1.2697,-1.2322,-1.1884,-1.1229,-1.0714,-1.0116,-0.9316,-0.8736,-0.8399,-0.8265,-0.8117,-0.8034,-0.8158,-0.7987,-0.7846,-0.7805,-0.7937,-0.8027,-0.8131,-0.822,-0.8434,-0.8632,-0.8742,-0.8784,-0.8865,-0.8865,-0.8822,-0.8746,-0.8556,-0.8327,-0.814,-0.7872,-0.7484,-0.7061,-0.6745,-0.6475,-0.5899,-0.5631,-0.5369,-0.5277,-0.5257,-0.5252,-0.519,-0.5043,-0.4941,-0.5006,-0.4994,-0.4784,-0.4885,-0.5228,-0.5578,-0.5961,-0.6416,-0.6841,-0.7509,-0.8314,-0.8831,-0.9224,-0.993,-1.0678,-3.5387,-3.503,-3.4761,-3.4197,-3.3703,-3.3657,-3.3359,-3.2841,-3.2606,-3.2381,-3.2252,-3.2543,-3.2683,-3.2559,-3.2258,-3.1759,-3.1272,-3.0569,-3.0088,-3.0088,-3.0365,-3.0202,-2.9702,-2.9571,-2.886,-2.8013,-2.7075,-2.648,-2.647,-2.5717,-2.4868,-2.4416,-2.4074,-2.3518,-2.3289,-2.2477,-2.1946,-2.1427,-2.0718,-1.9989,-1.9471,-1.884,-1.8365,-1.8249,-1.7719,-1.7271,-1.6815,-1.6073,-1.5421,-1.4715,-1.4222,-1.373,-1.3215,-1.279,-1.2406,-1.2052,-1.1368,-1.1017,-1.0789,-1.0273,-0.9614,-0.8919,-0.8355,-0.8084,-0.793,-0.7773,-0.7642,-0.7757,-0.768,-0.7592,-0.7576,-0.7749,-0.785,-0.7998,-0.8121,-0.8405,-0.8627,-0.8742,-0.8818,-0.8899,-0.898,-0.8903,-0.8784,-0.8632,-0.8441,-0.8289,-0.8102,-0.7791,-0.7211,-0.6633,-0.636,-0.6089,-0.5896,-0.5812,-0.5729,-0.5719,-0.5796,-0.5711,-0.5501,-0.543,-0.5425,-0.5379,-0.517,-0.5209,-0.5599,-0.5881,-0.6129,-0.6571,-0.713,-0.7797,-0.8464,-0.8936,-0.9427,-1.0243,-1.097,-3.625,-3.5806,-3.5708,-3.5101,-3.4213,-3.4384,-3.3952,-3.3061,-3.2949,-3.2836,-3.2915,-3.3209,-3.3401,-3.319,-3.2538,-3.1984,-3.1368,-3.0559,-3.0078,-2.99,-2.9855,-2.988,-2.9591,-2.9256,-2.887,-2.8125,-2.6993,-2.6253,-2.5354,-2.467,-2.4022,-2.337,-2.3566,-2.2946,-2.2155,-2.1695,-2.1296,-2.0448,-1.9644,-1.9113,-1.8775,-1.8324,-1.7924,-1.7588,-1.7134,-1.6693,-1.6289,-1.5504,-1.466,-1.4077,-1.3641,-1.3088,-1.24,-1.2057,-1.1573,-1.1134,-1.0441,-1.0126,-1.001,-0.9654,-0.9177,-0.8564,-0.8081,-0.7809,-0.7602,-0.7518,-0.7518,-0.7561,-0.7561,-0.7518,-0.7518,-0.7676,-0.7744,-0.7817,-0.7944,-0.8289,-0.8589,-0.878,-0.8932,-0.9051,-0.9094,-0.8941,-0.8822,-0.8708,-0.8556,-0.8441,-0.825,-0.8059,-0.7518,-0.6865,-0.6633,-0.6479,-0.6167,-0.6089,-0.6047,-0.6089,-0.6173,-0.6234,-0.6018,-0.5891,-0.5882,-0.5748,-0.554,-0.5738,-0.6011,-0.6244,-0.6464,-0.6933,-0.7462,-0.8054,-0.8639,-0.9131,-0.975,-1.052,-1.1136,-3.6615,-3.6321,-3.6075,-3.5893,-3.5734,-3.5868,-3.5239,-3.415,-3.3998,-3.3765,-3.3639,-3.3894,-3.3681,-3.3124,-3.2893,-3.2292,-3.1223,-3.09,-3.0308,-3.0066,-3.0017,-2.97,-2.935,-2.9106,-2.8753,-2.7692,-2.6831,-2.5905,-2.4932,-2.4267,-2.3791,-2.3493,-2.3191,-2.2562,-2.1793,-2.1106,-2.05,-1.9739,-1.905,-1.8624,-1.8255,-1.7864,-1.7409,-1.6791,-1.6524,-1.6107,-1.5104,-1.4546,-1.3987,-1.3401,-1.2948,-1.2357,-1.1666,-1.1327,-1.0819,-1.0196,-0.9671,-0.933,-0.908,-0.8876,-0.8475,-0.8107,-0.7818,-0.7606,-0.7526,-0.7518,-0.7518,-0.7518,-0.7518,-0.7518,-0.7518,-0.7518,-0.7642,-0.7757,-0.791,-0.825,-0.8589,-0.8894,-0.9046,-0.9203,-0.9165,-0.9008,-0.8784,-0.8594,-0.8518,-0.8403,-0.8403,-0.8212,-0.7983,-0.7484,-0.7257,-0.6984,-0.6553,-0.636,-0.6279,-0.636,-0.6483,-0.6563,-0.6468,-0.6349,-0.6309,-0.615,-0.5994,-0.6058,-0.6291,-0.654,-0.6875,-0.7496,-0.7991,-0.8334,-0.8811,-0.9474,-0.9971,-1.0581,-1.1069,-3.7109,-3.71,-3.6846,-3.6468,-3.6014,-3.6152,-3.5728,-3.4974,-3.4773,-3.4659,-3.4513,-3.4631,-3.4352,-3.3719,-3.3143,-3.2509,-3.141,-3.0559,-3.0025,-2.9647,-2.9432,-2.9209,-2.8977,-2.8684,-2.8308,-2.7272,-2.6593,-2.5655,-2.4326,-2.3854,-2.3181,-2.2808,-2.2472,-2.1819,-2.1081,-2.0248,-1.9558,-1.9011,-1.8431,-1.8003,-1.7683,-1.7381,-1.6961,-1.6391,-1.5843,-1.5383,-1.4563,-1.3991,-1.3335,-1.2649,-1.21,-1.1477,-1.0876,-1.0547,-1.0007,-0.9415,-0.8968,-0.8595,-0.8276,-0.8128,-0.8063,-0.7784,-0.7598,-0.748,-0.7442,-0.7484,-0.7518,-0.7518,-0.7518,-0.7518,-0.7518,-0.7518,-0.7561,-0.768,-0.791,-0.8212,-0.8594,-0.8975,-0.9198,-0.9354,-0.9198,-0.9003,-0.8742,-0.8518,-0.8441,-0.8365,-0.8365,-0.8365,-0.8174,-0.7987,-0.7718,-0.7531,-0.7099,-0.6903,-0.6861,-0.6826,-0.683,-0.683,-0.6872,-0.6809,-0.6753,-0.6686,-0.6573,-0.6588,-0.6688,-0.7052,-0.7505,-0.8131,-0.8579,-0.8862,-0.9401,-1.0038,-1.0436,-1.0677,-1.1062,-3.7331,-3.7451,-3.7372,-3.6968,-3.6549,-3.6567,-3.6151,-3.5509,-3.541,-3.5269,-3.5103,-3.512,-3.4827,-3.415,-3.3464,-3.2469,-3.1445,-3.0568,-2.9717,-2.9202,-2.8834,-2.8717,-2.8504,-2.816,-2.768,-2.6812,-2.6172,-2.5258,-2.3898,-2.351,-2.2494,-2.1594,-2.1064,-2.0498,-2.0159,-1.9295,-1.8613,-1.8155,-1.7807,-1.7387,-1.7113,-1.677,-1.635,-1.5769,-1.5185,-1.4471,-1.3735,-1.312,-1.2484,-1.1821,-1.1219,-1.0663,-1.0161,-0.9677,-0.9201,-0.8758,-0.8356,-0.7938,-0.7687,-0.7462,-0.7414,-0.7092,-0.7188,-0.7176,-0.7253,-0.7369,-0.7518,-0.7518,-0.7518,-0.7518,-0.7518,-0.7518,-0.7638,-0.7795,-0.791,-0.8255,-0.8746,-0.9165,-0.9354,-0.9506,-0.9233,-0.8937,-0.8675,-0.8425,-0.841,-0.8369,-0.8365,-0.8441,-0.8479,-0.825,-0.8059,-0.7876,-0.7684,-0.7565,-0.748,-0.7288,-0.7134,-0.7176,-0.718,-0.7219,-0.7177,-0.7106,-0.7115,-0.7126,-0.7306,-0.764,-0.8052,-0.8526,-0.9,-0.942,-0.9932,-1.0393,-1.0432,-1.0699,-1.1155,-3.7222,-3.724,-3.7505,-3.7536,-3.7388,-3.7203,-3.6654,-3.6033,-3.5956,-3.5661,-3.5174,-3.5252,-3.4934,-3.4153,-3.3464,-3.2372,-3.1326,-3.0658,-2.9761,-2.8714,-2.8335,-2.8184,-2.7853,-2.7454,-2.7056,-2.6883,-2.5934,-2.4697,-2.3503,-2.2647,-2.1451,-2.0169,-1.9455,-1.9049,-1.9296,-1.8824,-1.8117,-1.7473,-1.7333,-1.6958,-1.6534,-1.6062,-1.5591,-1.4917,-1.4392,-1.3685,-1.283,-1.2232,-1.1655,-1.1032,-1.0396,-0.9818,-0.9283,-0.8907,-0.8376,-0.7693,-0.7529,-0.7254,-0.6929,-0.6486,-0.6318,-0.636,-0.6595,-0.6753,-0.6795,-0.7099,-0.748,-0.7484,-0.7518,-0.7518,-0.7518,-0.7557,-0.7718,-0.791,-0.8063,-0.8327,-0.8861,-0.9283,-0.9484,-0.9371,-0.913,-0.8871,-0.8569,-0.8346,-0.8343,-0.8365,-0.8381,-0.8484,-0.8565,-0.8479,-0.825,-0.8063,-0.7919,-0.7718,-0.7561,-0.7518,-0.7442,-0.7484,-0.7522,-0.7603,-0.7622,-0.7596,-0.7616,-0.7695,-0.7944,-0.8278,-0.855,-0.8843,-0.936,-0.984,-1.0207,-1.0561,-1.0582,-1.0726,-1.1212,-3.739,-3.7733,-3.7619,-3.7489,-3.7251,-3.7131,-3.6865,-3.6479,-3.6241,-3.5862,-3.5395,-3.5378,-3.4914,-3.4042,-3.3071,-3.2132,-3.1233,-2.9901,-2.8927,-2.8374,-2.7862,-2.7584,-2.7206,-2.6806,-2.6367,-2.5745,-2.4823,-2.3834,-2.2545,-2.1677,-2.0492,-1.9216,-1.7999,-1.7585,-1.7658,-1.7557,-1.7308,-1.7019,-1.6636,-1.6109,-1.5771,-1.5317,-1.4669,-1.3868,-1.3507,-1.2841,-1.1894,-1.1375,-1.0924,-1.0298,-0.9649,-0.9144,-0.8645,-0.826,-0.7652,-0.7156,-0.6957,-0.637,-0.5917,-0.5541,-0.5504,-0.5733,-0.6076,-0.6346,-0.6595,-0.7026,-0.7296,-0.7446,-0.7484,-0.7484,-0.7518,-0.7642,-0.7838,-0.8102,-0.8327,-0.8551,-0.8956,-0.9329,-0.9491,-0.9163,-0.8892,-0.864,-0.8348,-0.8321,-0.8343,-0.8407,-0.8445,-0.8556,-0.8659,-0.8502,-0.8293,-0.8102,-0.7915,-0.7718,-0.7599,-0.7518,-0.7557,-0.7599,-0.7791,-0.7987,-0.8018,-0.8122,-0.8411,-0.862,-0.8791,-0.8958,-0.9214,-0.9485,-0.983,-1.0238,-1.0455,-1.0598,-1.0618,-1.0872,-1.1321,-3.7499,-3.795,-3.7702,-3.7411,-3.7143,-3.697,-3.6808,-3.6592,-3.6375,-3.595,-3.55,-3.5457,-3.4747,-3.3752,-3.2833,-3.1504,-3.0721,-2.9641,-2.8437,-2.7901,-2.7215,-2.6881,-2.6609,-2.6127,-2.5513,-2.4774,-2.3991,-2.3019,-2.1707,-2.0811,-1.9388,-1.7793,-1.6649,-1.6103,-1.6116,-1.6251,-1.6588,-1.6251,-1.5778,-1.5337,-1.4908,-1.4369,-1.3761,-1.3118,-1.2586,-1.2047,-1.1215,-1.0692,-1.0282,-0.9559,-0.8968,-0.8446,-0.8016,-0.7493,-0.6918,-0.6631,-0.618,-0.5562,-0.4933,-0.4742,-0.4737,-0.4774,-0.5445,-0.5899,-0.6266,-0.6754,-0.7134,-0.7373,-0.7446,-0.7561,-0.7638,-0.7799,-0.7987,-0.825,-0.8455,-0.8718,-0.8913,-0.9281,-0.9197,-0.891,-0.8801,-0.8491,-0.8254,-0.8325,-0.8388,-0.845,-0.8546,-0.8622,-0.8645,-0.8469,-0.8304,-0.8128,-0.7923,-0.7718,-0.7599,-0.7518,-0.7595,-0.7714,-0.7983,-0.8289,-0.8647,-0.8797,-0.9173,-0.9535,-0.9649,-0.9788,-0.9858,-1.0086,-1.0095,-1.018,-1.0373,-1.0504,-1.0623,-1.0957,-1.1382,-3.7512,-3.7914,-3.7691,-3.7447,-3.7125,-3.6944,-3.6595,-3.6277,-3.6277,-3.5918,-3.539,-3.5467,-3.4608,-3.3189,-3.2709,-3.1401,-2.9714,-2.904,-2.8096,-2.7182,-2.6445,-2.6209,-2.5698,-2.5084,-2.4617,-2.4037,-2.3243,-2.2172,-2.0865,-1.9587,-1.798,-1.6459,-1.5575,-1.4895,-1.4804,-1.501,-1.5395,-1.5199,-1.4867,-1.4427,-1.3945,-1.3397,-1.2811,-1.2199,-1.1685,-1.105,-1.0392,-0.9932,-0.9375,-0.8747,-0.8084,-0.7576,-0.7078,-0.6517,-0.6197,-0.5819,-0.5418,-0.4809,-0.4212,-0.4099,-0.3989,-0.4082,-0.4709,-0.5052,-0.5617,-0.6381,-0.6965,-0.7276,-0.7446,-0.7642,-0.7799,-0.7949,-0.8097,-0.8307,-0.8516,-0.8727,-0.887,-0.895,-0.8829,-0.8716,-0.8776,-0.8628,-0.8543,-0.8502,-0.8459,-0.8461,-0.8518,-0.8467,-0.8469,-0.8343,-0.8204,-0.8095,-0.7919,-0.7688,-0.7603,-0.7599,-0.7714,-0.7906,-0.8284,-0.8627,-0.8993,-0.947,-0.983,-1.0126,-1.0484,-1.0554,-1.0371,-1.0161,-0.997,-1.0107,-1.0323,-1.0495,-1.0609,-1.103,-1.1443,-3.784,-3.7962,-3.7945,-3.7947,-3.7944,-3.7465,-3.6775,-3.5984,-3.5785,-3.5513,-3.5274,-3.5021,-3.414,-3.2803,-3.1932,-3.0615,-2.9296,-2.809,-2.7356,-2.6582,-2.5835,-2.5447,-2.4919,-2.4395,-2.3812,-2.3207,-2.2408,-2.1325,-1.984,-1.8419,-1.6905,-1.5479,-1.479,-1.4046,-1.3601,-1.3573,-1.3896,-1.3996,-1.3755,-1.3413,-1.309,-1.2609,-1.1926,-1.1202,-1.0944,-1.0288,-0.9531,-0.9021,-0.8484,-0.8054,-0.7356,-0.6838,-0.6475,-0.6145,-0.5803,-0.5039,-0.4753,-0.4437,-0.3788,-0.3697,-0.3732,-0.37,-0.4312,-0.4823,-0.5325,-0.6071,-0.6829,-0.7206,-0.7518,-0.7718,-0.7949,-0.814,-0.825,-0.8412,-0.8573,-0.8647,-0.8785,-0.8697,-0.8607,-0.8597,-0.8649,-0.8724,-0.8604,-0.86,-0.8522,-0.8522,-0.8473,-0.8389,-0.8309,-0.8142,-0.8114,-0.8043,-0.7854,-0.765,-0.7718,-0.7753,-0.7906,-0.814,-0.8556,-0.9008,-0.9533,-0.997,-1.0398,-1.0697,-1.0954,-1.0849,-1.0649,-1.039,-1.0044,-1.0128,-1.0303,-1.0464,-1.0682,-1.1142,-1.1535,-3.8096,-3.841,-3.8352,-3.8299,-3.8138,-3.7909,-3.7035,-3.5848,-3.5669,-3.5546,-3.5187,-3.4786,-3.3759,-3.2246,-3.124,-2.9958,-2.8311,-2.742,-2.6727,-2.6245,-2.5348,-2.5023,-2.4505,-2.3836,-2.3151,-2.2538,-2.1745,-2.0664,-1.9081,-1.7182,-1.5575,-1.4994,-1.4321,-1.3442,-1.2822,-1.2557,-1.2476,-1.2601,-1.2524,-1.2296,-1.2089,-1.1854,-1.1114,-1.0417,-1.0292,-0.965,-0.8729,-0.8213,-0.7866,-0.7465,-0.6792,-0.6263,-0.5915,-0.5624,-0.5114,-0.4448,-0.4232,-0.3801,-0.3248,-0.3261,-0.3381,-0.3659,-0.4092,-0.4763,-0.5518,-0.6252,-0.6832,-0.7248,-0.7583,-0.7872,-0.8102,-0.8327,-0.8441,-0.8551,-0.8542,-0.853,-0.8551,-0.85,-0.8476,-0.8447,-0.8514,-0.8615,-0.8616,-0.8616,-0.852,-0.8408,-0.8301,-0.821,-0.8079,-0.7956,-0.8003,-0.8001,-0.7827,-0.7607,-0.7761,-0.7996,-0.825,-0.8518,-0.8932,-0.9425,-0.9992,-1.0507,-1.1013,-1.1205,-1.1386,-1.1179,-1.0915,-1.0472,-1.0181,-1.0254,-1.039,-1.0645,-1.0948,-1.1431,-1.1797,-3.8287,-3.9169,-3.8996,-3.8609,-3.8048,-3.8183,-3.7314,-3.58,-3.5958,-3.5764,-3.5208,-3.4651,-3.3406,-3.196,-3.0826,-2.9383,-2.796,-2.691,-2.6336,-2.6017,-2.4915,-2.4441,-2.4162,-2.3345,-2.2742,-2.2088,-2.1286,-2.0249,-1.8528,-1.6696,-1.521,-1.4638,-1.3949,-1.3065,-1.2153,-1.1866,-1.1677,-1.1265,-1.1383,-1.1329,-1.1303,-1.1142,-1.0773,-0.9981,-0.9657,-0.9262,-0.8336,-0.7782,-0.7443,-0.6909,-0.6353,-0.5781,-0.5425,-0.5176,-0.451,-0.4004,-0.3781,-0.3428,-0.302,-0.3006,-0.3316,-0.3627,-0.4064,-0.4877,-0.5683,-0.6295,-0.6808,-0.7427,-0.7829,-0.8097,-0.8327,-0.8441,-0.8551,-0.8545,-0.8513,-0.8452,-0.8427,-0.8414,-0.8425,-0.8418,-0.8563,-0.8616,-0.8568,-0.8524,-0.8344,-0.8248,-0.8025,-0.7881,-0.7871,-0.7712,-0.7854,-0.7979,-0.7731,-0.7659,-0.8047,-0.8308,-0.8603,-0.8932,-0.9354,-0.9873,-1.04,-1.0999,-1.1632,-1.167,-1.1637,-1.1403,-1.1099,-1.0594,-1.0295,-1.0436,-1.0599,-1.0876,-1.1254,-1.1662,-1.2033,-3.8456,-3.8942,-3.9681,-3.9443,-3.8577,-3.8707,-3.7828,-3.6228,-3.6103,-3.5752,-3.5089,-3.4243,-3.3287,-3.2185,-3.0592,-2.9124,-2.7963,-2.6674,-2.5989,-2.5459,-2.4582,-2.4083,-2.393,-2.314,-2.2403,-2.1791,-2.0979,-1.9702,-1.7932,-1.6224,-1.4886,-1.44,-1.3737,-1.2866,-1.1668,-1.1426,-1.112,-1.0441,-1.0312,-1.0567,-1.0708,-1.0311,-0.9866,-0.9313,-0.8943,-0.8411,-0.7614,-0.703,-0.672,-0.629,-0.574,-0.5286,-0.5004,-0.4849,-0.4331,-0.3699,-0.3528,-0.3261,-0.3078,-0.3044,-0.3397,-0.4025,-0.4579,-0.5169,-0.5745,-0.6264,-0.6859,-0.7572,-0.8059,-0.8327,-0.8518,-0.8556,-0.8599,-0.8496,-0.8435,-0.8369,-0.8299,-0.8353,-0.8347,-0.8482,-0.8592,-0.8568,-0.8524,-0.8388,-0.816,-0.7848,-0.7496,-0.7349,-0.7493,-0.7497,-0.7777,-0.7844,-0.7672,-0.7711,-0.8177,-0.8686,-0.8985,-0.9309,-0.9711,-1.0267,-1.0812,-1.144,-1.1959,-1.1911,-1.1807,-1.1439,-1.1013,-1.0525,-1.0343,-1.0461,-1.0695,-1.0906,-1.1365,-1.1805,-1.2187,-3.8616,-3.9272,-4.0306,-4.0087,-3.9188,-3.9128,-3.812,-3.6648,-3.6296,-3.5887,-3.5175,-3.4022,-3.3053,-3.2253,-3.0528,-2.9135,-2.7985,-2.6616,-2.5894,-2.5226,-2.4501,-2.3805,-2.3373,-2.2862,-2.1986,-2.1194,-1.9881,-1.8542,-1.7295,-1.5852,-1.4631,-1.4093,-1.3516,-1.268,-1.1444,-1.1243,-1.0865,-1.0052,-0.9728,-0.9844,-1.0138,-0.9714,-0.9304,-0.88,-0.8273,-0.7661,-0.7048,-0.6481,-0.6171,-0.5871,-0.5407,-0.5115,-0.4868,-0.4781,-0.437,-0.3857,-0.3602,-0.3449,-0.3276,-0.3326,-0.3692,-0.4392,-0.4964,-0.5477,-0.6607,-0.7117,-0.7275,-0.7915,-0.8291,-0.8585,-0.8589,-0.8665,-0.8556,-0.8473,-0.8451,-0.8368,-0.8395,-0.8442,-0.8469,-0.8551,-0.8616,-0.8616,-0.8524,-0.834,-0.816,-0.7944,-0.7499,-0.7187,-0.7237,-0.7301,-0.7595,-0.7811,-0.7692,-0.7866,-0.8385,-0.8941,-0.947,-0.9788,-1.009,-1.059,-1.1141,-1.1787,-1.2241,-1.1931,-1.1605,-1.1199,-1.0785,-1.0384,-1.0244,-1.0293,-1.0623,-1.0924,-1.1415,-1.1966,-1.2519,-3.8611,-3.9626,-4.0682,-4.0461,-3.9429,-3.9127,-3.8036,-3.6573,-3.6246,-3.5795,-3.5036,-3.37,-3.2984,-3.2008,-3.0296,-2.9154,-2.7958,-2.6798,-2.5942,-2.5141,-2.4359,-2.3695,-2.3078,-2.2434,-2.1643,-2.0393,-1.8949,-1.8067,-1.7141,-1.5598,-1.4448,-1.3814,-1.3159,-1.2484,-1.1668,-1.121,-1.0857,-1.0062,-0.9634,-0.9542,-0.9366,-0.9108,-0.8775,-0.836,-0.7814,-0.7187,-0.6544,-0.606,-0.5737,-0.5519,-0.5263,-0.5005,-0.4828,-0.4716,-0.4369,-0.3975,-0.3752,-0.3614,-0.3491,-0.3658,-0.4189,-0.4788,-0.5226,-0.6026,-0.7129,-0.7674,-0.7812,-0.813,-0.8548,-0.8737,-0.878,-0.878,-0.867,-0.8541,-0.8485,-0.8429,-0.8446,-0.851,-0.8533,-0.8588,-0.8612,-0.8612,-0.8524,-0.834,-0.8072,-0.7856,-0.7635,-0.7367,-0.718,-0.721,-0.7355,-0.7697,-0.782,-0.812,-0.8565,-0.9093,-0.968,-1.0137,-1.0484,-1.093,-1.1359,-1.1745,-1.1874,-1.1589,-1.1261,-1.0971,-1.0685,-1.0307,-1.0237,-1.0185,-1.0573,-1.0916,-1.1391,-1.2003,-1.2879,-3.8665,-3.9268,-4.0328,-4.0059,-3.8902,-3.8241,-3.7144,-3.5911,-3.5302,-3.4808,-3.4329,-3.3437,-3.2815,-3.2914,-3.0422,-2.9022,-2.8324,-2.7026,-2.5969,-2.5162,-2.4303,-2.3632,-2.2871,-2.212,-2.1588,-2.0182,-1.8557,-1.7577,-1.6738,-1.5398,-1.434,-1.3755,-1.3324,-1.2549,-1.1527,-1.1144,-1.0816,-0.9962,-0.942,-0.9221,-0.9052,-0.8734,-0.8253,-0.7762,-0.7153,-0.6592,-0.6082,-0.5738,-0.5485,-0.5302,-0.5131,-0.4912,-0.4807,-0.4701,-0.4406,-0.4098,-0.3873,-0.3868,-0.3861,-0.4092,-0.4622,-0.519,-0.5693,-0.6296,-0.7245,-0.7914,-0.8165,-0.8571,-0.8898,-0.9082,-0.9132,-0.9127,-0.9056,-0.8851,-0.8758,-0.8594,-0.8515,-0.8514,-0.8533,-0.8574,-0.8612,-0.8612,-0.8568,-0.8296,-0.7896,-0.7632,-0.7323,-0.7098,-0.7143,-0.7139,-0.7143,-0.7493,-0.7878,-0.833,-0.8768,-0.9238,-0.9782,-1.0335,-1.0818,-1.1206,-1.1443,-1.1452,-1.1459,-1.1161,-1.0999,-1.0789,-1.0475,-1.018,-1.0105,-1.0056,-1.0507,-1.095,-1.1422,-1.2129,-1.3101]},{"header":{"parameterUnit":"m.s-1","parameterCategory":1,"la1":31.0,"la2":29.5877,"lo1":-88.7671,"lo2":-86.6584,"dy":0.0162,"dx":0.0185,"nx":115,"ny":88,"refTime":"2026-05-20T12:00:00:Z","depth":0,"parameterNumber":3,"parameterNumberName":"V-component_of_WINDS"},"data":[0.0,0.0,0.0,0.0,0.0,0.0,0.0,0.0,0.0,0.0,0.0,0.0,0.0,0.0,0.0,0.0,0.0,0.0,0.0,0.0,0.0,0.0,0.0,0.0,0.0,0.0,0.0,0.0,0.0,0.0,0.0,0.0,0.0,0.0,0.0,0.0,0.0,0.0,0.0,0.0,0.0,0.0,0.0,0.0,0.0,0.0,0.0,0.0,0.0,0.0,0.0,0.0,0.0,0.0,0.0,0.0,0.0,0.0,0.0,0.0,0.0,0.0,0.0,0.0,0.0,0.0,0.0,0.0,0.0,0.0,0.0,0.0,0.0,0.0,0.0,0.0,0.0,0.0,0.0,0.0,0.0,0.0,0.0,0.0,0.0,0.0,0.0,0.0,0.0,0.0,0.0,0.0,0.0,0.0,0.0,0.0,0.0,0.0,0.0,0.0,0.0,0.0,0.0,0.0,0.0,0.0,0.0,0.0,0.0,0.0,0.0,0.0,0.0,0.0,0.0,0.0,0.0,0.0,0.0,0.0,0.0,0.0,0.0,0.0,0.0,0.0,0.0,0.0,0.0,0.0,0.0,0.0,0.0,0.0,0.0,0.0,0.0,0.0,0.0,0.0,0.0,0.0,0.0,0.0,0.0,0.0,0.0,0.0,0.0,0.0,0.0,0.0,0.0,0.0,0.0,0.0,0.0,0.0,0.0,0.0,0.0,0.0,0.0,0.0,0.0,0.0,0.0,0.0,0.0,0.0,0.0,0.0,0.0,0.0,0.0,0.0,0.0,0.0,0.0,0.0,0.0,0.0,0.0,0.0,0.0,0.0,0.0,0.0,0.0,0.0,0.0,0.0,0.0,0.0,0.0,0.0,0.0,0.0,0.0,0.0,0.0,0.0,0.0,0.0,0.0,0.0,0.0,0.0,0.0,0.0,0.0,0.0,0.0,0.0,0.0,0.0,0.0,0.0,0.0,0.0,0.0,0.0,0.0,0.0,0.0,0.0,0.0,0.0,0.0,0.0,0.0,0.0,0.0,0.0,0.0,0.0,0.0,0.0,0.0,0.0,0.0,0.0,0.0,0.0,0.0,0.0,0.0,0.0,0.0,0.0,0.0,0.0,0.0,0.0,0.0,0.0,0.0,0.0,0.0,0.0,0.0,0.0,0.0,0.0,0.0,0.0,0.0,0.0,0.0,0.0,0.0,0.0,0.0,0.0,0.0,0.0,0.0,0.0,0.0,0.0,0.0,0.0,0.0,0.0,0.0,0.0,0.0,0.0,0.0,0.0,0.0,0.0,0.0,0.0,0.0,0.0,0.0,0.0,0.0,0.0,0.0,0.0,0.0,0.0,0.0,0.0,0.0,0.0,0.0,0.0,0.0,0.0,0.0,0.0,0.0,0.0,0.0,0.0,0.0,0.0,0.0,0.0,0.0,0.0,0.0,0.0,0.0,0.0,0.0,0.0,0.0,0.0,0.0,0.0,0.0,0.0,0.0,0.0,0.0,0.0,0.0,0.0,0.0,0.0,0.0,0.0,0.0,0.0,0.0,0.0,0.0,0.0,0.0,0.0,0.0,0.0,0.0,0.0,0.0,0.0,0.0,0.0,0.0,0.0,0.0,0.0,0.0,0.0,0.0,0.0,0.0,0.0,0.0,0.0,0.0,0.0,0.0,0.0,0.0,0.0,0.0,0.0,0.0,0.0,0.0,0.0,0.0,0.0,0.0,0.0,0.0,0.0,0.0,0.0,0.0,0.0,0.0,0.0,0.0,0.0,0.0,0.0,0.0,0.0,0.0,0.0,0.0,0.0,0.0,0.0,0.0,0.0,0.0,0.0,0.0,0.0,0.0,0.0,0.0,0.0,0.0,0.0,0.0,0.0,0.0,0.0,0.0,0.0,0.0,0.0,0.0,0.0,0.0,0.0,0.0,0.0,0.0,0.0,0.0,0.0,0.0,0.0,0.0,0.0,0.0,0.0,0.0,0.0,0.0,0.0,0.0,0.0,0.0,0.0,0.0,0.0,0.0,0.0,0.0,0.0,0.0,0.0,0.0,0.0,0.0,0.0,0.0,0.0,0.0,0.0,0.0,0.0,0.0,0.0,0.0,0.0,0.0,0.0,0.0,0.0,0.0,0.0,0.0,0.0,0.0,0.0,0.0,0.0,0.0,0.0,0.0,0.0,0.0,0.0,0.0,0.0,0.0,0.0,0.0,0.0,0.0,0.0,0.0,0.0,0.0,0.0,0.0,0.0,0.0,0.0,0.0,0.0,0.0,0.0,0.0,0.0,0.0,0.0,0.0,0.0,0.0,0.0,0.0,0.0,0.0,0.0,0.0,0.0,0.0,0.0,0.0,0.0,0.0,0.0,0.0,0.0,0.0,0.0,0.0,0.0,0.0,0.0,0.0,0.0,0.0,0.0,0.0,0.0,0.0,0.0,0.0,0.0,0.0,0.0,0.0,0.0,0.0,0.0,0.0,0.0,0.0,0.0,0.0,0.0,0.0,0.0,0.0,0.0,0.0,0.0,0.0,0.0,0.0,0.0,0.0,0.0,0.0,0.0,0.0,0.0,0.0,0.0,0.0,0.0,0.0,0.0,0.0,0.0,0.0,0.0,0.0,0.0,0.0,0.0,0.0,0.0,0.0,0.0,0.0,0.0,0.0,0.0,0.0,0.0,0.0,0.0,0.0,0.0,0.0,0.0,0.0,0.0,0.0,0.0,0.0,0.0,0.0,0.0,0.0,0.0,0.0,0.0,0.0,0.0,0.0,0.0,0.0,0.0,0.0,0.0,0.0,0.0,0.0,0.0,0.0,0.0,0.0,0.0,0.0,0.0,0.0,0.0,0.0,0.0,0.0,0.0,0.0,0.0,0.0,0.0,0.0,0.0,0.0,0.0,0.0,0.0,0.0,0.0,0.0,0.0,0.0,0.0,0.0,0.0,0.0,0.0,0.0,0.0,0.0,0.0,0.0,0.0,0.0,0.0,0.0,0.0,0.0,0.0,0.0,0.0,0.0,0.0,0.0,0.0,0.0,0.0,0.0,0.0,0.0,0.0,0.0,0.0,0.0,0.0,0.0,0.0,0.0,0.0,0.0,0.0,0.0,0.0,0.0,0.0,0.0,0.0,0.0,0.0,0.0,0.0,0.0,0.0,0.0,0.0,0.0,0.0,0.0,0.0,0.0,0.0,0.0,0.0,0.0,0.0,0.0,0.0,0.0,0.0,0.0,0.0,0.0,0.0,0.0,0.0,0.0,0.0,0.0,0.0,0.0,0.0,0.0,0.0,0.0,0.0,0.0,0.0,0.0,0.0,0.0,0.0,0.0,0.0,0.0,0.0,0.0,0.0,0.0,0.0,0.0,0.0,0.0,0.0,0.0,0.0,0.0,0.0,0.0,0.0,0.0,0.0,0.0,0.0,0.0,0.0,0.0,0.0,0.0,0.0,0.0,0.0,0.0,0.0,0.0,0.0,0.0,0.0,0.0,0.0,0.0,0.0,0.0,0.0,0.0,0.0,0.0,0.0,0.0,0.0,0.0,0.0,0.0,0.0,0.0,0.0,0.0,0.0,0.0,0.0,0.0,0.0,0.0,0.0,0.0,0.0,0.0,0.0,0.0,0.0,0.0,0.0,0.0,0.0,0.0,0.0,0.0,0.0,0.0,0.0,0.0,0.0,0.0,0.0,0.0,0.0,0.0,0.0,0.0,0.0,0.0,0.0,0.0,0.0,0.0,0.0,0.0,0.0,0.0,0.0,0.0,0.0,0.0,0.0,0.0,0.0,0.0,0.0,0.0,0.0,0.0,0.0,0.0,0.0,0.0,0.0,0.0,0.0,0.0,0.0,0.0,0.0,0.0,0.0,0.0,0.0,0.0,0.0,0.0,0.0,0.0,0.0,0.0,0.0,0.0,0.0,0.0,0.0,0.0,0.0,0.0,0.0,0.0,0.0,0.0,0.0,0.0,0.0,0.0,0.0,0.0,0.0,0.0,0.0,0.0,0.0,0.0,0.0,0.0,0.0,0.0,0.0,0.0,0.0,0.0,0.0,0.0,0.0,0.0,0.0,0.0,0.0,0.0,0.0,0.0,0.0,0.0,0.0,0.0,0.0,0.0,0.0,0.0,0.0,0.0,0.0,0.0,0.0,0.0,0.0,0.0,0.0,0.0,0.0,0.0,0.0,0.0,0.0,0.0,0.0,0.0,0.0,0.0,0.0,0.0,0.0,0.0,0.0,0.0,0.0,0.0,0.0,0.0,0.0,0.0,0.0,0.0,0.0,-0.3118,0.0,0.0,0.0,0.0,0.0,0.0,0.0,0.0,0.0,0.0,0.0,0.0,0.0,0.0,0.0,0.0,0.0,0.0,0.0,0.0,0.0,0.0,0.0,0.0,0.0,0.0,0.0,0.0,0.0,0.0,0.0,0.0,0.0,0.0,0.0,0.0,0.0,0.0,0.0,0.0,0.0,0.0,0.0,0.0,0.0,0.0,0.0,0.0,0.0,0.0,0.0,0.0,0.0,0.0,0.0,0.0,0.0,0.0,0.0,0.0,0.0,0.0,0.0,0.0,0.0,0.0,0.0,0.0,0.0,0.0,0.0,0.0,0.0,0.0,0.0,0.0,0.0,0.0,0.0,0.0,0.0,0.0,0.0,0.0,0.0,0.0,0.0,0.0,0.0,0.0,0.0,0.0,0.0,0.0,0.0,0.0,0.0,0.0,0.0,0.0,0.0,0.0,0.0,0.0,0.0,0.0,0.0,0.0,0.0,0.0,0.159,-0.058,-0.1841,-0.2729,-0.3352,0.0,0.0,0.0,0.0,0.0,0.0,0.0,0.0,0.0,0.0,0.0,0.0,0.0,0.0,0.0,0.0,0.0,0.0,0.0,0.0,0.0,0.0,0.0,0.0,0.0,0.0,0.0,0.0,0.0,0.0,0.0,0.0,0.0,0.0,0.0,0.0,0.0,0.0,0.0,0.0,0.0,0.0,0.0,0.0,0.0,0.0,0.0,0.0,0.0,0.0,0.0,0.0,0.0,0.0,0.0,0.0,0.0,0.0,0.0,0.0,0.0,0.0,0.0,0.0,0.0,0.0,0.0,0.0,0.0,0.0,0.0,0.0,0.0,0.0,0.0,0.0,0.0,0.0,0.0,0.0,0.0,0.0,0.0,0.0,0.0,0.0,0.0,0.0,0.0,0.0,0.0,0.0,0.0,0.0,0.0,0.0,0.0,0.0,0.0,0.0,0.0,0.0,0.0,0.0,0.0,0.0,0.0,0.0,0.0,0.0,0.0,0.0,-0.2113,-0.319,-0.3855,0.0,0.0,0.0,0.0,0.0,0.0,0.0,0.0,0.0,0.0,0.0,0.0,0.0,0.0,0.0,0.0,0.0,0.0,0.0,0.0,0.0,0.0,0.0,0.0,0.0,0.0,0.0,0.0,0.0,0.0,0.0,0.0,0.0,0.0,0.0,0.0,0.0,0.0,0.0,0.0,0.0,0.0,0.0,0.0,0.0,0.0,0.0,0.0,0.0,0.0,0.0,0.0,0.0,0.0,0.0,0.0,0.0,0.0,0.0,0.0,0.0,0.0,0.0,0.0,0.0,0.0,0.0,0.0,0.0,0.0,0.0,0.0,0.0,0.0,0.0,0.0,0.0,0.0,0.0,0.0,0.0,0.0,0.0,0.0,0.0,0.0,0.0,0.0,0.0,0.0,0.0,0.0,0.0,0.0,0.0,0.0,0.0,0.0,0.0,0.0,0.0,0.0,0.0,0.0,0.0,0.0,0.0,0.0,0.0,0.0,0.1648,-0.0608,-0.1687,0.0,-0.4624,0.0,0.0,0.0,0.0,0.0,0.0,0.0,0.0,0.0,0.0,0.0,0.0,0.0,0.0,0.0,0.0,0.0,0.0,0.0,0.0,0.0,0.0,0.0,0.0,0.0,0.0,0.0,0.0,0.0,0.0,0.0,0.0,0.0,0.0,0.0,0.0,0.0,0.0,0.0,0.0,0.0,0.0,0.0,0.0,0.0,0.0,0.0,0.0,0.0,0.0,0.0,0.0,0.0,0.0,0.0,0.0,0.0,0.0,0.0,0.0,0.0,0.0,0.0,0.0,0.0,0.0,0.0,0.0,0.0,0.0,0.0,0.0,0.0,0.0,0.0,0.0,0.0,0.0,0.0,0.0,0.0,0.0,0.0,0.0,0.0,0.0,0.0,0.0,0.0,0.0,0.0,0.0,0.0,0.0,0.0,0.0,0.0,0.0,0.0,0.0,0.0,0.0,0.0,0.0,0.0,0.0,0.0,0.0,0.0,0.0,0.168,-0.062,-0.2242,-0.4107,0.0,0.0,0.0,0.0,0.0,0.0,0.0,0.0,0.0,0.0,0.0,0.0,0.0,0.0,0.0,0.0,0.0,0.0,0.0,0.0,0.0,0.0,0.0,0.0,0.0,0.0,0.0,0.0,0.0,0.0,0.0,0.0,0.0,0.0,0.0,0.0,0.0,0.0,0.0,0.0,0.0,0.0,0.0,0.0,0.0,0.0,0.0,0.0,0.0,0.0,0.0,0.0,0.0,0.0,0.0,0.0,0.0,0.0,0.0,0.0,0.0,0.0,0.0,0.0,0.0,0.0,0.0,0.0,0.0,0.0,0.0,0.0,0.0,0.0,0.0,0.0,0.0,0.0,0.0,0.0,0.0,0.0,0.0,0.0,0.0,0.0,0.0,0.0,0.0,0.0,0.0,0.0,0.0,0.0,0.0,0.0,0.0,0.0,0.0,0.0,0.0,0.0,0.0,0.0,0.0,0.0,0.0,0.0,0.0,0.0,0.292,0.1517,-0.133,-0.3269,-0.5236,-0.7237,0.0,0.0,0.0,0.0,0.0,0.0,0.0,0.0,0.0,0.0,0.0,0.0,0.0,0.0,0.0,0.0,0.0,0.0,0.0,0.0,0.0,0.0,0.0,0.0,0.0,0.0,0.0,0.0,0.0,0.0,0.0,0.0,0.0,0.0,0.0,0.0,0.0,0.0,0.0,0.0,0.0,0.0,0.0,0.0,0.0,0.0,0.0,0.0,0.0,0.0,0.0,0.0,0.0,0.0,0.0,0.0,0.0,0.0,0.0,0.0,0.0,0.0,0.0,0.0,0.0,0.0,0.0,0.0,0.0,0.0,0.0,0.0,0.0,0.0,0.0,0.0,0.0,0.0,0.0,0.0,0.0,0.0,0.0,0.0,0.0,0.0,0.0,0.0,0.0,0.0,0.0,0.0,0.0,0.0,0.0,0.0,0.0,0.0,0.0,0.0,0.0,0.0,0.0,0.0,0.0,0.0,0.0,0.0,0.331,0.294,0.0885,-0.3128,-0.4669,-0.6019,0.0,0.0,0.0,0.0,0.0,0.0,0.0,0.0,0.0,0.0,0.0,0.0,0.0,0.0,0.0,0.0,0.0,0.0,0.0,0.0,0.0,0.0,0.0,0.0,0.0,0.0,0.0,0.0,0.0,0.0,0.0,0.0,0.0,0.0,0.0,0.0,0.0,0.0,0.0,0.0,0.0,0.0,0.0,0.0,0.0,0.0,0.0,0.0,0.0,0.0,0.0,0.0,0.0,0.0,0.0,0.0,0.0,0.0,0.0,0.0,0.0,0.0,0.0,0.0,0.0,0.0,0.0,0.0,0.0,0.0,0.0,0.0,0.0,0.0,0.0,0.0,0.0,0.0,0.0,0.0,0.0,0.0,0.0,0.0,0.0,0.0,0.0,0.0,0.0,0.0,0.0,0.0,0.0,0.0,0.0,0.0,0.0,0.0,0.0,0.0,0.0,0.0,0.0,0.0,0.0,0.0,0.0,0.0,0.0,0.3074,0.0852,-0.1336,-0.3485,-0.5358,-0.6973,0.0,0.0,0.0,0.0,0.0,0.0,0.0,0.0,0.0,0.0,0.0,0.0,0.0,0.0,0.0,0.0,0.0,0.0,0.0,0.0,0.0,0.0,0.0,0.0,0.0,0.0,0.0,0.0,0.0,0.0,0.0,0.0,0.0,0.0,0.0,0.0,0.0,0.0,0.0,0.0,0.0,0.0,0.0,0.0,0.0,0.0,0.0,0.0,0.0,0.0,0.0,0.0,0.0,0.0,0.0,0.0,0.0,0.0,0.0,0.0,0.0,0.0,0.0,0.0,0.0,0.0,0.0,0.0,0.0,0.0,0.0,0.0,0.0,0.0,0.0,0.0,0.0,0.0,0.0,0.0,0.0,0.0,0.0,0.0,0.0,0.0,0.0,0.0,0.0,0.0,0.0,0.0,0.0,0.0,0.0,0.0,0.0,0.0,0.0,0.0,0.0,0.0,0.0,0.0,0.0,0.0,0.0,0.0,0.0,0.2938,0.0,-0.2855,-0.3525,-0.5925,-0.7729,0.0,0.0,0.0,0.0,0.0,0.0,0.0,0.0,0.0,0.0,0.0,0.0,0.0,0.0,0.0,0.0,0.0,0.0,0.0,0.0,0.0,0.0,0.0,0.0,0.0,0.0,0.0,0.0,0.0,0.0,0.0,0.0,0.0,0.0,0.0,0.0,0.0,0.0,0.0,0.0,0.0,0.0,0.0,0.0,0.0,0.0,0.0,0.0,0.0,0.0,0.0,0.0,0.0,0.0,0.0,0.0,0.0,0.0,0.0,0.0,0.0,0.0,0.0,0.0,0.0,0.0,0.0,0.0,0.0,0.0,0.0,0.0,0.0,0.0,0.0,0.0,0.0,0.0,0.0,0.0,0.0,0.0,0.0,0.0,0.0,0.0,0.0,0.0,0.0,0.0,0.0,0.0,0.0,0.0,0.0,0.0,0.0,0.0,0.0,0.0,0.0,0.0,0.0,0.0,0.0,0.0,0.0,0.0,0.6168,0.2901,-0.1311,-0.3486,-0.336,-0.6458,-0.8305,0.0,0.0,0.0,0.0,0.0,0.0,0.0,0.0,0.0,0.0,0.0,0.0,0.0,0.0,0.0,0.0,0.0,0.0,0.0,0.0,0.0,0.0,0.0,0.0,0.0,0.0,0.0,0.0,0.0,0.0,0.0,0.0,0.0,0.0,0.0,0.0,0.0,0.0,0.0,0.0,0.0,0.0,0.0,0.0,0.0,0.0,0.0,0.0,0.0,0.0,0.0,0.0,0.0,0.0,0.0,0.0,0.0,0.0,0.0,0.0,0.0,0.0,0.0,0.0,0.0,0.0,0.0,0.0,0.0,0.0,0.0,0.0,0.0,0.0,0.0,0.0,0.0,0.0,0.0,0.0,0.0,0.0,0.0,0.0,0.0,0.0,0.0,0.0,0.0,0.0,0.0,0.0,0.0,0.0,0.0,0.0,0.0,0.0,0.0,0.0,0.0,0.0,0.0,0.0,0.0,0.0,0.0,0.0,0.0,0.2859,-0.1434,-0.3676,-0.3768,-0.7377,-0.9349,0.0,0.0,0.0,0.0,0.0,0.0,0.0,0.0,0.0,0.0,0.0,0.0,0.0,0.0,0.0,0.0,0.0,0.0,0.0,0.0,0.0,0.0,0.0,0.0,0.0,0.0,0.0,0.0,0.0,0.0,0.0,0.0,0.0,0.0,0.0,0.0,0.0,0.0,0.0,0.0,0.0,0.0,0.0,0.0,0.0,0.0,0.0,0.0,0.0,0.0,0.0,0.0,0.0,0.0,0.0,0.0,0.0,0.0,0.0,0.0,0.0,0.0,0.0,0.0,0.0,0.0,0.0,0.0,0.0,0.0,0.0,0.0,0.0,0.0,0.0,0.0,0.0,0.0,0.0,0.0,0.0,0.0,0.0,0.0,0.0,0.0,0.0,0.0,0.0,0.0,0.0,0.0,0.0,0.0,0.0,0.0,0.0,0.0,0.0,0.0,0.0,0.0,0.0,0.0,0.0,0.0,0.0,0.0,0.0,0.2042,-0.2537,-0.4852,-0.451,-0.8702,-1.0447,-0.9521,0.0,0.0,0.0,0.0,0.0,0.0,0.0,0.0,0.0,0.0,0.0,0.0,0.0,0.0,0.0,0.0,0.0,0.0,0.0,0.0,0.0,0.0,0.0,0.0,0.0,0.0,0.0,0.0,0.0,0.0,0.0,0.0,0.0,0.0,0.0,0.0,0.0,0.0,0.0,0.0,0.0,0.0,0.0,0.0,0.0,0.0,0.0,0.0,0.0,0.0,0.0,0.0,0.0,0.0,0.0,0.0,0.0,0.0,0.0,0.0,0.0,0.0,0.0,0.0,0.0,0.0,0.0,0.0,0.0,0.0,0.0,0.0,0.0,0.0,0.0,0.0,0.0,0.0,0.0,0.0,0.0,0.0,0.0,0.0,0.0,0.0,0.0,0.0,0.0,0.0,0.0,0.0,0.0,0.0,0.0,0.0,0.0,0.0,0.0,0.0,0.0,0.0,0.0,0.0,0.0,0.0,0.0,0.0,0.0743,-0.4478,-0.6824,-0.6086,-1.0232,-1.1605,0.0,0.0,0.0,0.0,0.0,0.0,0.0,0.0,0.0,0.0,0.0,0.0,0.0,0.0,0.0,0.0,0.0,0.0,0.0,0.0,0.0,0.0,0.0,0.0,0.0,0.0,0.0,0.0,0.0,0.0,0.0,0.0,0.0,0.0,0.0,0.0,0.0,0.0,0.0,0.0,0.0,0.0,0.0,0.0,0.0,0.0,0.0,0.0,0.0,0.0,0.0,0.0,0.0,0.0,0.0,0.0,0.0,0.0,0.0,0.0,0.0,0.0,0.0,0.0,0.0,0.0,0.0,0.0,0.0,0.0,0.0,0.0,0.0,0.0,0.0,0.0,0.0,0.0,0.0,0.0,0.0,0.0,0.0,0.0,0.0,0.0,0.0,0.0,0.0,0.0,0.0,0.0,0.0,0.0,0.0,0.0,0.0,0.0,0.0,0.0,0.0,0.0,0.0,0.0,0.0,0.0,0.0,0.0,0.0,-0.1902,-0.71,-0.9576,-0.9231,-1.1784,-1.3121,0.0,0.0,0.0,0.0,0.0,0.0,0.0,0.0,0.0,0.0,0.0,0.0,0.0,0.0,0.0,0.0,0.0,0.0,0.0,0.0,0.0,0.0,0.0,0.0,0.0,0.0,0.0,0.0,0.0,0.0,0.0,0.0,0.0,0.0,0.0,0.0,0.0,0.0,0.0,0.0,0.0,0.0,0.0,0.0,0.0,0.0,0.0,0.0,0.0,0.0,0.0,0.0,0.0,0.0,0.0,0.0,0.0,0.0,0.0,0.0,0.0,0.0,0.0,0.0,0.0,0.0,0.0,0.0,0.0,0.0,0.0,0.0,0.0,0.0,0.0,0.0,0.0,0.0,0.0,0.0,0.0,0.0,0.0,0.0,0.0,0.0,0.0,0.0,0.0,0.0,0.0,0.0,0.0,0.0,0.0,0.0,0.0,0.0,0.0,0.0,0.0,0.0,0.0,0.0,0.0,0.0,0.0,0.0,0.1298,-0.2052,-0.7824,-1.1592,-1.3214,-1.4231,-1.4684,0.0,0.0,0.0,0.0,0.0,0.0,0.0,0.0,0.0,0.0,0.0,0.0,0.0,0.0,0.0,0.0,0.0,0.0,0.0,0.0,0.0,0.0,0.0,0.0,0.0,0.0,0.0,0.0,0.0,0.0,0.0,0.0,0.0,0.0,0.0,0.0,0.0,0.0,0.0,0.0,0.0,0.0,0.0,0.0,0.0,0.0,0.0,0.0,0.0,0.0,0.0,0.0,0.0,0.0,0.0,0.0,0.0,0.0,0.0,0.0,0.0,0.0,0.0,0.0,0.0,0.0,0.0,0.0,0.0,0.0,0.0,0.0,0.0,0.0,0.0,0.0,0.0,0.0,0.0,0.0,0.0,0.0,0.0,0.0,0.0,0.0,0.0,0.0,0.0,0.0,0.0,0.0,0.0,0.0,0.0,0.0,0.0,0.0,0.0,0.0,0.0,0.0,0.0,0.0,0.0,0.0,0.0,0.0,0.1217,-0.1146,-0.7459,-1.2812,-1.6895,-1.6774,-1.6209,0.0,0.0,0.0,0.0,0.0,0.0,0.0,0.0,0.0,0.0,0.0,0.0,0.0,0.0,0.0,0.0,0.0,0.0,0.0,0.0,0.0,0.0,0.0,0.0,0.0,0.0,0.0,0.0,0.0,0.0,0.0,0.0,0.0,0.0,0.0,0.0,0.0,0.0,0.0,0.0,0.0,0.0,0.0,0.0,0.0,0.0,0.0,0.0,0.0,0.0,0.0,0.0,0.0,0.0,0.0,0.0,0.0,0.0,0.0,0.0,0.0,0.0,0.0,0.0,0.0,0.0,0.0,0.0,0.0,0.0,0.0,0.0,0.0,0.0,0.0,0.0,0.0,0.0,0.0,0.0,0.0,0.0,0.0,0.0,0.0,0.0,0.0,0.0,0.0,0.0,0.0,0.0,0.0,0.0,0.0,0.0,0.0,0.0,0.0,0.0,0.0,0.0,0.0,0.0,0.0,0.0,0.0,0.0,0.0951,-0.2611,-0.7358,-1.2115,-1.6678,-1.631,-1.6778,0.0,0.0,0.0,0.0,0.0,0.0,0.0,0.0,0.0,0.0,0.0,0.0,0.0,0.0,0.0,0.0,0.0,0.0,0.0,0.0,0.0,0.0,0.0,0.0,0.0,0.0,0.0,0.0,0.0,0.0,0.0,0.0,0.0,0.0,0.0,0.0,0.0,0.0,0.0,0.0,0.0,0.0,0.0,0.0,0.0,0.0,0.0,0.0,-0.1534,0.0,0.0,0.0,0.0,0.0,0.0,0.0,0.0,0.0,0.0,0.0,0.0,0.0,0.0,0.0,0.0,0.0,0.0,0.0,0.0,0.0,0.0,0.0,0.0,0.0,0.0,0.0,0.0,0.0,0.0,0.0,0.0,0.0,0.0,0.0,0.0,0.0,0.0,0.0,0.0,0.0,0.0,0.0,0.0,0.0,0.0,0.0,0.0,0.0,0.0,0.0,0.0,0.0,0.0,0.0,0.0,0.0,0.0,0.0,0.1184,-0.1838,-0.6489,-1.1084,-1.5416,-1.599,-1.7032,0.0,0.0,0.0,0.0,0.0,0.0,0.0,0.0,0.0,0.0,0.0,0.0,0.0,0.0,0.0,0.0,0.0,0.0,0.0,0.0,0.0,0.0,0.0,0.0,0.0,0.0,0.0,0.0,0.0,0.0,0.0,0.0,0.0,0.0,0.0,0.0,0.0,0.0,0.0,0.0,0.0,0.0,0.0,0.0,0.0,0.0,0.0,0.0,0.0,0.0,0.0,0.0,0.0,0.0,0.0,0.0,0.0,0.0,0.0,0.0,0.0,0.0,0.0,0.0,0.0,0.0,0.0,0.0,0.0,0.0,0.0,0.0,0.0,0.0,0.0,0.0,0.0,0.0,0.0,0.0,0.0,0.0,0.0,0.0,0.0,0.0,0.0,0.0,0.0,0.0,0.0,0.0,0.0,0.0,0.0,0.0,0.0,0.0,0.0,0.0,0.0,0.0,0.0,0.0,0.0,0.0,0.0,0.4919,0.1804,-0.0529,-0.5194,-0.9692,-1.3848,-1.5547,-1.6588,-1.7023,0.0,0.0,0.0,0.0,0.0,0.0,0.0,0.0,0.0,0.0,0.0,0.0,0.0,0.0,0.0,0.0,0.0,0.0,0.0,0.0,0.0,0.0,0.0,0.0,0.0,0.0,0.0,0.0,0.0,0.0,0.0,0.0,0.0,0.0,0.0,0.0,0.0,0.0,1.4421,1.1334,0.0,0.0,0.0,0.0,0.0,0.0,0.0,0.0,-0.0798,0.0,0.0,0.0,0.0,0.0,0.0,0.0,0.0,0.0,0.0,0.0,0.0,0.0,0.0,0.0,0.0,0.0,0.0,0.0,0.0,0.0,0.0,0.0,0.0,0.0,0.0,0.0,0.0,0.0,0.0,0.0,0.0,0.0,0.0,0.0,0.0,0.0,0.0,0.0,0.0,0.0,0.0,0.0,0.0,0.0,0.0,0.0,0.0,0.0,0.0,0.0,0.0,0.0,0.0,0.0,0.0,0.8336,0.5867,0.2823,-0.0836,-0.3594,-0.7158,-1.1567,-1.3829,-1.4417,-1.3399,0.0,0.0,0.0,0.0,0.0,0.0,0.0,0.0,0.0,0.0,0.0,0.0,0.0,0.0,0.0,0.0,0.0,0.0,0.0,0.0,0.0,0.0,0.0,0.0,0.0,0.0,0.0,0.0,0.0,0.0,0.0,0.0,0.0,0.0,0.0,0.0,0.0,0.0,0.0,1.2135,0.9988,0.0,0.0,0.0,0.0,0.0,0.0,0.0,0.0,-0.0334,0.0,0.0,0.0,0.0,0.0,0.0,0.0,0.0,0.0,0.0,0.0,0.0,0.0,0.0,0.0,0.0,0.0,0.0,0.0,0.0,0.0,0.0,0.0,0.0,0.0,0.0,0.0,0.0,0.0,0.0,0.0,0.0,0.0,0.0,0.0,0.0,0.0,0.0,0.0,0.0,0.0,0.0,0.0,0.0,0.0,0.0,0.0,0.0,0.0,0.0,0.0,0.0,0.0,0.0,0.0,0.818,0.5831,0.3135,0.0237,-0.2152,-0.5077,-0.8543,-1.1274,-1.2077,0.0,0.0,0.0,0.0,0.0,0.0,0.0,0.0,0.0,0.0,0.0,0.0,0.0,0.0,0.0,0.0,0.0,0.0,0.0,0.0,0.0,0.0,0.0,0.0,0.0,0.0,0.0,0.0,0.0,0.0,0.0,0.0,0.0,0.0,0.0,0.0,0.0,0.0,0.0,0.0,1.2194,0.9837,0.8559,0.0,0.0,0.0,0.0,0.0,0.0,0.2488,0.1384,0.0,0.0,0.0,0.0,0.0,0.0,0.0,0.0,0.0,0.0,0.0,0.0,0.0,0.0,0.0,0.0,0.0,0.0,0.0,0.0,0.0,0.0,0.0,0.0,0.0,0.0,0.0,0.0,0.0,0.0,0.0,0.0,0.0,0.0,0.0,0.0,0.0,0.0,0.0,0.0,0.0,0.0,0.0,0.0,0.0,0.0,0.0,0.0,0.0,0.0,0.0,0.0,0.0,0.0,0.0,0.8062,0.585,0.366,0.1518,-0.0643,-0.2842,-0.5225,-0.7711,-0.8777,0.0,0.0,0.0,0.0,0.0,0.0,0.0,0.0,0.0,0.0,0.0,0.0,0.0,0.0,0.0,0.0,0.0,0.0,0.0,0.0,0.0,0.0,0.0,0.0,0.0,0.0,0.0,0.0,0.0,0.0,0.0,0.0,0.0,0.0,0.0,0.0,0.0,0.0,0.0,0.0,0.0,0.9857,0.9065,0.8247,0.0,0.0,0.0,0.0,0.5303,0.4216,0.0,0.0,0.0,0.0,0.0,0.0,0.0,0.0,0.0,0.0,0.0,0.0,0.0,0.0,0.0,0.0,0.0,0.0,0.0,0.0,0.0,0.0,0.0,0.0,0.0,0.0,0.0,0.0,0.0,0.0,0.0,0.0,0.0,0.0,0.0,0.0,0.0,0.0,0.0,0.0,0.0,0.0,0.0,0.0,0.0,0.0,0.0,0.0,0.0,0.0,0.0,0.0,0.0,0.0,0.0,0.0,0.7559,0.6819,0.5074,0.2238,0.1266,0.0058,-0.162,-0.2256,-0.3178,0.0,0.0,0.0,0.0,0.0,0.0,0.0,0.0,0.0,0.0,0.0,0.0,0.0,0.0,0.0,0.0,0.0,0.0,0.0,0.0,0.0,0.0,0.0,0.0,0.0,0.0,0.0,0.0,0.0,0.0,0.0,0.0,0.0,0.0,0.0,0.0,0.0,0.0,0.0,0.0,0.0,1.1193,0.9521,0.8735,0.8031,0.0,0.0,0.727,0.6861,0.6007,0.0,0.0,0.0,0.0,0.0,0.0,0.0,0.0,0.0,0.0,0.0,0.0,0.0,0.0,0.0,0.0,0.0,0.0,0.0,0.0,0.0,0.0,0.0,0.0,0.0,0.0,0.0,0.0,0.0,0.0,0.0,0.0,0.0,0.0,0.0,0.0,0.0,0.0,0.0,0.0,0.0,0.0,0.0,0.0,0.0,0.0,0.0,0.0,0.0,0.0,0.0,0.0,0.0,0.0,0.0,1.1101,0.7918,0.6907,0.5383,0.3234,0.2568,0.1861,0.0979,0.0478,-0.0609,0.0,0.0,0.0,0.0,0.0,0.0,0.0,0.0,0.0,0.0,0.0,0.0,0.0,0.0,0.0,0.0,0.0,0.0,0.0,0.0,0.0,0.0,0.0,0.0,0.0,0.0,0.0,0.0,0.0,0.0,0.0,0.0,0.0,0.0,0.0,0.0,0.0,0.0,0.0,0.0,0.0,0.0,0.9672,0.9533,0.0,0.0,0.0,0.9385,0.8454,0.0,0.0,0.0,0.0,0.0,0.0,0.0,0.0,0.0,0.0,0.0,0.0,0.0,0.0,0.0,0.0,0.0,0.0,0.0,0.0,0.0,0.0,0.0,0.0,0.0,0.0,0.0,0.0,0.0,0.0,0.0,0.0,0.0,0.0,0.0,0.0,0.0,0.0,0.0,0.0,0.0,0.0,0.0,0.0,0.0,0.0,0.0,0.0,0.0,0.0,0.0,0.0,0.0,0.0,0.0,0.0,0.0,0.8156,0.6972,0.5692,0.4152,0.3804,0.3556,0.34,0.2942,0.0,0.0,0.0,0.0,0.0,0.0,0.0,0.0,0.0,0.0,0.0,0.0,0.0,0.0,0.0,0.0,0.0,0.0,0.0,0.0,0.0,0.0,0.0,0.0,0.0,0.0,0.0,0.9352,0.0,0.0,0.0,0.0,0.0,0.0,0.0,0.0,0.0,0.0,0.0,0.0,0.0,0.0,1.1864,1.0549,1.0842,1.0704,0.0,0.0,1.1305,0.9859,0.9887,0.9563,0.0,0.0,0.0,0.0,0.0,0.0,0.0,0.0,0.0,0.0,0.0,0.0,0.0,0.0,0.0,0.0,0.0,0.0,0.0,0.0,0.0,0.0,0.0,0.0,0.0,0.0,0.0,0.0,0.0,0.0,0.0,0.0,0.0,0.0,0.0,0.0,0.0,0.0,0.0,0.0,0.0,0.0,0.0,0.0,0.0,0.0,0.0,0.0,0.0,0.0,0.0,0.0,0.0,0.0,1.112,0.7948,0.725,0.6214,0.4798,0.5202,0.5614,0.5957,0.6187,0.566,0.0,0.0,0.0,0.0,0.0,0.0,0.0,0.0,0.0,0.0,0.0,0.0,0.0,0.0,0.0,0.0,0.0,0.0,0.0,0.0,0.0,0.0,0.0,0.0,0.0,0.0,0.0,0.0,0.0,0.0,0.0,0.0,0.0,0.0,0.0,0.0,0.0,0.0,0.0,0.0,0.0,1.4302,1.27,1.2995,1.2745,0.0,1.2078,1.2583,1.0796,1.1632,1.158,0.9054,0.0,0.0,0.0,0.0,0.0,0.0,0.0,0.0,0.0,0.0,0.0,0.0,0.0,0.0,0.0,0.0,0.0,0.0,0.0,0.0,0.0,0.0,0.0,0.0,0.0,0.0,0.0,0.0,0.0,0.0,0.0,0.0,0.0,0.0,0.0,0.0,0.0,0.0,0.0,0.0,0.0,0.0,0.0,0.0,0.0,0.0,0.0,0.0,0.0,0.0,0.0,0.0,0.0,1.1425,0.8393,0.783,0.6883,0.5641,0.619,0.68,0.7404,0.8562,0.8191,0.0,0.0,0.0,0.0,0.0,0.0,0.0,0.0,0.0,0.0,0.0,0.0,0.0,0.0,0.0,0.0,0.0,0.0,0.0,0.0,0.0,0.0,0.0,0.0,0.0,0.0,0.0,0.0,1.2093,1.2802,1.415,0.0,0.0,0.0,0.0,0.0,0.0,0.0,0.0,0.0,0.0,1.6218,1.443,1.4691,0.0,0.0,1.4304,1.4397,1.2808,1.3287,1.3261,1.1527,1.1668,0.0,0.0,0.0,0.0,0.0,0.0,0.0,0.0,0.0,0.0,0.0,0.0,0.0,0.0,0.0,0.0,0.0,0.0,0.0,0.0,0.0,0.0,0.0,0.0,0.0,0.0,0.0,0.0,0.0,0.0,0.0,0.0,0.0,0.0,0.0,0.0,0.0,0.0,0.0,0.0,0.0,0.0,0.0,0.0,0.0,0.0,0.0,0.0,0.0,0.0,0.0,0.0,1.1887,0.9275,0.871,0.7782,0.6483,0.7305,0.816,0.9008,1.0519,1.0526,0.0,0.0,0.0,0.0,0.0,0.0,0.0,0.0,0.0,0.0,0.0,0.0,0.0,0.0,0.0,0.0,0.0,0.0,0.0,0.0,0.0,0.0,0.0,0.0,0.0,0.0,0.0,0.0,1.3281,1.4338,1.5612,0.0,0.0,0.0,0.0,0.0,0.0,0.0,0.0,0.0,0.0,1.7616,1.5917,1.6219,1.6206,1.4986,1.5693,1.5917,1.4461,1.4724,1.4948,1.4338,0.0,0.0,0.0,0.0,0.0,0.0,0.0,0.0,0.0,0.0,0.0,0.0,0.0,0.0,0.0,0.0,0.0,0.0,0.0,0.0,0.0,0.0,0.0,0.0,0.0,0.0,0.0,0.9832,0.0,0.0,1.0929,0.0,0.0,0.0,0.0,0.0,0.0,0.0,0.0,0.0,0.0,0.0,0.0,0.0,0.0,0.0,0.0,0.0,0.0,0.0,0.0,0.0,0.0,1.249,1.0481,0.9941,0.8961,0.7555,0.8582,0.9701,1.0903,1.2144,1.2884,1.3005,0.0,0.0,0.0,0.0,0.0,0.0,0.0,0.0,0.0,0.0,0.0,0.0,0.0,0.0,0.0,0.0,0.0,0.0,0.0,0.0,0.0,0.0,0.0,0.0,0.0,0.0,1.237,1.3927,1.5327,0.0,0.0,0.0,0.0,0.0,0.0,0.0,0.0,0.0,1.8126,1.8653,1.8449,1.7174,1.7773,1.7355,1.4627,1.6044,1.6892,1.5548,1.5904,1.6611,0.0,0.0,0.0,0.0,0.0,0.0,0.0,0.0,0.0,0.0,0.0,0.0,0.0,0.0,0.0,0.0,0.0,0.0,0.0,0.0,0.0,0.0,0.0,0.0,0.0,0.0,0.0,1.3572,1.402,0.0,0.0,0.0,0.0,0.0,0.0,0.0,0.0,0.0,0.0,0.0,1.8984,1.9118,0.0,0.0,0.0,0.0,0.0,0.0,0.0,0.0,0.0,0.0,0.0,0.0,1.3195,1.1382,1.0868,1.0143,0.9176,0.9656,1.0463,1.1783,1.3976,1.5334,1.5582,0.0,0.0,0.0,0.0,0.0,0.0,0.0,0.0,0.0,0.0,0.0,0.0,0.0,0.0,0.0,0.0,0.0,0.0,0.0,0.0,0.0,0.0,0.0,0.0,0.0,1.3371,0.0,0.0,0.0,0.0,0.0,0.0,0.0,0.0,0.0,0.0,1.8701,1.9389,1.9392,1.9882,1.9892,1.8901,1.8879,1.8621,0.0,0.0,0.0,0.0,0.0,0.0,0.0,0.0,0.0,0.0,0.0,0.0,0.0,0.0,1.749,1.6346,1.6109,1.5866,1.5185,0.0,0.0,0.0,0.0,0.0,0.0,0.0,0.0,0.0,0.0,0.0,0.0,0.0,0.0,1.6186,1.6087,1.5738,0.0,0.0,0.0,0.0,0.0,0.0,0.0,0.0,2.0659,2.1271,2.1399,2.1568,2.1441,2.1005,2.0175,1.8035,0.0,0.0,0.0,0.0,0.0,0.0,0.0,0.0,1.4053,1.252,1.2268,1.1747,1.0874,1.0833,1.1485,1.2854,1.5809,1.7549,1.8004,1.4867,1.2693,0.0,0.0,0.0,0.0,0.0,0.0,0.0,0.0,0.0,0.0,0.0,0.0,0.0,0.0,0.0,0.0,0.0,0.0,0.0,0.0,0.0,0.0,0.0,1.4805,0.0,0.0,0.0,0.0,0.0,0.0,0.0,0.0,0.0,1.9554,2.0296,2.0942,2.0717,2.1296,2.1214,1.9597,0.0,0.0,0.0,0.0,0.0,0.0,0.0,1.9102,1.9506,1.9165,1.9343,2.0996,2.1978,2.2413,2.2059,0.0,0.0,1.9316,1.8775,1.8421,1.7565,1.6765,1.6132,1.5913,1.5764,1.574,0.0,0.0,0.0,0.0,1.7443,0.0,0.0,0.0,1.8189,1.7603,0.0,1.773,0.0,0.0,0.0,0.0,1.7783,1.9309,0.0,0.0,2.4193,2.5091,2.4363,2.4287,2.3715,2.2712,2.1556,2.0749,2.0229,1.8127,0.0,0.0,0.0,0.0,0.0,0.0,1.5211,1.4158,1.4228,1.3658,1.2639,1.2287,1.2831,1.4337,1.7555,1.968,2.0363,1.8731,1.6907,1.506,1.2063,0.0,0.0,0.0,0.0,0.0,0.0,0.0,0.0,0.0,0.0,0.0,0.0,0.0,0.0,0.0,0.0,0.0,0.0,0.0,0.0,1.5621,0.0,0.0,0.0,0.0,0.0,0.0,0.0,0.0,0.0,2.2672,2.1916,2.1431,2.1355,2.2034,0.0,0.0,0.0,0.0,2.1099,1.8147,1.8629,1.9291,1.9059,1.9972,2.1271,2.2826,0.0,0.0,2.4089,2.4436,2.4467,2.4023,2.4611,2.4293,2.1341,2.0685,2.0216,1.9537,1.9188,1.8745,1.7978,1.7694,1.7662,2.4972,0.0,0.0,0.0,0.0,2.0992,2.1433,2.1916,2.2669,2.2678,2.2148,2.2105,0.0,0.0,0.0,0.0,0.0,0.0,2.1752,2.2984,2.4144,2.5002,2.5591,2.5781,2.5759,2.5647,2.5454,2.493,2.4075,2.2917,2.0702,1.7548,0.0,0.0,0.0,0.0,1.7509,1.7748,1.7197,1.6541,1.5741,1.4673,1.5333,1.7828,2.0195,2.2397,2.4229,2.267,2.11,1.9677,1.6088,0.0,0.0,0.0,0.0,0.0,0.0,0.0,0.0,0.0,0.0,0.0,0.0,0.0,0.0,0.0,0.0,0.0,0.0,0.0,1.6865,1.7905,1.8364,0.0,0.0,0.0,0.0,0.0,0.0,0.0,0.0,0.0,2.4505,2.3442,2.2781,0.0,0.0,2.1959,2.1032,2.1643,2.2083,2.1976,2.2131,0.0,2.3612,2.3263,2.3165,2.3963,2.4891,2.5449,2.5189,2.6256,2.7005,2.6331,2.633,2.5956,2.4822,2.3784,2.2822,2.1756,2.1032,2.035,1.9657,1.9258,1.906,2.9364,2.7583,2.5396,2.4284,2.3914,2.4187,2.4562,2.4985,2.5625,2.5578,2.4994,2.479,2.3778,2.2197,2.1321,0.0,0.0,0.0,2.3169,2.4726,2.5233,2.5852,2.6542,2.6907,2.7194,2.7336,2.7326,2.7086,2.6619,2.5503,2.3958,2.1869,0.0,1.8461,1.9042,1.9406,1.9819,2.0152,1.9709,1.9117,1.8394,1.6998,1.7327,1.9632,2.146,2.3435,2.5529,2.5012,2.4074,2.2872,1.9576,1.6925,0.0,0.0,0.0,0.0,0.0,0.0,0.0,0.0,0.0,0.0,0.0,1.8355,1.6735,0.0,0.0,0.0,1.9656,1.9392,1.9663,2.0229,0.0,0.0,0.0,0.0,0.0,0.0,0.0,2.4259,2.6084,2.7281,2.6832,2.6119,2.5384,2.4747,2.4542,2.4132,2.3301,0.0,2.4502,2.4499,2.4107,2.4123,2.4995,2.4536,2.4322,2.5081,2.5908,2.6415,2.6055,2.6936,2.7512,2.7147,2.6946,2.6716,2.6205,2.5441,2.4503,2.3156,2.2379,2.1686,2.0954,2.0542,2.0262,3.2797,3.2438,2.8493,2.7076,2.7397,2.7218,2.7172,2.727,2.7444,2.6883,2.5853,2.6188,2.5138,2.2992,2.1719,0.0,2.3711,2.3814,2.4841,2.6536,2.7084,2.7373,2.7363,2.7893,2.8128,2.8139,2.7882,2.7861,2.7978,2.6474,2.5946,2.6344,2.3281,2.1235,2.0346,2.1485,2.198,2.1675,2.1811,2.1425,2.0498,1.9139,1.9024,2.0411,2.1797,2.3472,2.5335,2.6218,2.6122,2.4996,2.2617,2.0664,1.9177,0.0,0.0,0.0,0.0,0.0,0.0,0.0,0.0,0.0,0.0,0.0,0.0,0.0,0.0,2.2611,2.261,0.0,2.2931,2.2806,0.0,0.0,0.0,2.402,2.5353,2.6156,2.6718,2.6953,0.0,0.0,2.8918,2.8945,2.8616,2.7692,2.8089,2.7746,2.5799,2.6993,2.7619,2.6204,2.5257,2.4749,2.5194,2.5218,2.5595,2.6484,2.6643,2.6806,2.6783,2.6822,2.6923,2.6959,2.6937,2.6792,2.6323,2.6067,2.5471,2.422,2.3493,2.2866,2.2084,2.18,2.148,3.3458,3.3365,3.2554,3.1507,3.0245,2.9828,2.9552,2.9429,2.9488,2.9342,2.9015,2.8219,2.6931,2.5392,2.5041,2.4766,2.4636,2.5651,2.6298,2.6662,2.8006,2.8631,2.8699,2.9141,2.9349,2.936,2.9347,2.9169,2.8824,2.8099,2.6756,2.497,2.4744,2.4018,2.2783,2.2575,2.2906,2.375,2.3145,2.2645,2.2284,2.148,2.1457,2.2174,2.3288,2.5024,2.7276,2.7851,2.7914,2.741,2.5689,2.3855,2.1943,1.8559,0.0,0.0,0.0,0.0,0.0,0.0,0.0,0.0,0.0,2.0033,1.765,0.0,2.2639,0.0,2.4127,2.617,2.7506,2.6912,0.0,0.0,2.6835,2.6804,2.7767,2.9302,2.9646,2.7999,2.9624,3.0665,3.0099,3.029,3.0788,3.1563,2.9579,2.7915,2.7536,2.823,2.8736,2.8611,2.8618,2.8848,2.8684,2.8887,2.8875,2.9302,2.8875,2.855,2.855,2.8089,2.7742,2.7729,2.7937,2.7833,2.7237,2.7314,2.7125,2.6295,2.5075,2.3929,2.3486,2.3364,2.3161,3.4078,3.4425,3.4565,3.42,3.3381,3.2148,3.1378,3.1009,3.1018,3.0847,3.0509,2.9136,2.7853,2.6712,2.6513,2.6471,2.6529,2.7304,2.7955,2.8444,2.9568,3.0068,3.008,3.0543,3.0666,3.0464,3.0408,3.0236,2.9915,2.9567,2.8674,2.736,2.7909,2.7329,2.5601,2.3736,2.3073,2.3574,2.3991,2.4495,2.5057,2.4334,2.3565,2.2672,2.3586,2.4401,2.4982,2.5792,2.611,2.5839,2.4496,2.3227,2.215,1.9286,1.7498,0.0,0.0,0.0,0.0,0.0,0.0,0.0,0.0,0.0,0.0,0.0,2.5747,2.5095,2.7587,2.9327,2.9587,2.9421,2.9594,3.0395,2.9916,2.995,3.1026,3.1937,3.2054,3.1048,3.2212,3.2959,3.25,3.267,3.2945,3.3334,3.1912,3.076,3.06,3.0759,3.0932,3.0896,3.0699,3.0253,2.9649,2.9508,2.9508,2.9459,2.9131,2.8794,2.8781,2.8359,2.7987,2.8022,2.8231,2.8278,2.7854,2.7947,2.7985,2.7481,2.6684,2.5765,2.4933,2.4341,2.3867,3.4803,3.5417,3.5539,3.5881,3.6188,3.419,3.2959,3.2262,3.2101,3.1621,3.0802,2.9494,2.8336,2.7439,2.714,2.752,2.8365,2.8648,2.9407,3.0491,3.1075,3.1424,3.1516,3.1901,3.1957,3.156,3.1261,3.1104,3.1045,3.081,3.0566,3.037,3.0754,2.982,2.7542,2.4897,2.337,2.2977,2.4869,2.649,2.7627,2.6471,2.4722,2.2483,2.3139,2.2947,2.156,2.2751,2.3366,2.3075,2.2098,2.1835,2.2309,2.0017,1.9156,0.0,1.9149,0.0,0.0,0.0,0.0,0.0,0.0,0.0,0.0,2.891,2.9497,2.9869,3.1582,3.2236,3.1142,3.1559,3.2344,3.3403,3.31,3.3191,3.4172,3.4085,3.4111,3.4512,3.4928,3.5166,3.5096,3.531,3.5039,3.4277,3.4233,3.4032,3.3725,3.3403,3.3217,3.2933,3.1884,3.0699,2.9424,2.8889,2.8789,2.8734,2.8592,2.836,2.8382,2.8093,2.7897,2.7897,2.8026,2.8091,2.791,2.8066,2.8263,2.8042,2.7933,2.7484,2.6292,2.5225,2.4145,3.6192,3.6188,3.6813,3.7039,3.6879,3.5663,3.465,3.3802,3.2742,3.1558,3.0259,2.9959,2.9255,2.8293,2.8215,2.8194,2.8285,2.9056,2.9571,2.9925,3.1193,3.2019,3.2444,3.2686,3.2871,3.297,3.2581,3.2055,3.1412,3.1172,2.9689,2.7057,2.8517,2.7764,2.498,0.0,0.0,0.0,2.7029,2.7645,2.7147,2.4219,2.2412,2.1884,2.2361,0.0,2.3158,2.3984,2.4462,2.4512,2.4503,0.0,0.0,0.0,0.0,0.0,0.0,0.0,0.0,0.0,0.0,0.0,2.9404,2.8819,2.9713,3.033,3.1199,3.2521,3.3556,3.4764,3.6395,3.6054,3.5791,3.5896,3.5884,3.5594,3.5066,3.541,3.5726,3.5475,3.5811,3.603,3.6036,3.6418,3.6563,3.6074,3.583,3.5338,3.4682,3.4394,3.4426,3.4523,3.2995,3.1707,3.0768,2.9987,2.9543,2.9566,2.9021,2.868,2.8577,2.7989,2.7487,2.741,2.7473,2.7616,2.7326,2.781,2.8457,2.8339,2.8425,2.8216,2.7358,2.6406,2.5511,3.711,3.7725,3.8111,3.8326,0.0,3.6952,3.6065,3.5466,3.3784,3.2281,3.0954,3.0292,2.9727,2.9217,2.9444,2.9551,2.9671,3.0634,3.1261,3.1558,3.2533,3.3107,3.3416,3.3713,3.3797,3.3738,3.3484,3.3131,3.2599,3.2476,3.1543,2.9843,3.0643,3.0295,2.8888,3.0203,2.9933,2.7975,2.9135,3.0001,3.0535,2.9268,2.7849,2.6436,2.6783,0.0,0.0,0.0,0.0,0.0,0.0,0.0,0.0,0.0,0.0,3.1631,3.1129,3.1622,3.3541,3.3653,3.45,3.6496,3.5834,3.4442,3.2451,3.3838,3.5145,3.5821,3.6068,3.6635,3.7783,3.7507,3.7057,3.6674,3.6707,3.6443,3.5722,3.5944,3.6228,3.6225,3.6519,3.6784,3.6892,3.714,3.72,3.6934,3.6808,3.6506,3.5906,3.4815,3.3938,3.3337,3.2212,3.1158,3.0658,3.0277,2.9883,2.9753,2.9334,2.8958,2.8857,2.8354,2.7967,2.7909,2.8207,2.8448,2.8372,2.887,2.9355,2.9339,2.9257,2.9071,2.8524,2.7269,2.598,3.7949,3.9098,3.9279,3.9524,3.9692,3.8138,3.7171,3.6532,3.4412,0.0,0.0,3.0535,2.9961,2.9955,3.0353,3.0683,3.1066,3.1987,3.274,3.3347,3.3869,3.4181,3.4314,3.4688,3.4729,3.4439,3.4452,3.4262,3.3978,3.3965,3.3884,3.3723,3.3688,3.3791,3.4118,3.4855,3.3817,3.1019,3.1115,3.2056,3.3728,3.406,3.3068,3.0774,3.1115,3.0458,2.8699,2.8966,2.8769,2.8097,2.891,2.9587,2.9845,3.1243,3.2553,3.3618,3.4208,3.5829,3.8734,3.8943,3.9815,4.1955,4.1384,3.9335,3.5618,3.7589,3.8837,3.8471,3.815,3.7943,3.7825,3.7702,3.7422,3.6859,3.6862,3.664,3.612,3.6091,3.6259,3.6546,3.6753,3.711,3.7348,3.7434,3.7403,3.7127,3.7093,3.7154,3.6491,3.5039,3.3609,3.2303,3.1358,3.0438,3.0104,2.9847,2.9765,2.9531,2.9267,2.9027,2.8867,2.8724,2.8618,2.842,2.8985,2.9189,2.9407,2.9594,2.9996,3.004,2.9931,2.9671,2.9256,2.7731,2.6262,3.9116,3.9139,3.9908,4.0243,4.0213,3.9063,3.7533,3.5709,3.3663,3.2412,3.1772,3.0645,3.0109,3.0073,3.0163,3.0394,3.0778,3.1435,3.2188,3.3093,3.382,3.4566,3.5223,3.5467,3.5629,3.5696,3.5736,3.5465,3.5029,3.4988,3.4573,3.3909,3.4364,3.4928,3.5386,3.5548,3.5372,3.4848,3.2844,3.1931,3.2177,3.0151,2.912,2.9206,2.9515,2.9654,2.9852,2.9789,2.9593,2.9591,3.0066,3.1596,3.4332,3.5311,3.7321,4.0748,4.1518,4.2093,4.2652,4.2587,4.2125,4.141,4.0868,4.0096,3.9098,3.9429,3.9306,3.8339,3.8482,3.8495,3.799,3.7855,3.7715,3.7528,3.7071,3.673,3.6503,3.6181,3.6142,3.6475,3.6319,3.6459,3.6914,3.7098,3.7211,3.7068,3.7019,3.6197,3.537,3.5075,3.4738,3.3456,3.2048,3.0993,3.0425,2.9564,2.928,2.9037,2.8817,2.8614,2.8505,2.8542,2.8538,2.8314,2.8353,2.8466,2.8807,2.8883,2.9129,2.9258,2.945,2.9376,2.8799,2.7654,2.6784,3.9548,3.9996,4.049,4.0587,4.0272,3.9015,3.7369,3.5433,3.3871,3.2666,3.1767,3.1048,3.0504,3.0164,3.074,3.1112,3.1343,3.2606,3.3423,3.386,3.474,3.5425,3.587,3.6137,3.635,3.6547,3.6547,3.6448,3.6209,3.6195,3.5925,3.5535,3.5772,3.5955,3.603,3.6296,3.6429,3.6362,3.5225,3.4673,3.4776,3.4079,3.3937,3.4444,3.459,3.4885,3.5342,3.5547,3.5532,3.5399,3.6274,3.7398,3.8682,3.9623,4.1131,4.3377,4.3778,4.4019,4.4241,4.3481,4.2759,4.2134,4.1135,4.0435,4.0255,3.9549,3.8851,3.833,3.8333,3.826,3.7923,3.7621,3.7395,3.7306,3.6942,3.6734,3.6659,3.6576,3.6593,3.6918,3.6927,3.7062,3.753,3.766,3.7749,3.7807,3.7579,3.6996,3.5997,3.5879,3.5352,3.3639,3.2384,3.1589,3.1036,3.0308,2.977,2.9528,2.9182,2.8904,2.8732,2.8673,2.8514,2.8374,2.8458,2.8737,2.8992,2.9134,2.9258,2.9292,2.9163,2.8983,2.8581,2.7823,2.6821,3.9954,4.0659,4.0845,4.0689,4.0207,3.8866,3.736,3.5832,3.4561,3.3316,3.2197,3.1434,3.083,3.0483,3.1266,3.1795,3.2275,3.3684,3.4549,3.4882,3.5797,3.6296,3.648,3.6783,3.6947,3.6975,3.7038,3.7115,3.7229,3.7215,3.7315,3.7376,3.7173,3.6911,3.6741,3.7081,3.7289,3.7317,3.7284,3.7296,3.7376,3.8052,3.8629,3.9079,3.9107,3.9402,3.9807,4.0206,4.0277,4.0129,4.1158,4.1694,4.1515,4.228,4.3188,4.4027,4.4157,4.4316,4.4567,4.342,4.2653,4.2637,4.1151,4.0229,4.0131,3.8984,3.8308,3.8367,3.8013,3.7697,3.7631,3.7256,3.6933,3.6912,3.6712,3.6569,3.6612,3.6622,3.6745,3.709,3.7209,3.7363,3.7785,3.7937,3.7952,3.8053,3.8166,3.7888,3.738,3.6811,3.5756,3.4445,3.3168,3.2328,3.1922,3.1366,3.0866,3.0514,3.0168,2.9907,2.9667,2.9367,2.9075,2.9055,2.9166,2.9452,2.9581,2.9546,2.9569,2.949,2.92,2.8775,2.8362,2.7655,2.6718,4.0688,4.0471,4.0702,4.0492,4.004,3.8949,3.8018,3.7174,3.5684,3.4382,3.3245,3.1548,3.0952,3.1123,3.1178,3.1832,3.2941,3.3729,3.4635,3.5673,3.6543,3.69,3.695,3.7327,3.7296,3.7011,3.7102,3.7492,3.7994,3.7986,3.82,3.8539,3.8225,3.8,3.8,3.8052,3.8165,3.8366,3.8335,3.8176,3.7859,3.8083,3.85,3.9064,3.8772,3.9044,3.9927,3.9852,3.9904,4.0182,4.0678,4.1056,4.1348,4.1614,4.2276,4.3391,4.3522,4.3653,4.3896,4.2709,4.1977,4.1785,4.0496,3.9424,3.9007,3.8135,3.791,3.8269,3.7687,3.7158,3.707,3.6885,3.6711,3.6638,3.6365,3.622,3.6353,3.6013,3.5853,3.6212,3.6513,3.6525,3.6894,3.7094,3.7169,3.7512,3.7586,3.7574,3.7531,3.7371,3.7209,3.6562,3.5194,3.3653,3.2946,3.2426,3.209,3.1883,3.1586,3.122,3.0924,3.1004,3.1102,2.9839,2.9816,2.9955,3.0061,2.9981,2.9327,2.9251,2.8976,2.8587,2.7639,2.7006,2.6371,4.0986,4.1029,4.1198,4.1052,4.0531,3.9166,3.8159,3.7455,3.6224,3.4989,3.3816,3.2823,3.2098,3.1669,3.2139,3.2759,3.3342,3.4637,3.5547,3.6183,3.6981,3.7334,3.7316,3.7339,3.7417,3.7586,3.7695,3.8153,3.8752,3.8868,3.8894,3.8965,3.8811,3.8686,3.856,3.8575,3.8649,3.8848,3.8958,3.9031,3.906,3.895,3.9032,3.9416,3.9478,3.97,4.0105,4.0458,4.0768,4.1039,4.1474,4.1834,4.1948,4.2222,4.2783,4.3637,4.4161,4.4455,4.4577,4.3326,4.2572,4.2572,4.1155,4.0049,3.9451,3.8683,3.8212,3.7995,3.7353,3.6763,3.6378,3.61,3.5978,3.594,3.5734,3.5754,3.6268,3.6294,3.636,3.6655,3.6736,3.6836,3.7032,3.7225,3.7394,3.7595,3.7685,3.7756,3.7844,3.7826,3.7809,3.7667,3.6844,3.5874,3.4728,3.354,3.3141,3.3122,3.2692,3.2096,3.1901,3.1762,3.144,3.0405,3.02,3.0021,2.9863,2.9619,2.9162,2.8947,2.8262,2.7634,2.6693,2.6286,2.5987,4.1139,4.0922,4.0783,4.0492,4.0012,3.8697,3.782,3.7227,3.6395,3.5393,3.4317,3.4016,3.3462,3.2796,3.323,3.3661,3.4185,3.5507,3.6391,3.6779,3.7486,3.7843,3.785,3.7799,3.7892,3.821,3.8266,3.8751,3.96,3.9856,3.9956,4.0012,3.9933,3.9734,3.9445,3.9393,3.9377,3.9388,3.9589,3.9859,4.0076,4.001,3.994,4.0021,4.0216,4.0459,4.0634,4.1142,4.1573,4.1867,4.2254,4.2395,4.2373,4.2769,4.3328,4.3939,4.4597,4.498,4.5062,4.3799,4.301,4.2973,4.1651,4.04,3.9613,3.8945,3.8122,3.7085,3.6625,3.6111,3.5806,3.5299,3.5025,3.5077,3.4957,3.518,3.5973,3.6333,3.6604,3.7054,3.7204,3.7355,3.7541,3.7685,3.781,3.7984,3.8121,3.8219,3.8252,3.8236,3.8185,3.8153,3.8052,3.7451,3.62,3.4778,3.4157,3.4007,3.3623,3.3083,3.2733,3.2479,3.1773,3.0948,3.0589,3.0159,2.981,2.9412,2.8962,2.8481,2.7767,2.6965,2.6459,2.6085,2.5834,4.1119,3.9722,3.8707,3.8269,3.7697,3.7433,3.7048,3.6741,3.6238,3.5626,3.5024,3.4889,3.4747,3.459,3.41,3.4413,3.5627,3.6203,3.6859,3.7558,3.8188,3.856,3.8767,3.8936,3.8898,3.8682,3.8687,3.9238,4.0272,4.0919,4.1633,4.2314,4.1919,4.1492,4.0961,4.0819,4.0597,4.0097,4.0242,4.0524,4.0783,4.1207,4.1207,4.0851,4.0799,4.1107,4.1607,4.1754,4.2013,4.2538,4.2568,4.2478,4.2301,4.2914,4.3575,4.415,4.4395,4.4669,4.4793,4.3596,4.2835,4.2815,4.1471,3.9918,3.8894,3.8528,3.7595,3.557,3.5456,3.5365,3.5294,3.4551,3.4082,3.4097,3.4086,3.4575,3.5599,3.5856,3.629,3.7066,3.7486,3.7703,3.7915,3.7984,3.8103,3.8269,3.8366,3.8433,3.8562,3.8528,3.8462,3.8446,3.8312,3.7947,3.6768,3.5543,3.4925,3.4835,3.4603,3.4104,3.3814,3.3349,3.232,3.1442,3.092,3.0363,2.9801,2.9291,2.8838,2.8243,2.7334,2.662,2.6075,2.6423,2.6127,4.1251,4.0256,3.9496,3.9163,3.907,3.8186,3.7727,3.7677,3.7342,3.6798,3.6345,3.6459,3.6541,3.6382,3.6237,3.6225,3.642,3.718,3.7774,3.8202,3.8797,3.8996,3.8943,3.9103,3.9191,3.9219,3.9222,3.9906,4.1225,4.2092,4.2663,4.2854,4.27,4.2438,4.2155,4.152,4.1112,4.0994,4.0824,4.0833,4.1156,4.1654,4.19,4.1948,4.1851,4.1948,4.219,4.2397,4.2484,4.2482,4.2571,4.2493,4.216,4.2417,4.2863,4.334,4.3526,4.3718,4.3802,4.3162,4.2734,4.2724,4.149,4.0254,3.9301,3.8629,3.7595,3.6079,3.5187,3.4828,3.4258,3.369,3.3375,3.3472,3.3584,3.3991,3.4876,3.5572,3.6235,3.6809,3.7451,3.7983,3.8068,3.8186,3.8285,3.8401,3.8496,3.8611,3.8658,3.8658,3.8624,3.8609,3.8593,3.8439,3.8054,3.6459,3.5491,3.5554,3.5346,3.4391,3.3864,3.3301,3.2336,3.1585,3.1085,3.0694,3.0121,2.8993,2.8554,2.7481,2.6611,2.5914,2.5606,2.5746,2.5502,4.0787,3.9965,3.9157,3.8754,3.8564,3.7784,3.7584,3.7828,3.7708,3.739,3.7148,3.7487,3.7637,3.7528,3.7637,3.766,3.7519,3.8125,3.8501,3.8738,3.9235,3.9496,3.9516,3.9577,3.9699,3.993,4.0149,4.1074,4.2572,4.329,4.3811,4.4122,4.3928,4.3711,4.3354,4.2669,4.2226,4.1817,4.1479,4.144,4.1537,4.198,4.2381,4.2571,4.2696,4.2629,4.2527,4.2724,4.2664,4.2454,4.2495,4.2462,4.2264,4.2155,4.2415,4.2927,4.3122,4.3286,4.3467,4.3074,4.2818,4.2904,4.1711,4.061,3.9826,3.8988,3.7728,3.6237,3.5368,3.4606,3.3651,3.3143,3.3001,3.3037,3.3143,3.3565,3.427,3.4995,3.5811,3.6712,3.7633,3.8163,3.8316,3.8446,3.8525,3.8575,3.867,3.8738,3.8735,3.8735,3.8719,3.8735,3.878,3.8578,3.8058,3.6775,3.589,3.5872,3.5229,3.4399,3.3568,3.3007,3.2419,3.1735,3.129,3.0953,3.0156,2.8906,2.7786,2.6738,2.5666,2.4848,2.4818,2.4941,2.4913,3.9802,3.8787,3.7345,3.6875,3.6655,3.6559,3.6483,3.7149,3.7398,3.753,3.7501,3.7789,3.8022,3.7963,3.8037,3.8345,3.8847,3.8877,3.8943,3.9126,3.9538,3.9985,4.0328,4.0401,4.0615,4.0879,4.1511,4.2716,4.4223,4.4503,4.5013,4.5802,4.5714,4.5238,4.4555,4.4263,4.3576,4.257,4.2383,4.2256,4.2026,4.2349,4.2634,4.2711,4.308,4.3079,4.2696,4.2696,4.2595,4.2304,4.2267,4.2426,4.2432,4.2173,4.2368,4.2975,4.3207,4.3539,4.3883,4.3293,4.3048,4.3111,4.2034,4.0802,4.0159,3.9228,3.7846,3.6052,3.5353,3.4727,3.3405,3.3053,3.2941,3.2753,3.2894,3.3249,3.3748,3.4064,3.4902,3.6683,3.7785,3.8455,3.8698,3.8743,3.8773,3.8803,3.8822,3.881,3.8807,3.8807,3.8788,3.8818,3.8844,3.8722,3.7909,3.7031,3.6493,3.5952,3.4996,3.412,3.3141,3.2421,3.1957,3.1393,3.1442,3.1077,2.9661,2.8458,2.7435,2.6353,2.5113,2.4149,2.4361,2.4604,2.48,4.04,3.9571,3.9163,3.9206,3.939,3.8601,3.8638,3.9271,3.8793,3.8484,3.8501,3.879,3.893,3.893,3.893,3.9143,3.9502,3.9466,3.9466,3.9574,4.0036,4.0316,4.0524,4.0901,4.1354,4.2066,4.327,4.4114,4.4729,4.5417,4.6,4.6356,4.6388,4.6311,4.6038,4.495,4.3949,4.3568,4.2679,4.2253,4.227,4.2711,4.3052,4.3262,4.316,4.2902,4.2591,4.2747,4.2532,4.198,4.1963,4.1858,4.1702,4.1597,4.1806,4.2204,4.2306,4.2485,4.2814,4.2822,4.2785,4.2683,4.159,4.0799,4.0293,3.8685,3.715,3.5808,3.5276,3.4492,3.3647,3.3473,3.3339,3.2959,3.2945,3.308,3.3468,3.4094,3.5276,3.6789,3.7528,3.8031,3.8611,3.8818,3.8896,3.8892,3.8896,3.8881,3.8881,3.8877,3.8877,3.8935,3.8919,3.8674,3.7811,3.6952,3.6279,3.5652,3.4789,3.3724,3.2743,3.2024,3.1528,3.1214,3.1303,3.0718,2.9314,2.8122,2.7122,2.5807,2.4488,2.4131,2.4223,2.4361,2.4513,4.0669,3.9871,4.01,4.0408,4.0674,3.9816,4.0081,4.0693,3.9616,3.9286,3.9582,3.9442,3.9388,3.9424,3.9481,3.9625,3.9803,3.9945,4.0001,4.0001,4.0261,4.047,4.0689,4.1302,4.2299,4.3318,4.4338,4.5033,4.5531,4.633,4.6818,4.6837,4.705,4.7103,4.6931,4.5574,4.4696,4.4294,4.3298,4.2494,4.228,4.2598,4.296,4.3039,4.2789,4.2593,4.2504,4.2523,4.2191,4.1707,4.166,4.1597,4.1375,4.156,4.174,4.187,4.2016,4.2163,4.2371,4.2604,4.2709,4.2572,4.1488,4.0722,4.0337,3.8518,3.689,3.61,3.536,3.4562,3.3853,3.3726,3.3638,3.3379,3.328,3.3253,3.3424,3.4111,3.5011,3.6152,3.7011,3.7732,3.8239,3.8824,3.896,3.8997,3.8979,3.8979,3.8979,3.9007,3.9017,3.8929,3.8738,3.8322,3.771,3.6883,3.6073,3.5311,3.4538,3.3443,3.2351,3.1809,3.1316,3.0871,3.0779,3.0374,2.913,2.7982,2.6898,2.5425,2.4061,2.367,2.3613,2.3892,2.4123,4.062,3.9711,4.0377,4.0514,4.0217,4.0242,4.0839,4.1348,4.009,3.9884,4.0372,3.9899,3.9484,3.9511,3.9625,3.9803,4.0066,4.0296,4.0532,4.0578,4.0643,4.0728,4.1065,4.1975,4.3261,4.4592,4.4922,4.5562,4.6558,4.7146,4.7551,4.7342,4.7755,4.7871,4.7169,4.63,4.5421,4.487,4.4026,4.2908,4.1864,4.2262,4.2473,4.2377,4.2194,4.2199,4.232,4.2039,4.1619,4.1238,4.1503,4.1625,4.167,4.1931,4.2103,4.2145,4.2249,4.247,4.2611,4.2749,4.281,4.2796,4.17,4.0868,4.05,3.8673,3.704,3.6389,3.5501,3.4654,3.4034,3.3887,3.3829,3.3855,3.368,3.3559,3.3521,3.416,3.4783,3.5259,3.6415,3.7575,3.7803,3.854,3.8883,3.9133,3.9115,3.9133,3.9147,3.9142,3.9132,3.8894,3.8536,3.7848,3.721,3.6684,3.5852,3.515,3.4338,3.3238,3.205,3.1426,3.0845,3.0441,3.0316,2.9823,2.9137,2.8052,2.67,2.5227,2.4136,2.329,2.3133,2.3509,2.3796,4.0876,4.0563,4.1367,4.1725,4.1687,4.1622,4.1987,4.2516,4.1406,4.0888,4.087,4.0547,4.0046,3.964,3.9696,3.9945,4.0331,4.0486,4.0971,4.1584,4.1647,4.1647,4.2065,4.3208,4.4248,4.5027,4.5582,4.6445,4.7323,4.7313,4.7505,4.7916,4.7866,4.7952,4.7605,4.6419,4.5777,4.5318,4.3983,4.2998,4.2436,4.2369,4.2437,4.2293,4.1818,4.1801,4.2053,4.1722,4.1464,4.1347,4.1582,4.1719,4.1801,4.2107,4.2374,4.2492,4.2727,4.2956,4.3069,4.3124,4.2976,4.2479,4.1632,4.0852,4.0262,3.8111,3.6856,3.6246,3.5288,3.4301,3.4035,3.4011,3.4011,3.3972,3.3902,3.3855,3.383,3.4017,3.4415,3.5132,3.5678,3.6557,3.749,3.809,3.8489,3.8976,3.912,3.9133,3.8965,3.9029,3.8855,3.8545,3.811,3.7371,3.6727,3.6265,3.5679,3.4996,3.4134,3.3129,3.1904,3.0823,3.0222,2.9643,3.0118,2.9883,2.9184,2.8294,2.6746,2.536,2.4696,2.4088,2.3412,2.3377,2.3534,4.1208,4.1625,4.2047,4.2563,4.3021,4.2937,4.3035,4.306,4.2481,4.1735,4.1208,4.1018,4.0546,3.9884,4.0086,4.0316,4.0658,4.1196,4.1691,4.2131,4.2883,4.3219,4.3474,4.4319,4.4962,4.5623,4.5926,4.6392,4.6874,4.6872,4.6976,4.7111,4.7391,4.742,4.7132,4.6184,4.5535,4.5319,4.4175,4.3247,4.2671,4.2472,4.2339,4.2115,4.1554,4.13,4.1648,4.163,4.1538,4.156,4.1714,4.1948,4.2082,4.2374,4.2632,4.2842,4.3087,4.3232,4.3375,4.3408,4.3094,4.2391,4.1615,4.0917,3.9904,3.7941,3.6554,3.6472,3.5076,3.429,3.4111,3.4173,3.4006,3.3685,3.3932,3.408,3.3959,3.3959,3.422,3.4702,3.5204,3.5739,3.69,3.7299,3.7779,3.814,3.819,3.8221,3.8253,3.8415,3.8396,3.7971,3.7535,3.6828,3.6302,3.5843,3.505,3.4376,3.3458,3.2543,3.1638,3.0422,2.9922,2.9602,2.9907,2.9876,2.9128,2.8417,2.7458,2.6342,2.564,2.4882,2.4174,2.3318,2.3443,4.1562,4.2647,4.2493,4.2992,4.374,4.3952,4.3696,4.3415,4.3212,4.2512,4.1699,4.1439,4.0888,4.0117,4.0505,4.0879,4.1106,4.2079,4.2556,4.3173,4.4136,4.496,4.5047,4.5072,4.5553,4.6161,4.5981,4.6053,4.6237,4.629,4.6158,4.6334,4.6677,4.6633,4.648,4.5717,4.5299,4.5224,4.4406,4.3489,4.278,4.2378,4.2066,4.1782,4.1329,4.1097,4.1422,4.1626,4.1776,4.1692,4.1884,4.2082,4.2356,4.2631,4.2918,4.3142,4.3268,4.3391,4.3511,4.3502,4.3129,4.2334,4.1632,4.0967,3.981,3.7959,3.6699,3.6738,3.5206,3.4284,3.4029,3.4186,3.3985,3.3517,3.3903,3.4237,3.4136,3.4049,3.4036,3.4067,3.489,3.5305,3.5752,3.6241,3.6948,3.7633,3.7626,3.7681,3.7704,3.7788,3.7585,3.7152,3.6704,3.6261,3.5828,3.5427,3.4488,3.3603,3.2553,3.1662,3.1123,3.0254,2.9833,2.9682,2.9945,2.9711,2.9045,2.8342,2.7874,2.717,2.6385,2.5617,2.4842,2.3825,2.35,4.168,4.2475,4.2577,4.2774,4.3081,4.3693,4.3847,4.364,4.3605,4.3231,4.2614,4.1968,4.1295,4.0593,4.0861,4.1317,4.2145,4.2728,4.3339,4.4994,4.5904,4.6496,4.6562,4.6373,4.6113,4.6128,4.6072,4.6109,4.6127,4.5879,4.6007,4.6495,4.6291,4.6455,4.6422,4.592,4.5657,4.5523,4.4484,4.3562,4.2853,4.2227,4.1715,4.1324,4.1226,4.1301,4.1426,4.1771,4.2009,4.21,4.2089,4.2121,4.2438,4.2729,4.3031,4.3286,4.3479,4.3649,4.3735,4.3336,4.2677,4.1976,4.1244,4.0356,3.9498,3.7869,3.6907,3.6559,3.5323,3.4095,3.3526,3.4008,3.384,3.3518,3.3899,3.4491,3.4473,3.4381,3.4305,3.4384,3.4607,3.5045,3.5687,3.5841,3.6404,3.6983,3.7148,3.7192,3.7149,3.7068,3.6787,3.6381,3.6255,3.5901,3.5512,3.492,3.383,3.2917,3.1881,3.1178,3.0613,3.0516,3.0262,3.0059,2.9953,2.9622,2.9426,2.9221,2.896,2.8054,2.7138,2.6299,2.5444,2.4399,2.3448,4.2045,4.2613,4.2663,4.2936,4.3371,4.3806,4.3881,4.3788,4.4038,4.356,4.27,4.219,4.1657,4.1016,4.1534,4.223,4.2893,4.3765,4.492,4.6343,4.7227,4.769,4.7911,4.7728,4.7285,4.6223,4.557,4.5666,4.576,4.5497,4.5374,4.6179,4.5896,4.5674,4.6034,4.6027,4.5945,4.571,4.5363,4.4637,4.3623,4.2798,4.1898,4.1377,4.1431,4.1631,4.1692,4.2051,4.2047,4.1899,4.1817,4.2117,4.2676,4.292,4.3196,4.3529,4.3666,4.3862,4.3865,4.3364,4.2611,4.1861,4.1122,4.005,3.8996,3.7604,3.6825,3.6215,3.5128,3.3906,3.2881,3.346,3.3513,3.3108,3.3554,3.4185,3.45,3.4528,3.4495,3.4536,3.4631,3.4881,3.5206,3.5455,3.5524,3.5941,3.5953,3.5994,3.5958,3.5903,3.5951,3.575,3.58,3.5594,3.52,3.4407,3.3146,3.227,3.1411,3.0911,3.0522,3.0676,3.0873,3.0708,3.0594,3.0592,3.0419,3.0223,2.9815,2.9053,2.8129,2.7098,2.6067,2.5074,2.4051,4.2519,4.3119,4.2825,4.3239,4.4061,4.4209,4.4156,4.4012,4.4519,4.3955,4.2686,4.2582,4.2284,4.1846,4.2622,4.3142,4.3869,4.5088,4.6513,4.7288,4.8058,4.8326,4.8496,4.8431,4.7952,4.6536,4.5869,4.5746,4.5787,4.5236,4.5509,4.5793,4.5552,4.5738,4.5788,4.6119,4.6364,4.5942,4.5918,4.5433,4.4254,4.3388,4.2449,4.1637,4.1675,4.1852,4.1903,4.2047,4.2002,4.1414,4.1335,4.1886,4.2541,4.2868,4.3044,4.3389,4.3259,4.3342,4.3368,4.2955,4.2244,4.1837,4.0942,3.9914,3.8561,3.746,3.661,3.5878,3.494,3.3784,3.2377,3.3262,3.322,3.273,3.309,3.3928,3.4461,3.4655,3.4666,3.4645,3.4728,3.4893,3.4923,3.5029,3.4926,3.487,3.4908,3.4936,3.4992,3.5073,3.5314,3.5482,3.5596,3.529,3.4885,3.4578,3.3249,3.2131,3.1224,3.0901,3.0681,3.0992,3.1275,3.1417,3.1365,3.1363,3.1161,3.0717,3.0294,2.9834,2.8914,2.7649,2.6646,2.5739,2.4727,4.2996,4.431,4.3187,4.3424,4.4538,4.4928,4.4947,4.4824,4.5056,4.4692,4.3888,4.3775,4.3345,4.3175,4.369,4.455,4.553,4.6614,4.7324,4.7803,4.8479,4.8812,4.8663,4.8612,4.8129,4.7425,4.6884,4.6853,4.6736,4.6515,4.6017,4.6472,4.659,4.6707,4.6687,4.7007,4.6751,4.6343,4.6001,4.5162,4.4087,4.315,4.2381,4.1585,4.1805,4.1977,4.1943,4.1718,4.1507,4.15,4.098,4.0943,4.1153,4.1242,4.1466,4.1891,4.202,4.2247,4.2408,4.1678,4.1259,4.0828,3.9981,3.9075,3.8173,3.7151,3.6274,3.5781,3.5053,3.3989,3.2496,3.3525,3.3639,3.3214,3.3545,3.4557,3.4756,3.4831,3.482,3.4788,3.484,3.4888,3.487,3.4889,3.4936,3.4974,3.502,3.51,3.5176,3.5195,3.5312,3.5432,3.554,3.5065,3.4554,3.4355,3.3666,3.2458,3.1614,3.1214,3.1133,3.1424,3.1653,3.1666,3.1936,3.2126,3.1788,3.1279,3.0592,3.0013,2.9062,2.8088,2.7284,2.6454,2.5488,4.3082,4.3673,4.3376,4.382,4.4638,4.4894,4.5276,4.5601,4.5418,4.5101,4.4715,4.4345,4.4044,4.4145,4.508,4.6175,4.7103,4.7406,4.777,4.8018,4.8663,4.936,4.9258,4.9107,4.9439,4.9231,4.8584,4.7454,4.6925,4.6075,4.6209,4.6408,4.6505,4.6483,4.6696,4.6856,4.6803,4.6607,4.627,4.5455,4.4032,4.2969,4.2132,4.199,4.2037,4.2243,4.2183,4.1737,4.1319,4.098,4.04,3.9973,3.9796,3.9905,4.0325,4.112,4.1351,4.1534,4.1729,4.1209,4.0748,4.0371,3.9302,3.8252,3.7454,3.6554,3.59,3.5434,3.5219,3.4367,3.3232,3.3904,3.3781,3.3486,3.3903,3.4434,3.4775,3.4889,3.4898,3.4868,3.4879,3.4908,3.4908,3.4936,3.5001,3.5075,3.5138,3.5231,3.53,3.5323,3.5348,3.5463,3.5527,3.5197,3.4743,3.453,3.4138,3.2998,3.2167,3.1767,3.1438,3.1642,3.1714,3.1744,3.2124,3.2635,3.2345,3.1807,3.099,3.0203,2.9436,2.8679,2.7988,2.7158,2.6211,4.3267,4.3278,4.3665,4.4258,4.4815,4.4903,4.5397,4.598,4.5738,4.5437,4.5229,4.4962,4.487,4.5194,4.6251,4.745,4.8222,4.7752,4.7803,4.8101,4.8928,4.9793,4.9874,5.019,5.0087,4.9805,4.8761,4.7649,4.734,4.638,4.6103,4.6481,4.6253,4.6109,4.6474,4.7047,4.6848,4.6868,4.6903,4.6283,4.4488,4.2949,4.2145,4.2166,4.2387,4.2472,4.221,4.1589,4.0926,4.0346,3.9738,3.9175,3.8719,3.8773,3.9564,4.0741,4.103,4.1246,4.1188,4.071,3.9984,3.9705,3.8829,3.7623,3.673,3.6122,3.5657,3.5069,3.4926,3.4669,3.3834,3.3957,3.3966,3.3815,3.3883,3.4197,3.468,3.4917,3.4917,3.4908,3.4917,3.4927,3.4908,3.4945,3.5011,3.5075,3.5147,3.522,3.5289,3.533,3.5376,3.5522,3.5531,3.5334,3.5074,3.4933,3.4458,3.3655,3.3004,3.2589,3.2095,3.1742,3.1776,3.1809,3.2428,3.2826,3.2571,3.2292,3.155,3.0796,3.0018,2.9298,2.8645,2.7874,2.6966,4.3804,4.4617,4.4215,4.4559,4.5363,4.5577,4.5749,4.5868,4.608,4.5818,4.5421,4.6012,4.6343,4.6759,4.745,4.7735,4.7613,4.767,4.777,4.8035,4.9094,4.9427,4.9188,5.0158,4.9545,4.9289,4.7963,4.787,4.7798,4.7278,4.703,4.7107,4.7234,4.7656,4.7222,4.7129,4.7512,4.7315,4.689,4.5875,4.4427,4.297,4.2415,4.2371,4.2422,4.2307,4.1828,4.1144,4.0381,3.9826,3.9086,3.8737,3.8762,3.8833,3.9011,3.937,3.953,3.9644,3.9814,3.947,3.8942,3.8619,3.7652,3.6748,3.6157,3.569,3.5328,3.516,3.5119,3.485,3.4319,3.4549,3.4428,3.4364,3.4403,3.4632,3.4946,3.4898,3.4908,3.4907,3.4907,3.4898,3.4917,3.4964,3.502,3.5084,3.5145,3.5209,3.5297,3.5319,3.5369,3.549,3.5553,3.5396,3.5311,3.5176,3.488,3.4218,3.3746,3.3307,3.2764,3.2213,3.1771,3.1973,3.2551,3.289,3.2763,3.2438,3.2012,3.1279,3.0367,2.9813,2.9367,2.8536,2.7638,4.3699,4.4435,4.4793,4.5176,4.5547,4.6113,4.6233,4.6148,4.6243,4.6138,4.6061,4.6692,4.7332,4.7819,4.8164,4.8097,4.7926,4.7869,4.7919,4.7919,4.8713,4.9044,4.9189,4.9336,4.8873,4.8643,4.8099,4.7894,4.7877,4.6998,4.6281,4.6653,4.6743,4.6785,4.7095,4.66,4.64,4.6082,4.5462,4.4634,4.3861,4.3071,4.249,4.2476,4.2255,4.1955,4.1488,4.0544,4.0043,3.9621,3.9074,3.8773,3.8931,3.9073,3.9197,3.9266,3.9002,3.89,3.8903,3.8678,3.8203,3.7509,3.6738,3.6278,3.5772,3.5427,3.5196,3.517,3.5187,3.4966,3.471,3.4952,3.4869,3.4816,3.4827,3.484,3.4927,3.4898,3.4879,3.4879,3.4878,3.4898,3.4908,3.4946,3.4992,3.5029,3.5092,3.5143,3.5246,3.536,3.539,3.5438,3.547,3.5445,3.5419,3.5361,3.5348,3.4828,3.4248,3.3805,3.3311,3.2804,3.2185,3.1763,3.1955,3.2321,3.2672,3.2845,3.2668,3.1712,3.065,3.0169,2.9671,2.9027,2.83,4.3877,4.4315,4.5193,4.5641,4.5922,4.6573,4.6624,4.635,4.6407,4.6462,4.6789,4.7537,4.826,4.8405,4.8353,4.8323,4.8073,4.7968,4.8018,4.8083,4.8363,4.876,4.9005,4.8932,4.8889,4.8714,4.8077,4.7729,4.7062,4.6276,4.5779,4.6115,4.6126,4.6023,4.5932,4.5741,4.554,4.5392,4.4382,4.3826,4.3568,4.3039,4.2614,4.2331,4.2011,4.1579,4.1088,4.0388,3.9871,3.9479,3.9198,3.8974,3.9178,3.9285,3.9227,3.9151,3.8795,3.8293,3.8021,3.7669,3.7326,3.673,3.6079,3.5779,3.5384,3.5182,3.5182,3.5193,3.5193,3.5182,3.5182,3.5168,3.5113,3.5077,3.5108,3.5029,3.4936,3.4889,3.485,3.484,3.4849,3.4888,3.4898,3.4927,3.4964,3.4992,3.5038,3.5082,3.5182,3.5315,3.536,3.5388,3.5424,3.5438,3.5425,3.5438,3.5463,3.5353,3.4796,3.4283,3.3789,3.3019,3.2242,3.193,3.1661,3.1755,3.213,3.2791,3.3315,3.2453,3.1553,3.058,2.9896,2.9301,2.901,4.4714,4.4953,4.5251,4.5942,4.678,4.685,4.6764,4.6575,4.6687,4.6903,4.7378,4.8631,4.8779,4.8309,4.8537,4.8329,4.7398,4.7469,4.7803,4.8232,4.8745,4.8824,4.8967,4.9045,4.8935,4.8084,4.7788,4.7341,4.6645,4.6246,4.6317,4.6863,4.6009,4.5625,4.5434,4.5262,4.4854,4.4596,4.3811,4.3611,4.3534,4.3126,4.2553,4.2087,4.1814,4.1286,3.9997,3.9829,3.9636,3.9198,3.9124,3.9192,3.9383,3.9339,3.9178,3.8901,3.8431,3.7771,3.7108,3.6796,3.653,3.6193,3.5817,3.5403,3.522,3.5182,3.5182,3.5182,3.5182,3.5182,3.5182,3.5182,3.5196,3.517,3.5136,3.5038,3.4936,3.486,3.4821,3.48,3.481,3.4831,3.4908,3.4955,3.4974,3.5001,3.5001,3.5047,3.51,3.5209,3.5277,3.5312,3.5355,3.539,3.5385,3.539,3.5407,3.5412,3.5112,3.4677,3.4248,3.3384,3.234,3.191,3.1626,3.1616,3.1665,3.2306,3.281,3.2967,3.2458,3.1354,3.046,2.9881,2.9704,4.5218,4.6432,4.6634,4.6782,4.6935,4.7542,4.752,4.7157,4.7208,4.7703,4.8386,4.9116,4.9288,4.9061,4.8792,4.8654,4.8023,4.7852,4.805,4.8262,4.8622,4.8733,4.8826,4.8818,4.854,4.7717,4.7607,4.7498,4.6854,4.6439,4.6495,4.6505,4.5821,4.5617,4.5338,4.4689,4.4057,4.3593,4.329,4.3195,4.3222,4.3155,4.2649,4.2013,4.1408,4.0873,4.001,3.951,3.9283,3.9222,3.9272,3.9377,3.9385,3.9191,3.8869,3.8474,3.7899,3.7043,3.6575,3.6288,3.6183,3.5664,3.5365,3.519,3.5198,3.5209,3.5182,3.5182,3.5182,3.5182,3.5182,3.5182,3.5193,3.5187,3.5136,3.5047,3.4955,3.4859,3.4781,3.4759,3.4781,3.4812,3.4898,3.4974,3.4992,3.5011,3.5011,3.5011,3.5056,3.5119,3.5179,3.5239,3.5289,3.5308,3.5296,3.5323,3.5342,3.5342,3.5354,3.5028,3.4541,3.342,3.2486,3.2025,3.1465,3.1165,3.126,3.187,3.2298,3.2647,3.2516,3.1957,3.1191,3.0468,3.0393,4.5793,4.74,4.7835,4.7852,4.7632,4.8306,4.8302,4.7879,4.7854,4.8322,4.9213,4.9464,4.9623,4.9689,4.9613,4.9056,4.8653,4.8448,4.8494,4.8601,4.8707,4.8753,4.8877,4.8897,4.8676,4.7753,4.7706,4.7755,4.703,4.6898,4.6636,4.6177,4.5561,4.5241,4.4622,4.3981,4.3064,4.2771,4.2727,4.2899,4.303,4.3123,4.2595,4.1896,4.1301,4.0583,3.9889,3.9355,3.9295,3.9275,3.9289,3.9281,3.9112,3.8812,3.8325,3.7747,3.7118,3.637,3.6165,3.6072,3.5843,3.545,3.5331,3.5273,3.5258,3.5234,3.5182,3.5182,3.5182,3.5182,3.5182,3.5182,3.5176,3.5162,3.5136,3.5057,3.4917,3.481,3.4759,3.4718,3.4913,3.5353,3.5619,3.5779,3.5542,3.5371,3.5011,3.4992,3.4983,3.5038,3.5082,3.5164,3.5206,3.5212,3.519,3.5231,3.5262,3.5273,3.5293,3.5285,3.4695,3.3612,3.2772,3.2309,3.1648,3.0785,3.072,3.1139,3.1777,3.2449,3.2235,3.1987,3.1522,3.0854,3.0962,4.6585,4.7665,4.8548,4.8918,4.8835,4.9147,4.8974,4.8585,4.8592,4.8858,4.9426,5.0112,5.024,5.0042,5.0083,4.9611,4.9054,4.8945,4.8925,4.8868,4.8954,4.9063,4.9229,4.9274,4.8936,4.825,4.8014,4.7696,4.7011,4.6562,4.6265,4.5837,4.5147,4.4471,4.3596,4.2908,4.2681,4.2843,4.29,4.305,4.3214,4.3392,4.2691,4.1689,4.1356,4.0752,3.9635,3.9394,3.9345,3.9281,3.8969,3.8837,3.8667,3.8013,3.7394,3.6782,3.6597,3.6055,3.5442,3.5427,3.5378,3.539,3.5367,3.5357,3.5369,3.5289,3.519,3.5209,3.5182,3.5182,3.5182,3.5174,3.5179,3.5136,3.5101,3.502,3.4888,3.5102,3.5088,3.5281,3.5787,3.6255,3.6568,3.67,3.632,3.5874,3.5248,3.5002,3.5002,3.4983,3.5038,3.5101,3.5174,3.5179,3.5193,3.5182,3.5198,3.5209,3.5201,3.5204,3.492,3.4086,3.332,3.268,3.1715,3.0761,3.0443,3.0339,3.1225,3.2059,3.2128,3.1911,3.1513,3.1485,3.1771,4.69,4.8296,4.8805,4.9078,4.921,4.9275,4.9256,4.9299,4.9426,4.9701,5.0083,5.0525,5.08,5.0707,5.0203,4.9836,4.9621,4.8794,4.8742,4.9021,4.9246,4.9381,4.959,4.9629,4.92,4.8293,4.7939,4.7544,4.6611,4.6224,4.5757,4.527,4.4548,4.3662,4.3295,4.2915,4.2973,4.3068,4.3196,4.3375,4.3478,4.3557,4.3058,4.1597,4.1571,4.0882,3.9518,3.9508,3.9392,3.9116,3.8698,3.8459,3.8014,3.7259,3.6791,3.6393,3.6213,3.5448,3.4892,3.4737,3.4999,3.52,3.5361,3.5313,3.5367,3.5324,3.5269,3.5218,3.5209,3.5209,3.5182,3.5196,3.5172,3.5092,3.502,3.4945,3.4945,3.5433,3.5734,3.6081,3.6511,3.7053,3.746,3.7726,3.7441,3.6966,3.6396,3.5467,3.5221,3.5078,3.5048,3.5092,3.5155,3.5179,3.5185,3.5182,3.5174,3.5185,3.5143,3.5119,3.4731,3.4326,3.3733,3.3034,3.1836,3.0733,3.0494,3.0431,3.106,3.1626,3.1823,3.2022,3.1851,3.226,3.2995,4.7038,4.8573,4.8914,4.9087,4.9291,4.9396,4.9517,4.9677,4.9836,5.0168,5.0582,5.0874,5.1032,5.0994,5.0801,5.0051,5.0009,4.9453,4.9007,4.9314,4.9607,4.9767,4.9913,5.0056,4.967,4.8754,4.8251,4.7857,4.6684,4.6064,4.5537,4.4883,4.3944,4.3648,4.3393,4.3322,4.3214,4.3322,4.3496,4.3612,4.3761,4.3735,4.3316,4.2248,4.1656,4.1164,4.0102,3.9557,3.9403,3.8881,3.846,3.8098,3.7313,3.6624,3.622,3.5996,3.5501,3.4872,3.4552,3.4007,3.4244,3.4515,3.487,3.5014,3.5089,3.5158,3.5262,3.5253,3.5218,3.5193,3.5176,3.5181,3.5119,3.5038,3.5049,3.4965,3.5097,3.5567,3.6214,3.6587,3.7376,3.7908,3.842,3.8545,3.8631,3.8117,3.7576,3.6616,3.5666,3.5448,3.5266,3.5207,3.5193,3.5179,3.5185,3.5182,3.5166,3.516,3.51,3.5029,3.4841,3.4481,3.3938,3.3392,3.2443,3.1523,3.0682,3.0587,3.0728,3.1214,3.1808,3.1971,3.2096,3.2747,3.3531,4.7053,4.8527,4.8898,4.9134,4.9378,4.9586,4.9796,4.9931,4.9931,5.0239,5.0778,5.1604,5.155,5.1106,5.1716,5.1242,5.0069,4.9921,4.9787,4.9803,4.9999,5.008,5.03,5.0587,5.0055,4.9556,4.9005,4.8234,4.7002,4.6004,4.5355,4.4765,4.3984,4.3724,4.361,4.3437,4.3323,4.3371,4.3486,4.3592,4.3729,4.4165,4.3423,4.2543,4.1958,4.124,4.0363,3.9835,3.9428,3.8852,3.8237,3.7444,3.6627,3.5818,3.5597,3.5245,3.4697,3.449,3.3998,3.3382,3.3081,3.3246,3.3775,3.4061,3.4487,3.485,3.5017,3.5173,3.5218,3.5196,3.5181,3.5127,3.5073,3.5105,3.5135,3.5164,3.5249,3.5732,3.6426,3.7196,3.8204,3.8918,3.9557,3.9785,3.9375,3.9175,3.8622,3.7994,3.7052,3.6139,3.5891,3.5415,3.5354,3.5225,3.5204,3.5185,3.516,3.5117,3.501,3.4927,3.4774,3.4586,3.414,3.3646,3.3126,3.2242,3.0883,3.015,2.9905,3.0539,3.1537,3.218,3.2409,3.2846,3.3469,4.7465,4.8589,4.8676,4.912,4.9786,5.0172,5.027,5.0215,5.0285,5.0836,5.1807,5.2167,5.2072,5.1864,5.1855,5.1078,5.036,4.9903,4.9864,4.9993,5.0296,5.0077,5.0255,5.0576,5.0205,4.9627,4.9028,4.8465,4.7169,4.6021,4.4766,4.4018,4.3883,4.3717,4.3469,4.3211,4.3088,4.3076,4.3133,4.3364,4.3666,4.4153,4.3371,4.2736,4.2319,4.1457,4.0475,4.0071,3.9489,3.8303,3.8065,3.7348,3.5806,3.5527,3.5387,3.4754,3.436,3.3989,3.2927,3.2446,3.2128,3.1856,3.2213,3.3265,3.3861,3.443,3.4726,3.5028,3.5182,3.5179,3.5127,3.5084,3.5038,3.5039,3.5201,3.5505,3.5733,3.6578,3.7281,3.8185,3.9214,3.9557,4.0263,4.0244,3.9881,3.9881,3.9652,3.905,3.8268,3.7305,3.6412,3.5907,3.5429,3.5234,3.5179,3.5151,3.5117,3.5084,3.4964,3.4831,3.467,3.4486,3.4278,3.3797,3.3098,3.1959,3.0602,3.0175,3.0128,3.0491,3.1359,3.2087,3.2755,3.3179,3.3499,4.7786,4.8833,4.8978,4.9464,5.0154,5.0767,5.0974,5.0959,5.0941,5.1479,5.229,5.2932,5.2737,5.1982,5.1865,5.1241,4.9912,4.9851,4.9872,5.0149,5.0564,5.0465,5.0523,5.054,5.0363,4.9742,4.8984,4.8241,4.6933,4.535,4.3984,4.3855,4.3751,4.3457,4.3114,4.2561,4.2117,4.2202,4.2449,4.2881,4.3407,4.3856,4.3364,4.2773,4.2462,4.159,4.0416,4.0145,3.9099,3.7964,3.7793,3.6934,3.5586,3.5257,3.4999,3.4362,3.3562,3.3044,3.2259,3.1688,3.1184,3.0917,3.1079,3.211,3.3197,3.3941,3.4546,3.5039,3.5108,3.5145,3.5092,3.502,3.4992,3.4945,3.541,3.5875,3.6672,3.7566,3.8432,3.9318,3.9843,4.0101,4.032,4.032,4.0301,4.0204,4.0127,3.9906,3.9056,3.8044,3.7056,3.6277,3.5675,3.5223,3.5189,3.5157,3.5038,3.4974,3.485,3.472,3.4561,3.4367,3.4147,3.3611,3.2951,3.201,3.1254,3.0849,3.0761,3.121,3.1741,3.2521,3.3202,3.3555,3.3781,4.8133,4.9353,4.9689,5.0089,5.0492,5.1367,5.1833,5.1968,5.1954,5.2158,5.2817,5.3743,5.3331,5.2411,5.2203,5.128,5.0311,4.9951,5.0057,5.0246,5.0801,5.0814,5.0515,5.064,5.0485,5.005,4.9249,4.8141,4.6293,4.4656,4.3553,4.3749,4.3091,4.2735,4.2557,4.1724,4.123,4.1142,4.1575,4.2096,4.2931,4.3276,4.3208,4.2596,4.225,4.1779,4.0519,3.9574,3.8745,3.797,3.7215,3.6498,3.5506,3.4892,3.4551,3.3826,3.2869,3.2279,3.1731,3.1223,3.0897,3.0645,3.061,3.146,3.2436,3.3356,3.4033,3.4942,3.5134,3.5073,3.502,3.4992,3.4945,3.5088,3.5457,3.5893,3.6501,3.7565,3.8803,3.9603,4.0072,4.032,4.031,4.032,4.0337,4.0317,4.0342,4.0311,3.9795,3.8772,3.7966,3.6941,3.6175,3.5651,3.5385,3.5285,3.4993,3.485,3.4759,3.4575,3.442,3.4233,3.4023,3.3535,3.3091,3.2884,3.2348,3.1777,3.1567,3.224,3.2741,3.3226,3.3636,3.3869,3.3863,4.8672,4.9731,5.079,5.1172,5.1194,5.2072,5.2546,5.2835,5.3651,5.4144,5.4552,5.4535,5.4186,5.3302,5.2589,5.1607,5.0577,5.0298,5.0326,5.0509,5.0963,5.092,5.0452,5.0776,5.0615,4.9967,4.9126,4.7861,4.5815,4.3978,4.2777,4.2881,4.2277,4.1918,4.1719,4.0854,4.0614,4.0371,4.0605,4.1044,4.1593,4.2337,4.2523,4.2007,4.1628,4.134,4.0342,3.9615,3.8857,3.8097,3.7295,3.6178,3.4779,3.4505,3.3747,3.278,3.221,3.1688,3.1255,3.0905,3.0711,3.0576,3.0636,3.1097,3.177,3.2607,3.3524,3.4511,3.5082,3.502,3.4974,3.4964,3.4974,3.522,3.5476,3.5893,3.631,3.7679,3.9059,3.969,4.0205,4.031,4.032,4.0328,4.0335,4.0377,4.0444,4.0391,4.0186,3.949,3.9097,3.8127,3.6886,3.6279,3.5957,3.5496,3.5219,3.4893,3.4722,3.4521,3.4293,3.4068,3.3889,3.3637,3.3342,3.3222,3.2913,3.2272,3.2311,3.3052,3.3285,3.3566,3.3722,3.3923,3.3829,4.9094,5.0266,5.159,5.2007,5.2005,5.2879,5.3442,5.3825,5.4838,5.5526,5.5749,5.5247,5.4603,5.3945,5.301,5.1892,5.0878,5.0858,5.0682,5.0735,5.0937,5.1051,5.0992,5.0752,5.0265,4.9629,4.8146,4.6624,4.5056,4.3552,4.2493,4.2119,4.1445,4.0994,4.0748,4.054,4.0198,3.9946,3.9946,4.0038,4.0287,4.0853,4.1329,4.096,4.089,4.0592,3.9969,3.9254,3.8691,3.7868,3.7009,3.5828,3.464,3.4021,3.319,3.229,3.1612,3.1177,3.0842,3.068,3.0618,3.0525,3.0477,3.0865,3.1422,3.2271,3.3157,3.4113,3.4868,3.4917,3.4936,3.4917,3.4964,3.5125,3.5372,3.5712,3.6728,3.8079,3.9213,4.0014,4.032,4.032,4.032,4.0318,4.0335,4.0398,4.0463,4.05,4.0273,4.0122,3.9769,3.927,3.8019,3.7205,3.6871,3.6197,3.5497,3.5147,3.4899,3.4505,3.429,3.3991,3.3747,3.3692,3.3702,3.3716,3.3317,3.2933,3.312,3.3799,3.382,3.3745,3.387,3.3908,3.3707,4.942,5.0833,5.2188,5.273,5.2801,5.3607,5.4195,5.4606,5.5548,5.6188,5.6342,5.5536,5.4759,5.4068,5.3142,5.1926,5.1226,5.1205,5.1052,5.0842,5.107,5.1252,5.0934,5.0388,4.9924,4.878,4.7197,4.5867,4.4509,4.3001,4.1812,4.1285,4.0802,4.0359,4.0359,4.0083,3.9654,3.9802,3.9747,3.9368,3.939,3.945,3.9786,3.9975,3.9966,3.9746,3.9105,3.853,3.8106,3.7486,3.6576,3.5331,3.435,3.3557,3.2638,3.1803,3.1122,3.0824,3.0642,3.0622,3.0534,3.0446,3.0414,3.0644,3.1188,3.1963,3.2854,3.354,3.4282,3.4879,3.4889,3.4889,3.4936,3.5069,3.5343,3.5798,3.7138,3.8384,3.9299,4.0186,4.0301,4.0301,4.032,4.0318,4.0353,4.0415,4.0458,4.0487,4.0462,4.0377,4.0172,3.9829,3.9089,3.8409,3.7852,3.6984,3.6128,3.5942,3.5679,3.4931,3.4321,3.4109,3.4002,3.4018,3.4025,3.4017,3.4149,3.3979,3.4285,3.4383,3.4183,3.3973,3.392,3.3895,3.355,4.9378,5.106,5.2438,5.3403,5.3914,5.386,5.4172,5.4904,5.5413,5.584,5.5884,5.5649,5.5156,5.4778,5.3363,5.2223,5.1494,5.1504,5.1104,5.0745,5.1097,5.141,5.1219,5.0271,4.965,4.8275,4.666,4.5345,4.3889,4.2304,4.1064,4.0377,3.9678,3.95,3.9708,3.9513,3.9503,3.9586,3.9237,3.8782,3.8822,3.8795,3.862,3.8582,3.8362,3.8363,3.8131,3.7552,3.7255,3.6847,3.622,3.4949,3.3938,3.3184,3.2377,3.1394,3.0714,3.0675,3.0617,3.0567,3.0472,3.04,3.0349,3.027,3.092,3.1743,3.2445,3.2845,3.3648,3.465,3.4839,3.482,3.4859,3.5173,3.5458,3.6321,3.7442,3.8403,3.9299,3.991,4.0301,4.0301,4.031,4.0327,4.0388,4.0438,4.0495,4.0516,4.0508,4.0489,4.0508,4.0186,3.9834,3.9402,3.8747,3.7753,3.699,3.6799,3.6375,3.5541,3.4829,3.4352,3.4247,3.4222,3.4233,3.4218,3.4397,3.4506,3.4528,3.4502,3.4367,3.4208,3.4136,3.4015,3.38]}]]